[[{"header":{"parameterUnit":"m.s-1","parameterCategory":1,"la1":31.0,"la2":29.5877,"lo1":-88.7671,"lo2":-86.6584,"dy":0.0162,"dx":0.0185,"nx":115,"ny":88,"refTime":"2023-08-30T12:00:00:Z","depth":0,"parameterNumber":2,"parameterNumberName":"U-component_of_WINDS"},"data":[0.0,0.0,0.0,0.0,0.0,0.0,0.0,0.0,0.0,0.0,0.0,0.0,0.0,0.0,0.0,0.0,0.0,0.0,0.0,0.0,0.0,0.0,0.0,0.0,0.0,0.0,0.0,0.0,0.0,0.0,0.0,0.0,0.0,0.0,0.0,0.0,0.0,0.0,0.0,0.0,0.0,0.0,0.0,0.0,0.0,0.0,0.0,0.0,0.0,0.0,0.0,0.0,0.0,0.0,0.0,0.0,0.0,0.0,0.0,0.0,0.0,0.0,0.0,0.0,0.0,0.0,0.0,0.0,0.0,0.0,0.0,0.0,0.0,0.0,0.0,0.0,0.0,0.0,0.0,0.0,0.0,0.0,0.0,0.0,0.0,0.0,0.0,0.0,0.0,0.0,0.0,0.0,0.0,0.0,0.0,0.0,0.0,0.0,0.0,0.0,0.0,0.0,0.0,0.0,0.0,0.0,0.0,0.0,0.0,0.0,0.0,0.0,0.0,0.0,0.0,0.0,0.0,0.0,0.0,0.0,0.0,0.0,0.0,0.0,0.0,0.0,0.0,0.0,0.0,0.0,0.0,0.0,0.0,0.0,0.0,0.0,0.0,0.0,0.0,0.0,0.0,0.0,0.0,0.0,0.0,0.0,0.0,0.0,0.0,0.0,0.0,0.0,0.0,0.0,0.0,0.0,0.0,0.0,0.0,0.0,0.0,0.0,0.0,0.0,0.0,0.0,0.0,0.0,0.0,0.0,0.0,0.0,0.0,0.0,0.0,0.0,0.0,0.0,0.0,0.0,0.0,0.0,0.0,0.0,0.0,0.0,0.0,0.0,0.0,0.0,0.0,0.0,0.0,0.0,0.0,0.0,0.0,0.0,0.0,0.0,0.0,0.0,0.0,0.0,0.0,0.0,0.0,0.0,0.0,0.0,0.0,0.0,0.0,0.0,0.0,0.0,0.0,0.0,0.0,0.0,0.0,0.0,0.0,0.0,0.0,0.0,0.0,0.0,0.0,0.0,0.0,0.0,0.0,0.0,0.0,0.0,0.0,0.0,0.0,0.0,0.0,0.0,0.0,0.0,0.0,0.0,0.0,0.0,0.0,0.0,0.0,0.0,0.0,0.0,0.0,0.0,0.0,0.0,0.0,0.0,0.0,0.0,0.0,0.0,0.0,0.0,0.0,0.0,0.0,0.0,0.0,0.0,0.0,0.0,0.0,0.0,0.0,0.0,0.0,0.0,0.0,0.0,0.0,0.0,0.0,0.0,0.0,0.0,0.0,0.0,0.0,0.0,0.0,0.0,0.0,0.0,0.0,0.0,0.0,0.0,0.0,0.0,0.0,0.0,0.0,0.0,0.0,0.0,0.0,0.0,0.0,0.0,0.0,0.0,0.0,0.0,0.0,0.0,0.0,0.0,0.0,0.0,0.0,0.0,0.0,0.0,0.0,0.0,0.0,0.0,0.0,0.0,0.0,0.0,0.0,0.0,0.0,0.0,0.0,0.0,0.0,0.0,0.0,0.0,0.0,0.0,0.0,0.0,0.0,0.0,0.0,0.0,0.0,0.0,0.0,0.0,0.0,0.0,0.0,0.0,0.0,0.0,0.0,0.0,0.0,0.0,0.0,0.0,0.0,0.0,0.0,0.0,0.0,0.0,0.0,0.0,0.0,0.0,0.0,0.0,0.0,0.0,0.0,0.0,0.0,0.0,0.0,0.0,0.0,0.0,0.0,0.0,0.0,0.0,0.0,0.0,0.0,0.0,0.0,0.0,0.0,0.0,0.0,0.0,0.0,0.0,0.0,0.0,0.0,0.0,0.0,0.0,0.0,0.0,0.0,0.0,0.0,0.0,0.0,0.0,0.0,0.0,0.0,0.0,0.0,0.0,0.0,0.0,0.0,0.0,0.0,0.0,0.0,0.0,0.0,0.0,0.0,0.0,0.0,0.0,0.0,0.0,0.0,0.0,0.0,0.0,0.0,0.0,0.0,0.0,0.0,0.0,0.0,0.0,0.0,0.0,0.0,0.0,0.0,0.0,0.0,0.0,0.0,0.0,0.0,0.0,0.0,0.0,0.0,0.0,0.0,0.0,0.0,0.0,0.0,0.0,0.0,0.0,0.0,0.0,0.0,0.0,0.0,0.0,0.0,0.0,0.0,0.0,0.0,0.0,0.0,0.0,0.0,0.0,0.0,0.0,0.0,0.0,0.0,0.0,0.0,0.0,0.0,0.0,0.0,0.0,0.0,0.0,0.0,0.0,0.0,0.0,0.0,0.0,0.0,0.0,0.0,0.0,0.0,0.0,0.0,0.0,0.0,0.0,0.0,0.0,0.0,0.0,0.0,0.0,0.0,0.0,0.0,0.0,0.0,0.0,0.0,0.0,0.0,0.0,0.0,0.0,0.0,0.0,0.0,0.0,0.0,0.0,0.0,0.0,0.0,0.0,0.0,0.0,0.0,0.0,0.0,0.0,0.0,0.0,0.0,0.0,0.0,0.0,0.0,0.0,0.0,0.0,0.0,0.0,0.0,0.0,0.0,0.0,0.0,0.0,0.0,0.0,0.0,0.0,0.0,0.0,0.0,0.0,0.0,0.0,0.0,0.0,0.0,0.0,0.0,0.0,0.0,0.0,0.0,0.0,0.0,0.0,0.0,0.0,0.0,0.0,0.0,0.0,0.0,0.0,0.0,0.0,0.0,0.0,0.0,0.0,0.0,0.0,0.0,0.0,0.0,0.0,0.0,0.0,0.0,0.0,0.0,0.0,0.0,0.0,0.0,0.0,0.0,0.0,0.0,0.0,0.0,0.0,0.0,0.0,0.0,0.0,0.0,0.0,0.0,0.0,0.0,0.0,0.0,0.0,0.0,0.0,0.0,0.0,0.0,0.0,0.0,0.0,0.0,0.0,0.0,0.0,0.0,0.0,0.0,0.0,0.0,0.0,0.0,0.0,0.0,0.0,0.0,0.0,0.0,0.0,0.0,0.0,0.0,0.0,0.0,0.0,0.0,0.0,0.0,0.0,0.0,0.0,0.0,0.0,0.0,0.0,0.0,0.0,0.0,0.0,0.0,0.0,0.0,0.0,0.0,0.0,0.0,0.0,0.0,0.0,0.0,0.0,0.0,0.0,0.0,0.0,0.0,0.0,0.0,0.0,0.0,0.0,0.0,0.0,0.0,0.0,0.0,0.0,0.0,0.0,0.0,0.0,0.0,0.0,0.0,0.0,0.0,0.0,0.0,0.0,0.0,0.0,0.0,0.0,0.0,0.0,0.0,0.0,0.0,0.0,0.0,0.0,0.0,0.0,0.0,0.0,0.0,0.0,0.0,0.0,0.0,0.0,0.0,0.0,0.0,0.0,0.0,0.0,0.0,0.0,0.0,0.0,0.0,0.0,0.0,0.0,0.0,0.0,0.0,0.0,0.0,0.0,0.0,0.0,0.0,0.0,0.0,0.0,0.0,0.0,0.0,0.0,0.0,0.0,0.0,0.0,0.0,0.0,0.0,0.0,0.0,0.0,0.0,0.0,0.0,0.0,0.0,0.0,0.0,0.0,0.0,0.0,0.0,0.0,0.0,0.0,0.0,0.0,0.0,0.0,0.0,0.0,0.0,0.0,0.0,0.0,0.0,0.0,0.0,0.0,0.0,0.0,0.0,0.0,0.0,0.0,0.0,0.0,0.0,0.0,0.0,0.0,0.0,0.0,0.0,0.0,0.0,0.0,0.0,0.0,0.0,0.0,0.0,0.0,0.0,0.0,0.0,0.0,0.0,0.0,0.0,0.0,0.0,0.0,0.0,0.0,0.0,0.0,0.0,0.0,0.0,0.0,0.0,0.0,0.0,0.0,0.0,0.0,0.0,0.0,0.0,0.0,0.0,0.0,0.0,0.0,0.0,0.0,0.0,0.0,0.0,0.0,0.0,0.0,0.0,0.0,0.0,0.0,0.0,0.0,0.0,0.0,0.0,0.0,0.0,0.0,0.0,0.0,0.0,0.0,0.0,0.0,0.0,0.0,0.0,0.0,0.0,0.0,0.0,0.0,0.0,0.0,0.0,0.0,0.0,0.0,0.0,0.0,0.0,0.0,0.0,0.0,0.0,0.0,0.0,0.0,0.0,0.0,0.0,0.0,0.0,0.0,0.0,0.0,0.0,0.0,0.0,0.0,0.0,0.0,0.0,0.0,0.0,0.0,0.0,0.0,0.0,0.0,0.0,0.0,0.0,0.0,0.0,0.0,0.0,0.0,0.0,0.0,0.0,0.0,0.0,0.0,0.0,0.0,-1.231,0.0,0.0,0.0,0.0,0.0,0.0,0.0,0.0,0.0,0.0,0.0,0.0,0.0,0.0,0.0,0.0,0.0,0.0,0.0,0.0,0.0,0.0,0.0,0.0,0.0,0.0,0.0,0.0,0.0,0.0,0.0,0.0,0.0,0.0,0.0,0.0,0.0,0.0,0.0,0.0,0.0,0.0,0.0,0.0,0.0,0.0,0.0,0.0,0.0,0.0,0.0,0.0,0.0,0.0,0.0,0.0,0.0,0.0,0.0,0.0,0.0,0.0,0.0,0.0,0.0,0.0,0.0,0.0,0.0,0.0,0.0,0.0,0.0,0.0,0.0,0.0,0.0,0.0,0.0,0.0,0.0,0.0,0.0,0.0,0.0,0.0,0.0,0.0,0.0,0.0,0.0,0.0,0.0,0.0,0.0,0.0,0.0,0.0,0.0,0.0,0.0,0.0,0.0,0.0,0.0,0.0,0.0,0.0,0.0,0.0,-1.3492,-1.3492,-1.3492,-1.3192,-1.2548,0.0,0.0,0.0,0.0,0.0,0.0,0.0,0.0,0.0,0.0,0.0,0.0,0.0,0.0,0.0,0.0,0.0,0.0,0.0,0.0,0.0,0.0,0.0,0.0,0.0,0.0,0.0,0.0,0.0,0.0,0.0,0.0,0.0,0.0,0.0,0.0,0.0,0.0,0.0,0.0,0.0,0.0,0.0,0.0,0.0,0.0,0.0,0.0,0.0,0.0,0.0,0.0,0.0,0.0,0.0,0.0,0.0,0.0,0.0,0.0,0.0,0.0,0.0,0.0,0.0,0.0,0.0,0.0,0.0,0.0,0.0,0.0,0.0,0.0,0.0,0.0,0.0,0.0,0.0,0.0,0.0,0.0,0.0,0.0,0.0,0.0,0.0,0.0,0.0,0.0,0.0,0.0,0.0,0.0,0.0,0.0,0.0,0.0,0.0,0.0,0.0,0.0,0.0,0.0,0.0,0.0,0.0,0.0,0.0,0.0,0.0,0.0,-1.3609,-1.3337,-1.276,0.0,0.0,0.0,0.0,0.0,0.0,0.0,0.0,0.0,0.0,0.0,0.0,0.0,0.0,0.0,0.0,0.0,0.0,0.0,0.0,0.0,0.0,0.0,0.0,0.0,0.0,0.0,0.0,0.0,0.0,0.0,0.0,0.0,0.0,0.0,0.0,0.0,0.0,0.0,0.0,0.0,0.0,0.0,0.0,0.0,0.0,0.0,0.0,0.0,0.0,0.0,0.0,0.0,0.0,0.0,0.0,0.0,0.0,0.0,0.0,0.0,0.0,0.0,0.0,0.0,0.0,0.0,0.0,0.0,0.0,0.0,0.0,0.0,0.0,0.0,0.0,0.0,0.0,0.0,0.0,0.0,0.0,0.0,0.0,0.0,0.0,0.0,0.0,0.0,0.0,0.0,0.0,0.0,0.0,0.0,0.0,0.0,0.0,0.0,0.0,0.0,0.0,0.0,0.0,0.0,0.0,0.0,0.0,0.0,0.0,-1.3631,-1.3961,-1.3961,0.0,-1.3422,0.0,0.0,0.0,0.0,0.0,0.0,0.0,0.0,0.0,0.0,0.0,0.0,0.0,0.0,0.0,0.0,0.0,0.0,0.0,0.0,0.0,0.0,0.0,0.0,0.0,0.0,0.0,0.0,0.0,0.0,0.0,0.0,0.0,0.0,0.0,0.0,0.0,0.0,0.0,0.0,0.0,0.0,0.0,0.0,0.0,0.0,0.0,0.0,0.0,0.0,0.0,0.0,0.0,0.0,0.0,0.0,0.0,0.0,0.0,0.0,0.0,0.0,0.0,0.0,0.0,0.0,0.0,0.0,0.0,0.0,0.0,0.0,0.0,0.0,0.0,0.0,0.0,0.0,0.0,0.0,0.0,0.0,0.0,0.0,0.0,0.0,0.0,0.0,0.0,0.0,0.0,0.0,0.0,0.0,0.0,0.0,0.0,0.0,0.0,0.0,0.0,0.0,0.0,0.0,0.0,0.0,0.0,0.0,0.0,0.0,-1.4104,-1.4755,-1.4361,-1.4057,0.0,0.0,0.0,0.0,0.0,0.0,0.0,0.0,0.0,0.0,0.0,0.0,0.0,0.0,0.0,0.0,0.0,0.0,0.0,0.0,0.0,0.0,0.0,0.0,0.0,0.0,0.0,0.0,0.0,0.0,0.0,0.0,0.0,0.0,0.0,0.0,0.0,0.0,0.0,0.0,0.0,0.0,0.0,0.0,0.0,0.0,0.0,0.0,0.0,0.0,0.0,0.0,0.0,0.0,0.0,0.0,0.0,0.0,0.0,0.0,0.0,0.0,0.0,0.0,0.0,0.0,0.0,0.0,0.0,0.0,0.0,0.0,0.0,0.0,0.0,0.0,0.0,0.0,0.0,0.0,0.0,0.0,0.0,0.0,0.0,0.0,0.0,0.0,0.0,0.0,0.0,0.0,0.0,0.0,0.0,0.0,0.0,0.0,0.0,0.0,0.0,0.0,0.0,0.0,0.0,0.0,0.0,0.0,0.0,0.0,-1.4231,-1.4755,-1.5466,-1.5122,-1.4747,-1.4357,0.0,0.0,0.0,0.0,0.0,0.0,0.0,0.0,0.0,0.0,0.0,0.0,0.0,0.0,0.0,0.0,0.0,0.0,0.0,0.0,0.0,0.0,0.0,0.0,0.0,0.0,0.0,0.0,0.0,0.0,0.0,0.0,0.0,0.0,0.0,0.0,0.0,0.0,0.0,0.0,0.0,0.0,0.0,0.0,0.0,0.0,0.0,0.0,0.0,0.0,0.0,0.0,0.0,0.0,0.0,0.0,0.0,0.0,0.0,0.0,0.0,0.0,0.0,0.0,0.0,0.0,0.0,0.0,0.0,0.0,0.0,0.0,0.0,0.0,0.0,0.0,0.0,0.0,0.0,0.0,0.0,0.0,0.0,0.0,0.0,0.0,0.0,0.0,0.0,0.0,0.0,0.0,0.0,0.0,0.0,0.0,0.0,0.0,0.0,0.0,0.0,0.0,0.0,0.0,0.0,0.0,0.0,0.0,-1.5123,-1.5224,-1.5556,-1.6145,-1.6304,-1.6018,0.0,0.0,0.0,0.0,0.0,0.0,0.0,0.0,0.0,0.0,0.0,0.0,0.0,0.0,0.0,0.0,0.0,0.0,0.0,0.0,0.0,0.0,0.0,0.0,0.0,0.0,0.0,0.0,0.0,0.0,0.0,0.0,0.0,0.0,0.0,0.0,0.0,0.0,0.0,0.0,0.0,0.0,0.0,0.0,0.0,0.0,0.0,0.0,0.0,0.0,0.0,0.0,0.0,0.0,0.0,0.0,0.0,0.0,0.0,0.0,0.0,0.0,0.0,0.0,0.0,0.0,0.0,0.0,0.0,0.0,0.0,0.0,0.0,0.0,0.0,0.0,0.0,0.0,0.0,0.0,0.0,0.0,0.0,0.0,0.0,0.0,0.0,0.0,0.0,0.0,0.0,0.0,0.0,0.0,0.0,0.0,0.0,0.0,0.0,0.0,0.0,0.0,0.0,0.0,0.0,0.0,0.0,0.0,0.0,-1.4786,-1.5816,-1.6371,-1.6524,-1.6537,-1.624,0.0,0.0,0.0,0.0,0.0,0.0,0.0,0.0,0.0,0.0,0.0,0.0,0.0,0.0,0.0,0.0,0.0,0.0,0.0,0.0,0.0,0.0,0.0,0.0,0.0,0.0,0.0,0.0,0.0,0.0,0.0,0.0,0.0,0.0,0.0,0.0,0.0,0.0,0.0,0.0,0.0,0.0,0.0,0.0,0.0,0.0,0.0,0.0,0.0,0.0,0.0,0.0,0.0,0.0,0.0,0.0,0.0,0.0,0.0,0.0,0.0,0.0,0.0,0.0,0.0,0.0,0.0,0.0,0.0,0.0,0.0,0.0,0.0,0.0,0.0,0.0,0.0,0.0,0.0,0.0,0.0,0.0,0.0,0.0,0.0,0.0,0.0,0.0,0.0,0.0,0.0,0.0,0.0,0.0,0.0,0.0,0.0,0.0,0.0,0.0,0.0,0.0,0.0,0.0,0.0,0.0,0.0,0.0,0.0,-1.557,0.0,-1.7627,-1.7306,-1.7139,-1.6697,0.0,0.0,0.0,0.0,0.0,0.0,0.0,0.0,0.0,0.0,0.0,0.0,0.0,0.0,0.0,0.0,0.0,0.0,0.0,0.0,0.0,0.0,0.0,0.0,0.0,0.0,0.0,0.0,0.0,0.0,0.0,0.0,0.0,0.0,0.0,0.0,0.0,0.0,0.0,0.0,0.0,0.0,0.0,0.0,0.0,0.0,0.0,0.0,0.0,0.0,0.0,0.0,0.0,0.0,0.0,0.0,0.0,0.0,0.0,0.0,0.0,0.0,0.0,0.0,0.0,0.0,0.0,0.0,0.0,0.0,0.0,0.0,0.0,0.0,0.0,0.0,0.0,0.0,0.0,0.0,0.0,0.0,0.0,0.0,0.0,0.0,0.0,0.0,0.0,0.0,0.0,0.0,0.0,0.0,0.0,0.0,0.0,0.0,0.0,0.0,0.0,0.0,0.0,0.0,0.0,0.0,0.0,0.0,-1.5636,-1.767,-1.8886,-1.9122,-1.8522,-1.8193,-1.7449,0.0,0.0,0.0,0.0,0.0,0.0,0.0,0.0,0.0,0.0,0.0,0.0,0.0,0.0,0.0,0.0,0.0,0.0,0.0,0.0,0.0,0.0,0.0,0.0,0.0,0.0,0.0,0.0,0.0,0.0,0.0,0.0,0.0,0.0,0.0,0.0,0.0,0.0,0.0,0.0,0.0,0.0,0.0,0.0,0.0,0.0,0.0,0.0,0.0,0.0,0.0,0.0,0.0,0.0,0.0,0.0,0.0,0.0,0.0,0.0,0.0,0.0,0.0,0.0,0.0,0.0,0.0,0.0,0.0,0.0,0.0,0.0,0.0,0.0,0.0,0.0,0.0,0.0,0.0,0.0,0.0,0.0,0.0,0.0,0.0,0.0,0.0,0.0,0.0,0.0,0.0,0.0,0.0,0.0,0.0,0.0,0.0,0.0,0.0,0.0,0.0,0.0,0.0,0.0,0.0,0.0,0.0,0.0,0.0,-1.7062,-1.8265,-1.8868,-1.8834,-1.8357,-1.7898,0.0,0.0,0.0,0.0,0.0,0.0,0.0,0.0,0.0,0.0,0.0,0.0,0.0,0.0,0.0,0.0,0.0,0.0,0.0,0.0,0.0,0.0,0.0,0.0,0.0,0.0,0.0,0.0,0.0,0.0,0.0,0.0,0.0,0.0,0.0,0.0,0.0,0.0,0.0,0.0,0.0,0.0,0.0,0.0,0.0,0.0,0.0,0.0,0.0,0.0,0.0,0.0,0.0,0.0,0.0,0.0,0.0,0.0,0.0,0.0,0.0,0.0,0.0,0.0,0.0,0.0,0.0,0.0,0.0,0.0,0.0,0.0,0.0,0.0,0.0,0.0,0.0,0.0,0.0,0.0,0.0,0.0,0.0,0.0,0.0,0.0,0.0,0.0,0.0,0.0,0.0,0.0,0.0,0.0,0.0,0.0,0.0,0.0,0.0,0.0,0.0,0.0,0.0,0.0,0.0,0.0,0.0,0.0,0.0,-1.7454,-1.8536,-1.9186,-1.9273,-1.8767,-1.8209,-1.7707,0.0,0.0,0.0,0.0,0.0,0.0,0.0,0.0,0.0,0.0,0.0,0.0,0.0,0.0,0.0,0.0,0.0,0.0,0.0,0.0,0.0,0.0,0.0,0.0,0.0,0.0,0.0,0.0,0.0,0.0,0.0,0.0,0.0,0.0,0.0,0.0,0.0,0.0,0.0,0.0,0.0,0.0,0.0,0.0,0.0,0.0,0.0,0.0,0.0,0.0,0.0,0.0,0.0,0.0,0.0,0.0,0.0,0.0,0.0,0.0,0.0,0.0,0.0,0.0,0.0,0.0,0.0,0.0,0.0,0.0,0.0,0.0,0.0,0.0,0.0,0.0,0.0,0.0,0.0,0.0,0.0,0.0,0.0,0.0,0.0,0.0,0.0,0.0,0.0,0.0,0.0,0.0,0.0,0.0,0.0,0.0,0.0,0.0,0.0,0.0,0.0,0.0,0.0,0.0,0.0,0.0,0.0,0.0,-1.862,-1.957,-2.0012,-1.982,-1.9357,-1.8454,0.0,0.0,0.0,0.0,0.0,0.0,0.0,0.0,0.0,0.0,0.0,0.0,0.0,0.0,0.0,0.0,0.0,0.0,0.0,0.0,0.0,0.0,0.0,0.0,0.0,0.0,0.0,0.0,0.0,0.0,0.0,0.0,0.0,0.0,0.0,0.0,0.0,0.0,0.0,0.0,0.0,0.0,0.0,0.0,0.0,0.0,0.0,0.0,0.0,0.0,0.0,0.0,0.0,0.0,0.0,0.0,0.0,0.0,0.0,0.0,0.0,0.0,0.0,0.0,0.0,0.0,0.0,0.0,0.0,0.0,0.0,0.0,0.0,0.0,0.0,0.0,0.0,0.0,0.0,0.0,0.0,0.0,0.0,0.0,0.0,0.0,0.0,0.0,0.0,0.0,0.0,0.0,0.0,0.0,0.0,0.0,0.0,0.0,0.0,0.0,0.0,0.0,0.0,0.0,0.0,0.0,0.0,0.0,0.0,-1.8828,-1.9825,-2.0237,-2.0088,-1.9431,-1.8776,0.0,0.0,0.0,0.0,0.0,0.0,0.0,0.0,0.0,0.0,0.0,0.0,0.0,0.0,0.0,0.0,0.0,0.0,0.0,0.0,0.0,0.0,0.0,0.0,0.0,0.0,0.0,0.0,0.0,0.0,0.0,0.0,0.0,0.0,0.0,0.0,0.0,0.0,0.0,0.0,0.0,0.0,0.0,0.0,0.0,0.0,0.0,0.0,0.0,0.0,0.0,0.0,0.0,0.0,0.0,0.0,0.0,0.0,0.0,0.0,0.0,0.0,0.0,0.0,0.0,0.0,0.0,0.0,0.0,0.0,0.0,0.0,0.0,0.0,0.0,0.0,0.0,0.0,0.0,0.0,0.0,0.0,0.0,0.0,0.0,0.0,0.0,0.0,0.0,0.0,0.0,0.0,0.0,0.0,0.0,0.0,0.0,0.0,0.0,0.0,0.0,0.0,0.0,0.0,0.0,0.0,0.0,0.0,-1.8535,-1.9274,-1.9848,-2.0199,-2.0298,-2.0075,-1.9437,0.0,0.0,0.0,0.0,0.0,0.0,0.0,0.0,0.0,0.0,0.0,0.0,0.0,0.0,0.0,0.0,0.0,0.0,0.0,0.0,0.0,0.0,0.0,0.0,0.0,0.0,0.0,0.0,0.0,0.0,0.0,0.0,0.0,0.0,0.0,0.0,0.0,0.0,0.0,0.0,0.0,0.0,0.0,0.0,0.0,0.0,0.0,0.0,0.0,0.0,0.0,0.0,0.0,0.0,0.0,0.0,0.0,0.0,0.0,0.0,0.0,0.0,0.0,0.0,0.0,0.0,0.0,0.0,0.0,0.0,0.0,0.0,0.0,0.0,0.0,0.0,0.0,0.0,0.0,0.0,0.0,0.0,0.0,0.0,0.0,0.0,0.0,0.0,0.0,0.0,0.0,0.0,0.0,0.0,0.0,0.0,0.0,0.0,0.0,0.0,0.0,0.0,0.0,0.0,0.0,0.0,0.0,0.0,-1.9039,-1.9782,-1.9844,-2.0052,-2.041,-2.0731,-2.0141,0.0,0.0,0.0,0.0,0.0,0.0,0.0,0.0,0.0,0.0,0.0,0.0,0.0,0.0,0.0,0.0,0.0,0.0,0.0,0.0,0.0,0.0,0.0,0.0,0.0,0.0,0.0,0.0,0.0,0.0,0.0,0.0,0.0,0.0,0.0,0.0,0.0,0.0,0.0,0.0,0.0,0.0,0.0,0.0,0.0,0.0,0.0,0.0,0.0,0.0,0.0,0.0,0.0,0.0,0.0,0.0,0.0,0.0,0.0,0.0,0.0,0.0,0.0,0.0,0.0,0.0,0.0,0.0,0.0,0.0,0.0,0.0,0.0,0.0,0.0,0.0,0.0,0.0,0.0,0.0,0.0,0.0,0.0,0.0,0.0,0.0,0.0,0.0,0.0,0.0,0.0,0.0,0.0,0.0,0.0,0.0,0.0,0.0,0.0,0.0,0.0,0.0,0.0,0.0,0.0,0.0,0.0,0.0,-1.9469,-1.9793,-2.011,-2.0338,-2.0374,-1.9831,-1.9357,0.0,0.0,0.0,0.0,0.0,0.0,0.0,0.0,0.0,0.0,0.0,0.0,0.0,0.0,0.0,0.0,0.0,0.0,0.0,0.0,0.0,0.0,0.0,0.0,0.0,0.0,0.0,0.0,0.0,0.0,0.0,0.0,0.0,0.0,0.0,0.0,0.0,0.0,0.0,0.0,0.0,0.0,0.0,0.0,0.0,0.0,0.0,0.0,-2.4538,0.0,0.0,0.0,0.0,0.0,0.0,0.0,0.0,0.0,0.0,0.0,0.0,0.0,0.0,0.0,0.0,0.0,0.0,0.0,0.0,0.0,0.0,0.0,0.0,0.0,0.0,0.0,0.0,0.0,0.0,0.0,0.0,0.0,0.0,0.0,0.0,0.0,0.0,0.0,0.0,0.0,0.0,0.0,0.0,0.0,0.0,0.0,0.0,0.0,0.0,0.0,0.0,0.0,0.0,0.0,0.0,0.0,0.0,0.0,-1.9493,-1.9492,-1.9882,-2.0285,-2.0533,-1.9839,-1.9326,0.0,0.0,0.0,0.0,0.0,0.0,0.0,0.0,0.0,0.0,0.0,0.0,0.0,0.0,0.0,0.0,0.0,0.0,0.0,0.0,0.0,0.0,0.0,0.0,0.0,0.0,0.0,0.0,0.0,0.0,0.0,0.0,0.0,0.0,0.0,0.0,0.0,0.0,0.0,0.0,0.0,0.0,0.0,0.0,0.0,0.0,0.0,0.0,0.0,0.0,0.0,0.0,0.0,0.0,0.0,0.0,0.0,0.0,0.0,0.0,0.0,0.0,0.0,0.0,0.0,0.0,0.0,0.0,0.0,0.0,0.0,0.0,0.0,0.0,0.0,0.0,0.0,0.0,0.0,0.0,0.0,0.0,0.0,0.0,0.0,0.0,0.0,0.0,0.0,0.0,0.0,0.0,0.0,0.0,0.0,0.0,0.0,0.0,0.0,0.0,0.0,0.0,0.0,0.0,0.0,0.0,0.0,-1.8808,-1.9397,-1.9366,-1.9755,-2.0239,-2.076,-2.0337,-1.9708,-1.9025,0.0,0.0,0.0,0.0,0.0,0.0,0.0,0.0,0.0,0.0,0.0,0.0,0.0,0.0,0.0,0.0,0.0,0.0,0.0,0.0,0.0,0.0,0.0,0.0,0.0,0.0,0.0,0.0,0.0,0.0,0.0,0.0,0.0,0.0,0.0,0.0,0.0,0.0,-2.4064,-2.4799,0.0,0.0,0.0,0.0,0.0,0.0,0.0,0.0,-2.5989,0.0,0.0,0.0,0.0,0.0,0.0,0.0,0.0,0.0,0.0,0.0,0.0,0.0,0.0,0.0,0.0,0.0,0.0,0.0,0.0,0.0,0.0,0.0,0.0,0.0,0.0,0.0,0.0,0.0,0.0,0.0,0.0,0.0,0.0,0.0,0.0,0.0,0.0,0.0,0.0,0.0,0.0,0.0,0.0,0.0,0.0,0.0,0.0,0.0,0.0,0.0,0.0,0.0,0.0,0.0,0.0,-1.8794,-1.9042,-1.9593,-2.0495,-2.0582,-2.0704,-2.0805,-2.1083,-2.0354,-1.8643,0.0,0.0,0.0,0.0,0.0,0.0,0.0,0.0,0.0,0.0,0.0,0.0,0.0,0.0,0.0,0.0,0.0,0.0,0.0,0.0,0.0,0.0,0.0,0.0,0.0,0.0,0.0,0.0,0.0,0.0,0.0,0.0,0.0,0.0,0.0,0.0,0.0,0.0,0.0,-2.5451,-2.5823,0.0,0.0,0.0,0.0,0.0,0.0,0.0,0.0,-2.6594,0.0,0.0,0.0,0.0,0.0,0.0,0.0,0.0,0.0,0.0,0.0,0.0,0.0,0.0,0.0,0.0,0.0,0.0,0.0,0.0,0.0,0.0,0.0,0.0,0.0,0.0,0.0,0.0,0.0,0.0,0.0,0.0,0.0,0.0,0.0,0.0,0.0,0.0,0.0,0.0,0.0,0.0,0.0,0.0,0.0,0.0,0.0,0.0,0.0,0.0,0.0,0.0,0.0,0.0,0.0,-1.8254,-1.8794,-1.9379,-1.9924,-2.0257,-2.0732,-2.1352,-2.1297,-2.0968,0.0,0.0,0.0,0.0,0.0,0.0,0.0,0.0,0.0,0.0,0.0,0.0,0.0,0.0,0.0,0.0,0.0,0.0,0.0,0.0,0.0,0.0,0.0,0.0,0.0,0.0,0.0,0.0,0.0,0.0,0.0,0.0,0.0,0.0,0.0,0.0,0.0,0.0,0.0,0.0,-2.5365,-2.572,-2.6175,0.0,0.0,0.0,0.0,0.0,0.0,-2.6185,-2.6812,0.0,0.0,0.0,0.0,0.0,0.0,0.0,0.0,0.0,0.0,0.0,0.0,0.0,0.0,0.0,0.0,0.0,0.0,0.0,0.0,0.0,0.0,0.0,0.0,0.0,0.0,0.0,0.0,0.0,0.0,0.0,0.0,0.0,0.0,0.0,0.0,0.0,0.0,0.0,0.0,0.0,0.0,0.0,0.0,0.0,0.0,0.0,0.0,0.0,0.0,0.0,0.0,0.0,0.0,0.0,-1.7564,-1.8587,-1.9216,-1.9433,-2.005,-2.0919,-2.1994,-2.1564,-2.151,0.0,0.0,0.0,0.0,0.0,0.0,0.0,0.0,0.0,0.0,0.0,0.0,0.0,0.0,0.0,0.0,0.0,0.0,0.0,0.0,0.0,0.0,0.0,0.0,0.0,0.0,0.0,0.0,0.0,0.0,0.0,0.0,0.0,0.0,0.0,0.0,0.0,0.0,0.0,0.0,0.0,-2.5802,-2.6227,-2.5927,0.0,0.0,0.0,0.0,-2.5544,-2.633,0.0,0.0,0.0,0.0,0.0,0.0,0.0,0.0,0.0,0.0,0.0,0.0,0.0,0.0,0.0,0.0,0.0,0.0,0.0,0.0,0.0,0.0,0.0,0.0,0.0,0.0,0.0,0.0,0.0,0.0,0.0,0.0,0.0,0.0,0.0,0.0,0.0,0.0,0.0,0.0,0.0,0.0,0.0,0.0,0.0,0.0,0.0,0.0,0.0,0.0,0.0,0.0,0.0,0.0,0.0,0.0,-1.7719,-1.8609,-1.9596,-2.0583,-2.1098,-2.1706,-2.2479,-2.2399,-2.1778,0.0,0.0,0.0,0.0,0.0,0.0,0.0,0.0,0.0,0.0,0.0,0.0,0.0,0.0,0.0,0.0,0.0,0.0,0.0,0.0,0.0,0.0,0.0,0.0,0.0,0.0,0.0,0.0,0.0,0.0,0.0,0.0,0.0,0.0,0.0,0.0,0.0,0.0,0.0,0.0,0.0,-2.662,-2.5499,-2.633,-2.6832,0.0,0.0,-2.6055,-2.6407,-2.6252,0.0,0.0,0.0,0.0,0.0,0.0,0.0,0.0,0.0,0.0,0.0,0.0,0.0,0.0,0.0,0.0,0.0,0.0,0.0,0.0,0.0,0.0,0.0,0.0,0.0,0.0,0.0,0.0,0.0,0.0,0.0,0.0,0.0,0.0,0.0,0.0,0.0,0.0,0.0,0.0,0.0,0.0,0.0,0.0,0.0,0.0,0.0,0.0,0.0,0.0,0.0,0.0,0.0,0.0,0.0,-1.7626,-1.8112,-1.8992,-1.9847,-2.0564,-2.1172,-2.1785,-2.2414,-2.1924,-2.1532,0.0,0.0,0.0,0.0,0.0,0.0,0.0,0.0,0.0,0.0,0.0,0.0,0.0,0.0,0.0,0.0,0.0,0.0,0.0,0.0,0.0,0.0,0.0,0.0,0.0,0.0,0.0,0.0,0.0,0.0,0.0,0.0,0.0,0.0,0.0,0.0,0.0,0.0,0.0,0.0,0.0,0.0,-2.6061,-2.677,0.0,0.0,0.0,-2.647,-2.6946,0.0,0.0,0.0,0.0,0.0,0.0,0.0,0.0,0.0,0.0,0.0,0.0,0.0,0.0,0.0,0.0,0.0,0.0,0.0,0.0,0.0,0.0,0.0,0.0,0.0,0.0,0.0,0.0,0.0,0.0,0.0,0.0,0.0,0.0,0.0,0.0,0.0,0.0,0.0,0.0,0.0,0.0,0.0,0.0,0.0,0.0,0.0,0.0,0.0,0.0,0.0,0.0,0.0,0.0,0.0,0.0,0.0,-1.8424,-1.9554,-2.0265,-2.0596,-2.1225,-2.1844,-2.2448,-2.1609,0.0,0.0,0.0,0.0,0.0,0.0,0.0,0.0,0.0,0.0,0.0,0.0,0.0,0.0,0.0,0.0,0.0,0.0,0.0,0.0,0.0,0.0,0.0,0.0,0.0,0.0,0.0,-1.8112,0.0,0.0,0.0,0.0,0.0,0.0,0.0,0.0,0.0,0.0,0.0,0.0,0.0,0.0,-2.7003,-2.6822,-2.7175,-2.7707,0.0,0.0,-2.6781,-2.7237,-2.6822,-2.649,0.0,0.0,0.0,0.0,0.0,0.0,0.0,0.0,0.0,0.0,0.0,0.0,0.0,0.0,0.0,0.0,0.0,0.0,0.0,0.0,0.0,0.0,0.0,0.0,0.0,0.0,0.0,0.0,0.0,0.0,0.0,0.0,0.0,0.0,0.0,0.0,0.0,0.0,0.0,0.0,0.0,0.0,0.0,0.0,0.0,0.0,0.0,0.0,0.0,0.0,0.0,0.0,0.0,0.0,-1.835,-1.8465,-2.0131,-2.1031,-2.1083,-2.1524,-2.2178,-2.2898,-2.1985,-2.1352,0.0,0.0,0.0,0.0,0.0,0.0,0.0,0.0,0.0,0.0,0.0,0.0,0.0,0.0,0.0,0.0,0.0,0.0,0.0,0.0,0.0,0.0,0.0,0.0,0.0,0.0,0.0,0.0,0.0,0.0,0.0,0.0,0.0,0.0,0.0,0.0,0.0,0.0,0.0,0.0,0.0,-2.8162,-2.7382,-2.7593,-2.8048,0.0,-2.7458,-2.677,-2.7247,-2.6563,-2.6117,-2.6553,0.0,0.0,0.0,0.0,0.0,0.0,0.0,0.0,0.0,0.0,0.0,0.0,0.0,0.0,0.0,0.0,0.0,0.0,0.0,0.0,0.0,0.0,0.0,0.0,0.0,0.0,0.0,0.0,0.0,0.0,0.0,0.0,0.0,0.0,0.0,0.0,0.0,0.0,0.0,0.0,0.0,0.0,0.0,0.0,0.0,0.0,0.0,0.0,0.0,0.0,0.0,0.0,0.0,-1.8548,-1.8849,-2.0327,-2.1248,-2.1538,-2.1714,-2.1949,-2.2252,-2.1307,-2.0689,0.0,0.0,0.0,0.0,0.0,0.0,0.0,0.0,0.0,0.0,0.0,0.0,0.0,0.0,0.0,0.0,0.0,0.0,0.0,0.0,0.0,0.0,0.0,0.0,0.0,0.0,0.0,0.0,-1.9799,-2.0203,-2.0938,0.0,0.0,0.0,0.0,0.0,0.0,0.0,0.0,0.0,0.0,-2.8059,-2.7717,-2.8059,0.0,0.0,-2.7924,-2.7469,-2.7634,-2.7148,-2.6843,-2.7019,-2.6656,0.0,0.0,0.0,0.0,0.0,0.0,0.0,0.0,0.0,0.0,0.0,0.0,0.0,0.0,0.0,0.0,0.0,0.0,0.0,0.0,0.0,0.0,0.0,0.0,0.0,0.0,0.0,0.0,0.0,0.0,0.0,0.0,0.0,0.0,0.0,0.0,0.0,0.0,0.0,0.0,0.0,0.0,0.0,0.0,0.0,0.0,0.0,0.0,0.0,0.0,0.0,0.0,-1.9056,-1.9479,-2.07,-2.1549,-2.1994,-2.188,-2.1807,-2.1787,-2.1089,-2.057,0.0,0.0,0.0,0.0,0.0,0.0,0.0,0.0,0.0,0.0,0.0,0.0,0.0,0.0,0.0,0.0,0.0,0.0,0.0,0.0,0.0,0.0,0.0,0.0,0.0,0.0,0.0,0.0,-2.0922,-2.13,-2.1942,0.0,0.0,0.0,0.0,0.0,0.0,0.0,0.0,0.0,0.0,-2.8079,-2.7945,-2.8204,-2.8462,-2.8597,-2.811,-2.7759,-2.7903,-2.76,-2.7351,-2.7438,0.0,0.0,0.0,0.0,0.0,0.0,0.0,0.0,0.0,0.0,0.0,0.0,0.0,0.0,0.0,0.0,0.0,0.0,0.0,0.0,0.0,0.0,0.0,0.0,0.0,0.0,0.0,-1.7886,0.0,0.0,-1.6629,0.0,0.0,0.0,0.0,0.0,0.0,0.0,0.0,0.0,0.0,0.0,0.0,0.0,0.0,0.0,0.0,0.0,0.0,0.0,0.0,0.0,0.0,-1.9944,-2.04,-2.13,-2.2004,-2.2449,-2.2035,-2.1797,-2.1766,-2.156,-2.125,-2.0761,0.0,0.0,0.0,0.0,0.0,0.0,0.0,0.0,0.0,0.0,0.0,0.0,0.0,0.0,0.0,0.0,0.0,0.0,0.0,0.0,0.0,0.0,0.0,0.0,0.0,0.0,-2.1859,-2.218,-2.2428,0.0,0.0,0.0,0.0,0.0,0.0,0.0,0.0,0.0,0.0,-2.7748,-2.8431,-2.7986,-2.7935,-2.811,-2.8535,-2.7862,-2.7496,-2.7872,-2.7572,-2.7455,0.0,0.0,0.0,0.0,0.0,0.0,0.0,0.0,0.0,0.0,0.0,0.0,0.0,0.0,0.0,0.0,0.0,0.0,0.0,0.0,0.0,0.0,0.0,0.0,0.0,0.0,0.0,-1.9385,-1.8828,0.0,0.0,0.0,0.0,0.0,0.0,0.0,0.0,0.0,0.0,0.0,-2.0906,-2.1883,0.0,0.0,0.0,0.0,0.0,0.0,0.0,0.0,0.0,0.0,0.0,0.0,-2.0395,-2.0886,-2.1487,-2.2035,-2.248,-2.2045,-2.1662,-2.1352,-2.1272,-2.0734,-1.9693,0.0,0.0,0.0,0.0,0.0,0.0,0.0,0.0,0.0,0.0,0.0,0.0,0.0,0.0,0.0,0.0,0.0,0.0,0.0,0.0,0.0,0.0,0.0,0.0,0.0,-2.3318,0.0,0.0,0.0,0.0,0.0,0.0,0.0,0.0,0.0,0.0,0.0,-2.8442,-2.7986,-2.8875,-2.9134,-2.8077,-2.8216,-2.8376,0.0,0.0,0.0,0.0,0.0,0.0,0.0,0.0,0.0,0.0,0.0,0.0,0.0,0.0,-3.1301,-2.9818,-2.923,-2.9001,-2.9317,0.0,0.0,0.0,0.0,0.0,0.0,0.0,0.0,0.0,0.0,0.0,0.0,0.0,0.0,-2.0537,0.0,-1.9031,0.0,0.0,0.0,0.0,0.0,0.0,0.0,0.0,-2.151,-2.2128,-2.2421,-2.3115,-2.3125,0.0,-2.2725,-2.2417,0.0,0.0,0.0,0.0,0.0,0.0,0.0,0.0,-2.1253,-2.16,-2.189,-2.2263,-2.2677,-2.2128,-2.1662,-2.1362,-2.1555,-2.1125,-1.9987,-1.9447,-1.8822,0.0,0.0,0.0,0.0,0.0,0.0,0.0,0.0,0.0,0.0,0.0,0.0,0.0,0.0,0.0,0.0,0.0,0.0,0.0,0.0,0.0,0.0,0.0,-2.4043,0.0,0.0,0.0,0.0,0.0,0.0,0.0,0.0,0.0,-2.7558,-2.869,-2.9435,-2.9135,-2.9598,-2.9543,-2.8336,0.0,0.0,0.0,0.0,0.0,0.0,0.0,-3.0013,-3.0389,-3.045,-3.0787,-3.1752,-3.2394,-3.2445,-3.16,0.0,0.0,-3.1157,-3.0743,-3.0736,-3.0903,-3.0865,-3.0827,-3.0992,-3.1429,-3.1522,0.0,0.0,0.0,0.0,0.0,0.0,0.0,0.0,-2.1848,-2.1258,0.0,-1.9484,0.0,0.0,0.0,0.0,-1.7841,-1.9548,0.0,0.0,-2.3564,-2.4391,-2.4423,-2.438,-2.4401,-2.4475,-2.4867,-2.4856,-2.4361,-2.2751,0.0,0.0,0.0,0.0,0.0,0.0,-2.2532,-2.2532,-2.2501,-2.2718,-2.3132,-2.2283,-2.1797,-2.1825,-2.2342,-2.224,-2.1562,-2.1761,-2.1238,-1.9709,-1.9271,0.0,0.0,0.0,0.0,0.0,0.0,0.0,0.0,0.0,0.0,0.0,0.0,0.0,0.0,0.0,0.0,0.0,0.0,0.0,0.0,-2.4913,0.0,0.0,0.0,0.0,0.0,0.0,0.0,0.0,0.0,0.0,-2.8274,-2.9239,-3.0036,-2.9984,0.0,0.0,0.0,0.0,-2.8199,-2.8785,-2.8882,-2.9558,-3.1378,-3.1265,-3.1236,-3.2151,0.0,0.0,-3.2409,-3.2919,-3.3104,-3.2533,-3.3282,-3.3851,-3.327,-3.2729,-3.2628,-3.3043,-3.2465,-3.2049,-3.2348,-3.2812,-3.2899,-1.8843,0.0,0.0,0.0,0.0,-2.0925,-2.1128,-2.1384,-2.143,-2.0939,-2.0173,-1.9549,0.0,0.0,0.0,0.0,0.0,0.0,-2.0016,-2.1606,-2.1463,-2.2216,-2.3754,-2.3246,-2.3246,-2.3784,-2.4283,-2.4424,-2.4293,-2.4592,-2.4053,-2.2822,0.0,0.0,0.0,0.0,-2.3153,-2.3422,-2.2832,-2.2718,-2.3184,-2.2283,-2.1911,-2.2214,-2.175,-2.1677,-2.2065,-2.183,-2.1363,-2.0651,-2.0664,0.0,0.0,0.0,0.0,0.0,0.0,0.0,0.0,0.0,0.0,0.0,0.0,0.0,0.0,0.0,0.0,0.0,0.0,0.0,-2.4075,-2.4766,-2.5456,0.0,0.0,0.0,0.0,0.0,0.0,0.0,0.0,0.0,-3.0026,-3.0801,-3.1091,0.0,0.0,-3.0433,-2.8844,-2.9148,-2.9563,-2.9696,-3.0037,0.0,-3.1498,-3.1498,-3.1501,-3.1839,-3.2509,-3.3058,-3.3019,-3.3456,-3.3632,-3.3138,-3.3559,-3.385,-3.3417,-3.3469,-3.3617,-3.3743,-3.3549,-3.3412,-3.3526,-3.3433,-3.3074,-1.8203,-1.8647,-1.9175,-1.9827,-2.0445,-2.0453,-2.0657,-2.1084,-2.0891,-2.042,-1.9803,-1.9356,-1.8604,-1.7722,-1.7472,0.0,0.0,0.0,-2.0043,-2.1764,-2.124,-2.1729,-2.2984,-2.2614,-2.2765,-2.3523,-2.3964,-2.4351,-2.4638,-2.5478,-2.515,-2.3795,0.0,0.0,-2.335,-2.3774,-2.395,-2.3857,-2.337,-2.3091,-2.3174,-2.2439,-2.2138,-2.2392,-2.2131,-2.2171,-2.2485,-2.2611,-2.2348,-2.1711,-2.1856,-2.171,0.0,0.0,0.0,0.0,0.0,0.0,0.0,0.0,0.0,0.0,0.0,-2.436,-2.3671,0.0,0.0,0.0,-2.4938,-2.5539,-2.6065,-2.677,0.0,0.0,0.0,0.0,0.0,0.0,0.0,-3.1402,-3.2206,-3.2403,-3.1731,-3.2226,-3.2146,-3.072,-3.1084,-3.0968,-2.9637,0.0,-3.0531,-3.0743,-3.1036,-3.1578,-3.2407,-3.2235,-3.199,-3.2006,-3.2738,-3.3269,-3.3292,-3.3522,-3.3602,-3.3407,-3.3522,-3.3625,-3.3338,-3.3522,-3.3717,-3.3717,-3.3717,-3.3717,-3.3717,-3.3315,-3.281,-1.7468,-1.793,-1.9194,-1.9853,-2.0053,-2.0053,-2.031,-2.067,-2.0268,-1.9785,-1.9312,-1.8893,-1.8057,-1.6939,-1.7031,0.0,-1.939,-1.978,-2.0728,-2.2227,-2.2217,-2.2306,-2.2394,-2.235,-2.2721,-2.3513,-2.3964,-2.4529,-2.5111,-2.5668,-2.5461,-2.4642,-2.5471,-2.5409,-2.4518,-2.489,-2.4714,-2.395,-2.3971,-2.3722,-2.3243,-2.2717,-2.2478,-2.2515,-2.3224,-2.338,-2.2965,-2.3756,-2.3764,-2.288,-2.2921,-2.2767,-2.2306,0.0,0.0,0.0,0.0,0.0,0.0,0.0,0.0,0.0,0.0,0.0,0.0,0.0,0.0,0.0,-2.6791,0.0,-2.9394,-2.9964,0.0,0.0,0.0,-3.0784,-3.1439,-3.2614,-3.3202,-3.2713,0.0,0.0,-3.3202,-3.3388,-3.3095,-3.1592,-3.1496,-3.138,-3.09,-3.0961,-3.1241,-3.1654,-3.1791,-3.2327,-3.3394,-3.2952,-3.2509,-3.2555,-3.2937,-3.3224,-3.3327,-3.3304,-3.3304,-3.3373,-3.3327,-3.3292,-3.3292,-3.3304,-3.3281,-3.3315,-3.3304,-3.3292,-3.3201,-3.2799,-3.2331,-1.7523,-1.7808,-1.8158,-1.8454,-1.8738,-1.8738,-1.8976,-1.925,-1.8931,-1.8686,-1.8544,-1.8174,-1.7752,-1.7262,-1.8003,-1.8555,-1.8975,-1.9832,-2.0419,-2.0772,-2.0772,-2.1338,-2.2359,-2.1872,-2.229,-2.3489,-2.3964,-2.4306,-2.446,-2.5423,-2.5771,-2.5585,-2.5771,-2.5264,-2.4095,-2.4435,-2.4569,-2.4342,-2.4357,-2.4145,-2.3686,-2.3156,-2.3001,-2.3298,-2.3494,-2.3694,-2.3872,-2.4095,-2.4085,-2.3856,-2.3876,-2.3632,-2.3142,-2.2571,0.0,0.0,0.0,0.0,0.0,0.0,0.0,0.0,0.0,-2.691,-2.5414,0.0,-2.7919,0.0,-2.8685,-2.9579,-2.9658,-3.0043,0.0,0.0,-3.1966,-3.2427,-3.4751,-3.4659,-3.4459,-3.4655,-3.511,-3.4779,-3.3298,-3.3169,-3.2801,-3.1745,-3.1884,-3.1904,-3.1489,-3.1785,-3.1957,-3.1843,-3.2071,-3.2471,-3.2787,-3.2661,-3.2615,-3.3028,-3.2868,-3.2937,-3.3694,-3.3522,-3.3407,-3.3717,-3.3522,-3.3315,-3.3281,-3.3281,-3.3281,-3.3281,-3.3281,-3.3166,-3.2764,-3.2294,-3.1848,-1.7867,-1.8028,-1.8028,-1.8138,-1.8299,-1.8299,-1.8401,-1.8555,-1.8379,-1.8299,-1.8291,-1.8108,-1.8071,-1.8125,-1.851,-1.8964,-1.9376,-1.9941,-2.0225,-2.03,-2.0472,-2.1084,-2.1917,-2.157,-2.2113,-2.3513,-2.3731,-2.4061,-2.4345,-2.4985,-2.5285,-2.5285,-2.5275,-2.4912,-2.4219,-2.458,-2.4704,-2.4497,-2.4482,-2.4487,-2.4417,-2.4117,-2.3964,-2.3977,-2.4329,-2.4425,-2.4212,-2.4407,-2.4315,-2.3854,-2.3867,-2.3797,-2.3728,-2.3305,-2.3213,0.0,0.0,0.0,0.0,0.0,0.0,0.0,0.0,0.0,0.0,0.0,-2.9409,-2.942,-3.0719,-3.1597,-3.1611,-3.2237,-3.3191,-3.4498,-3.4133,-3.4456,-3.6097,-3.5754,-3.5414,-3.5399,-3.5406,-3.4924,-3.3661,-3.3457,-3.3202,-3.2453,-3.2587,-3.2552,-3.2144,-3.2432,-3.2694,-3.2494,-3.2647,-3.265,-3.2308,-3.2546,-3.2825,-3.265,-3.2741,-3.3051,-3.3568,-3.3465,-3.3384,-3.3602,-3.3453,-3.3281,-3.3281,-3.3281,-3.3281,-3.3281,-3.3281,-3.3086,-3.2592,-3.2099,-3.1639,-1.8321,-1.8357,-1.8364,-1.8394,-1.843,-1.8423,-1.8408,-1.8357,-1.8321,-1.8348,-1.8397,-1.8397,-1.8686,-1.9195,-1.8974,-1.9344,-2.0099,-2.0193,-2.0235,-2.0317,-2.0643,-2.1068,-2.1535,-2.1454,-2.2157,-2.3503,-2.3493,-2.3797,-2.4368,-2.4454,-2.4507,-2.4507,-2.4507,-2.454,-2.4603,-2.4987,-2.5074,-2.4754,-2.4691,-2.4908,-2.5337,-2.5261,-2.4986,-2.4619,-2.5253,-2.5199,-2.4349,-2.4763,-2.4588,-2.3774,-2.3831,-2.4061,-2.4453,-2.3969,-2.4049,0.0,-2.4981,0.0,0.0,0.0,0.0,0.0,0.0,0.0,0.0,-3.0422,-3.0698,-3.1157,-3.2477,-3.3488,-3.3958,-3.4808,-3.552,-3.6013,-3.6082,-3.6082,-3.6071,-3.6082,-3.5919,-3.5352,-3.537,-3.5032,-3.4046,-3.3959,-3.3821,-3.3334,-3.3204,-3.3053,-3.2695,-3.2958,-3.322,-3.3281,-3.3166,-3.2627,-3.2076,-3.2558,-3.2856,-3.2227,-3.265,-3.3269,-3.3292,-3.3212,-3.3201,-3.3269,-3.3224,-3.3189,-3.3258,-3.3281,-3.3281,-3.3281,-3.3212,-3.2994,-3.263,-3.2312,-3.1978,-1.8452,-1.8694,-1.8701,-1.8855,-1.9089,-1.9096,-1.8942,-1.8679,-1.8416,-1.8545,-1.8973,-1.8924,-1.9218,-1.9763,-2.0152,-2.0245,-2.0154,-2.0538,-2.0567,-2.0292,-2.0369,-2.1077,-2.2138,-2.1668,-2.2157,-2.345,-2.3493,-2.3547,-2.3677,-2.4239,-2.4507,-2.4507,-2.4507,-2.47,-2.5031,0.0,0.0,0.0,-2.5732,-2.5771,-2.6211,-2.5812,-2.5554,-2.544,-2.5195,0.0,-2.4809,-2.5291,-2.5436,-2.5287,-2.6032,0.0,0.0,0.0,0.0,0.0,0.0,0.0,0.0,0.0,0.0,0.0,-3.0388,-3.0652,-3.0859,-3.1593,-3.2099,-3.2213,-3.2868,-3.3476,-3.3958,-3.4165,-3.4509,-3.5014,-3.5083,-3.5083,-3.5072,-3.5095,-3.5031,-3.4966,-3.4939,-3.4687,-3.4091,-3.3999,-3.3821,-3.335,-3.3281,-3.3231,-3.3131,-3.3242,-3.3281,-3.3247,-3.2684,-3.2053,-3.1848,-3.2331,-3.2661,-3.2454,-3.2856,-3.3258,-3.3258,-3.2914,-3.2822,-3.3143,-3.2925,-3.2776,-3.3166,-3.3281,-3.3224,-3.3281,-3.2937,-3.2604,-3.2561,-3.2941,-3.3232,-1.8884,-1.903,-1.9089,-1.9125,0.0,-1.9272,-1.9332,-1.9418,-1.9,-1.907,-1.9617,-1.9876,-2.0231,-2.0557,-2.0629,-2.0597,-2.0491,-2.0781,-2.0668,-2.0309,-2.0497,-2.1229,-2.2394,-2.1695,-2.2325,-2.398,-2.3667,-2.3677,-2.4024,-2.4325,-2.4507,-2.4507,-2.4754,-2.4956,-2.52,-2.5653,-2.6071,-2.6487,-2.6252,-2.6384,-2.6789,-2.66,-2.6347,-2.6094,-2.6313,0.0,0.0,0.0,0.0,0.0,0.0,0.0,0.0,-2.6117,0.0,-2.6393,-2.668,-2.6944,-2.7272,-2.839,-2.9412,-3.0158,-3.0939,-3.149,-3.172,-3.265,-3.3235,-3.3247,-3.3717,-3.4142,-3.4372,-3.4395,-3.4498,-3.4762,-3.4808,-3.4808,-3.4808,-3.4808,-3.4808,-3.4773,-3.4567,-3.4222,-3.3717,-3.3648,-3.3442,-3.3005,-3.312,-3.335,-3.3556,-3.343,-3.3281,-3.3281,-3.2902,-3.2328,-3.1986,-3.2469,-3.265,-3.2363,-3.2764,-3.3224,-3.3281,-3.2845,-3.2581,-3.2799,-3.2466,-3.2225,-3.2431,-3.2523,-3.2615,-3.2799,-3.2661,-3.2604,-3.2776,-3.3015,-3.3182,-1.9272,-1.9272,-1.9272,-1.9272,-1.9331,-1.9368,-1.9694,-2.0089,0.0,0.0,0.0,-2.0707,-2.0969,-2.1213,-2.0873,-2.0797,-2.0891,-2.0921,-2.0668,-2.0309,-2.0801,-2.1499,-2.2359,-2.1704,-2.2422,-2.4239,-2.3624,-2.3667,-2.4325,-2.4454,-2.454,-2.4668,-2.5031,-2.5285,-2.5443,-2.6238,-2.661,-2.6622,-2.661,-2.6787,-2.7179,-2.719,-2.6995,-2.6611,-2.7415,-2.7461,-2.6657,-2.7564,-2.772,-2.6823,-2.6508,-2.6668,-2.7247,-2.6565,-2.6622,-2.7736,-2.7973,-2.7989,-2.8,-2.893,-2.9745,-3.0274,-3.1306,-3.2112,-3.2466,-3.3247,-3.3775,-3.3866,-3.428,-3.4521,-3.4521,-3.4521,-3.4532,-3.4532,-3.4532,-3.4532,-3.4532,-3.4532,-3.4486,-3.4486,-3.413,-3.3694,-3.3212,-3.3132,-3.296,-3.2535,-3.2695,-3.3201,-3.3591,-3.3534,-3.3419,-3.3292,-3.3074,-3.2776,-3.2308,-3.25,-3.273,-3.1984,-3.2615,-3.3166,-3.2891,-3.2592,-3.2351,-3.2179,-3.1869,-3.1708,-3.1731,-3.1915,-3.2043,-3.2294,-3.2443,-3.263,-3.3016,-3.2938,-3.301,-1.9272,-1.9272,-1.9272,-1.9272,-1.9324,-1.9776,-2.0072,-2.0255,-2.0205,-2.0498,-2.1031,-2.0737,-2.0913,-2.1386,-2.1335,-2.1178,-2.0929,-2.0921,-2.0668,-2.0346,-2.1014,-2.1723,-2.235,-2.1704,-2.2201,-2.3493,-2.2896,-2.295,-2.3624,-2.4239,-2.4711,-2.5084,-2.5158,-2.5569,-2.6321,-2.6839,-2.7097,-2.7097,-2.7108,-2.7138,-2.719,-2.719,-2.7167,-2.7087,-2.7265,-2.7236,-2.7151,-2.808,-2.8344,-2.7816,-2.854,-2.8654,-2.792,-2.7702,-2.7564,-2.738,-2.7736,-2.7989,-2.8,-2.8941,-2.9906,-3.0836,-3.1823,-3.242,-3.2477,-3.2615,-3.294,-3.3327,-3.3453,-3.3499,-3.3499,-3.3511,-3.3522,-3.3511,-3.3511,-3.3499,-3.3556,-3.3534,-3.3534,-3.3534,-3.3442,-3.3166,-3.2661,-3.2581,-3.242,-3.2055,-3.2089,-3.225,-3.273,-3.3407,-3.366,-3.3327,-3.2891,-3.2569,-3.2305,-3.2454,-3.2363,-3.1905,-3.2581,-3.2833,-3.1754,-3.1743,-3.1731,-3.1329,-3.1192,-3.1272,-3.1652,-3.211,-3.2087,-3.1949,-3.211,-3.2474,-3.2816,-3.3125,-3.3659,-1.9272,-1.9272,-1.9272,-1.948,-1.9783,-2.0593,-2.0905,-2.0817,-2.0868,-2.0883,-2.0875,-2.1009,-2.1064,-2.1131,-2.1122,-2.0917,-2.0557,-2.0557,-2.0692,-2.0925,-2.1266,-2.198,-2.2853,-2.228,-2.2677,-2.3927,-2.3309,-2.3343,-2.4067,-2.4615,-2.4999,-2.52,-2.5653,-2.6249,-2.6839,-2.7097,-2.719,-2.719,-2.719,-2.719,-2.719,-2.719,-2.719,-2.719,-2.7483,-2.7759,-2.8023,-2.8735,-2.9033,-2.8815,-2.8964,-2.885,-2.839,-2.7874,-2.7587,-2.7621,-2.7587,-2.769,-2.7966,-2.9171,-3.0089,-3.056,-3.126,-3.1685,-3.1685,-3.1926,-3.2179,-3.248,-3.2515,-3.2466,-3.2454,-3.2684,-3.2845,-3.2845,-3.3097,-3.3281,-3.3247,-3.2994,-3.2856,-3.2822,-3.2604,-3.2248,-3.1754,-3.1926,-3.1903,-3.1479,-3.1559,-3.1905,-3.2101,-3.2526,-3.2833,-3.286,-3.2638,-3.2248,-3.1857,-3.2179,-3.2121,-3.149,-3.219,-3.2374,-3.1559,-3.1479,-3.1249,-3.1054,-3.0801,-3.0686,-3.0928,-3.1077,-3.1226,-3.1456,-3.1502,-3.1806,-3.2217,-3.3007,-3.4126,-1.9272,-1.9279,-1.9428,-1.9879,-2.0475,-2.114,-2.1362,-2.1261,-2.1162,-2.092,-2.0643,-2.0976,-2.1002,-2.0763,-2.0792,-2.0583,-2.0317,-2.0292,-2.0609,-2.1132,-2.1481,-2.2201,-2.3135,-2.2809,-2.329,-2.4325,-2.3807,-2.3884,-2.4625,-2.5031,-2.5316,-2.5538,-2.629,-2.6839,-2.719,-2.719,-2.719,-2.719,-2.719,-2.719,-2.719,-2.719,-2.719,-2.7224,-2.7713,-2.8161,-2.854,-2.9033,-2.9263,-2.9148,-2.8758,-2.8494,-2.8344,-2.7656,-2.7449,-2.7874,-2.7621,-2.761,-2.8161,-2.9435,-3.017,-3.0078,-3.0652,-3.0962,-3.0882,-3.1169,-3.1513,-3.1767,-3.1859,-3.18,-3.1834,-3.2087,-3.2317,-3.24,-3.2673,-3.2879,-3.2879,-3.2558,-3.2328,-3.2282,-3.1972,-3.1523,-3.1226,-3.1341,-3.1364,-3.1019,-3.1283,-3.1582,-3.1652,-3.1721,-3.1963,-3.2064,-3.2248,-3.2064,-3.1341,-3.1789,-3.1892,-3.1146,-3.1743,-3.188,-3.1502,-3.1111,-3.0962,-3.0824,-3.0503,-3.0319,-3.025,-3.0399,-3.0583,-3.0836,-3.0985,-3.132,-3.2137,-3.3098,-3.434,-1.9272,-1.9376,-1.9783,-2.0644,-2.1448,-2.1007,-2.0994,-2.1292,-2.0711,-2.0386,-2.0346,-2.0349,-2.0403,-2.0343,-2.036,-2.0335,-2.0292,-2.0292,-2.0382,-2.0645,-2.1739,-2.2403,-2.2668,-2.3135,-2.3754,-2.4368,-2.3851,-2.4143,-2.5126,-2.52,-2.5611,-2.6373,-2.688,-2.7149,-2.719,-2.719,-2.719,-2.719,-2.719,-2.719,-2.719,-2.719,-2.719,-2.719,-2.7713,-2.8042,-2.808,-2.8517,-2.8574,-2.8203,-2.8126,-2.7851,-2.7449,-2.7247,-2.7472,-2.7996,-2.7985,-2.8126,-2.8643,-2.9619,-3.0055,-2.9688,-3.048,-3.0813,-3.0376,-3.0354,-3.0778,-3.1514,-3.1779,-3.1733,-3.1813,-3.1777,-3.1812,-3.1834,-3.1938,-3.1892,-3.1972,-3.1846,-3.1882,-3.1871,-3.1766,-3.15,-3.1134,-3.11,-3.0905,-3.0537,-3.0755,-3.1077,-3.1111,-3.1375,-3.1479,-3.1341,-3.149,-3.1708,-3.157,-3.1767,-3.1559,-3.1146,-3.1444,-3.1398,-3.0882,-3.0778,-3.0882,-3.0491,-3.0308,-3.0227,-3.0319,-3.0503,-3.0709,-3.0491,-3.0813,-3.1414,-3.2684,-3.3591,-3.4635,-1.9272,-1.9324,-1.9887,-2.0696,-2.16,-2.1477,-2.1425,-2.1362,-2.0865,-2.0514,-2.03,-2.0292,-2.0292,-2.0292,-2.0292,-2.0292,-2.0292,-2.0292,-2.0781,-2.1516,-2.2173,-2.2833,-2.3647,-2.3917,-2.4401,-2.4871,-2.4647,-2.4914,-2.5549,-2.5874,-2.629,-2.688,-2.7138,-2.719,-2.719,-2.719,-2.719,-2.719,-2.719,-2.719,-2.719,-2.719,-2.719,-2.7213,-2.7438,-2.769,-2.8,-2.8448,-2.8597,-2.8448,-2.87,-2.8643,-2.8126,-2.8103,-2.8184,-2.8413,-2.8712,-2.8964,-2.916,-3.0124,-3.0468,-2.9963,-3.0595,-3.079,-3.0273,-3.0216,-3.0422,-3.0744,-3.0847,-3.0859,-3.0893,-3.1123,-3.1306,-3.1364,-3.157,-3.1857,-3.2156,-3.1974,-3.1813,-3.1802,-3.149,-3.1214,-3.1065,-3.1019,-3.0928,-3.0675,-3.0629,-3.0572,-3.0572,-3.0732,-3.0732,-3.0618,-3.0721,-3.0813,-3.0893,-3.1146,-3.1042,-3.0801,-3.0973,-3.0985,-3.0514,-3.0354,-3.0445,-3.0239,-3.0227,-3.0216,-3.0216,-3.0331,-3.0445,-3.0376,-3.0839,-3.1627,-3.3021,-3.3795,-3.4433,-1.9524,-1.9628,-2.0241,-2.1062,-2.1937,-2.1841,-2.167,-2.1362,-2.0917,-2.0557,-2.0309,-2.0292,-2.0292,-2.0292,-2.0292,-2.0292,-2.0337,-2.051,-2.1132,-2.2138,-2.2492,-2.3246,-2.4186,-2.4583,-2.4871,-2.5158,-2.5327,-2.5622,-2.6063,-2.6498,-2.688,-2.7149,-2.719,-2.719,-2.719,-2.719,-2.719,-2.719,-2.719,-2.719,-2.719,-2.719,-2.719,-2.719,-2.719,-2.7362,-2.777,-2.8241,-2.8505,-2.8505,-2.9086,-2.9201,-2.8833,-2.8872,-2.8942,-2.9158,-2.9533,-2.9821,-2.98,-3.0434,-3.0629,-3.0296,-3.0583,-3.0583,-3.0308,-3.0216,-3.0285,-3.048,-3.0388,-3.0445,-3.0273,-3.056,-3.0824,-3.1008,-3.1364,-3.1754,-3.2167,-3.1997,-3.1813,-3.172,-3.149,-3.1215,-3.1203,-3.1111,-3.0996,-3.095,-3.056,-3.0216,-3.0216,-3.025,-3.025,-3.0216,-3.0239,-3.025,-3.0239,-3.0526,-3.0503,-3.0457,-3.0595,-3.0663,-3.0285,-3.025,-3.0227,-3.0227,-3.0216,-3.0216,-3.0261,-3.0273,-3.0679,-3.0836,-3.1294,-3.1981,-3.3119,-3.371,-3.4054,-2.0078,-2.0233,-2.1208,-2.1928,-2.2484,-2.1756,-2.1439,-2.1362,-2.0643,-2.0309,-2.0337,-2.0292,-2.0292,-2.0374,-2.0382,-2.0337,-2.0428,-2.0997,-2.1401,-2.1758,-2.2872,-2.3493,-2.3624,-2.4647,-2.52,-2.5369,-2.5675,-2.6093,-2.6487,-2.6921,-2.719,-2.719,-2.719,-2.719,-2.719,-2.719,-2.719,-2.719,-2.719,-2.719,-2.719,-2.719,-2.719,-2.719,-2.719,-2.7213,-2.7346,-2.7759,-2.8088,-2.8065,-2.8811,-2.9172,-2.9125,-2.9285,-2.9625,-3.0071,-3.0386,-3.0519,-3.0474,-3.0432,-3.0307,-3.0227,-3.0273,-3.0262,-3.0284,-3.0216,-3.0388,-3.0893,-3.0882,-3.0732,-3.0354,-3.0457,-3.0641,-3.1008,-3.1077,-3.1364,-3.18,-3.1951,-3.1777,-3.1789,-3.1766,-3.1731,-3.1767,-3.1306,-3.1169,-3.1019,-3.0606,-3.0262,-3.0285,-3.0262,-3.0216,-3.0216,-3.0216,-3.0216,-3.0216,-3.0331,-3.0308,-3.0262,-3.0285,-3.0296,-3.025,-3.0216,-3.0216,-3.0216,-3.0216,-3.0261,-3.0352,-3.0746,-3.146,-3.1801,-3.2052,-3.2717,-3.3471,-3.3428,-3.3751,-2.049,-2.1157,-2.1522,-2.2038,-2.2458,-2.1739,-2.1405,-2.1336,-2.0609,-2.0564,-2.0862,-2.051,-2.0781,-2.1606,-2.1221,-2.0997,-2.1042,-2.1266,-2.19,-2.2731,-2.3507,-2.4122,-2.4647,-2.5338,-2.579,-2.6041,-2.6207,-2.6498,-2.6921,-2.7097,-2.719,-2.719,-2.719,-2.719,-2.719,-2.719,-2.719,-2.719,-2.719,-2.719,-2.719,-2.719,-2.719,-2.719,-2.719,-2.719,-2.719,-2.8149,-2.8727,-2.8684,-2.9744,-3.0332,-3.0332,-3.0376,-3.049,-3.0723,-3.0822,-3.0871,-3.0826,-3.0793,-3.0703,-3.0691,-3.0544,-3.0544,-3.0601,-3.0408,-3.0342,-3.0697,-3.0905,-3.0882,-3.087,-3.1008,-3.1283,-3.1444,-3.1513,-3.1685,-3.2087,-3.2225,-3.2213,-3.2213,-3.2225,-3.2225,-3.219,-3.2064,-3.1961,-3.188,-3.1249,-3.0801,-3.0652,-3.0411,-3.025,-3.0227,-3.0216,-3.0216,-3.0216,-3.0216,-3.0216,-3.0216,-3.0239,-3.025,-3.0227,-3.0216,-3.0216,-3.0216,-3.0216,-3.0623,-3.0836,-3.1492,-3.2196,-3.2772,-3.2988,-3.3232,-3.3937,-3.3852,-3.4063,-2.1157,-2.1937,-2.1979,-2.2173,-2.2295,-2.1687,-2.1336,-2.1221,-2.0841,-2.0916,-2.1266,-2.1087,-2.1516,-2.2217,-2.1917,-2.1971,-2.2227,-2.2157,-2.2643,-2.3691,-2.4198,-2.4797,-2.5411,-2.5884,-2.626,-2.6487,-2.6663,-2.688,-2.7149,-2.719,-2.719,-2.719,-2.719,-2.719,-2.719,-2.719,-2.719,-2.719,-2.719,-2.719,-2.719,-2.719,-2.7219,-2.726,-2.7301,-2.7301,-2.7313,-2.8298,-2.897,-2.9289,-3.0255,-3.0974,-3.1172,-3.1229,-3.1241,-3.1196,-3.1151,-3.1107,-3.1095,-3.1029,-3.0984,-3.0984,-3.0826,-3.0826,-3.0984,-3.0785,-3.081,-3.0995,-3.1472,-3.1773,-3.183,-3.2248,-3.2432,-3.2149,-3.2055,-3.2262,-3.2661,-3.2741,-3.2753,-3.2741,-3.2753,-3.2741,-3.2707,-3.2569,-3.2477,-3.2489,-3.1754,-3.1295,-3.1192,-3.0824,-3.0468,-3.0457,-3.0331,-3.025,-3.0216,-3.0216,-3.0261,-3.0261,-3.0261,-3.0216,-3.0216,-3.0216,-3.0261,-3.0261,-3.0566,-3.1059,-3.1637,-3.2295,-3.2902,-3.3526,-3.3725,-3.3882,-3.4189,-3.4314,-3.4356,-2.1987,-2.2493,-2.2594,-2.2329,-2.1996,-2.155,-2.1191,-2.1014,-2.1229,-2.1356,-2.157,-2.2006,-2.235,-2.2526,-2.2526,-2.3008,-2.3747,-2.3647,-2.3777,-2.4274,-2.4925,-2.5454,-2.5926,-2.6332,-2.6528,-2.6569,-2.6962,-2.7149,-2.719,-2.719,-2.719,-2.719,-2.719,-2.719,-2.719,-2.719,-2.719,-2.719,-2.719,-2.719,-2.719,-2.7231,-2.7301,-2.7482,-2.7522,-2.7522,-2.7534,-2.8068,-2.8717,-2.9397,-3.0142,-3.087,-3.1545,-3.1629,-3.1661,-3.1617,-3.1439,-3.1306,-3.1306,-3.1139,-3.1074,-3.1074,-3.1017,-3.1017,-3.1121,-3.1337,-3.1469,-3.1608,-3.2371,-3.3123,-3.3122,-3.3545,-3.3551,-3.275,-3.2598,-3.2817,-3.3135,-3.3258,-3.3269,-3.3224,-3.3201,-3.3269,-3.3166,-3.2879,-3.2627,-3.2512,-3.2121,-3.1813,-3.178,-3.1354,-3.1008,-3.0962,-3.0732,-3.0443,-3.0329,-3.0216,-3.0261,-3.0295,-3.0306,-3.0261,-3.0261,-3.0261,-3.0442,-3.0532,-3.1371,-3.1857,-3.2469,-3.3086,-3.3501,-3.4021,-3.4189,-3.4272,-3.4314,-3.4397,-3.4397,-2.2038,-2.2509,-2.2319,-2.2107,-2.1919,-2.1319,-2.0968,-2.0933,-2.1265,-2.1659,-2.2094,-2.2315,-2.2931,-2.3647,-2.3681,-2.4049,-2.485,-2.5031,-2.5211,-2.5411,-2.5863,-2.6155,-2.6373,-2.6757,-2.6974,-2.7015,-2.7108,-2.719,-2.719,-2.719,-2.719,-2.719,-2.719,-2.719,-2.719,-2.719,-2.719,-2.719,-2.719,-2.726,-2.7412,-2.7412,-2.7522,-2.7748,-2.7788,-2.7829,-2.8002,-2.8527,-2.9047,-2.9652,-3.0377,-3.1064,-3.1597,-3.1705,-3.1705,-3.1705,-3.1617,-3.1572,-3.1572,-3.1496,-3.1451,-3.1451,-3.1318,-3.1318,-3.1407,-3.135,-3.1333,-3.1482,-3.2252,-3.2735,-3.2876,-3.3558,-3.3873,-3.3644,-3.3583,-3.3557,-3.3522,-3.3431,-3.3281,-3.3281,-3.3281,-3.3281,-3.3269,-3.3101,-3.3055,-3.3009,-3.263,-3.2368,-3.2385,-3.1877,-3.1588,-3.1833,-3.1285,-3.0819,-3.0797,-3.0863,-3.097,-3.0958,-3.0869,-3.0958,-3.0779,-3.0812,-3.0913,-3.1315,-3.2152,-3.2772,-3.3386,-3.3768,-3.4147,-3.4272,-3.4356,-3.4397,-3.4397,-3.4397,-3.4397,-2.2156,-2.2321,-2.2098,-2.1824,-2.1559,-2.1054,-2.0974,-2.114,-2.1554,-2.2148,-2.2765,-2.328,-2.3897,-2.4647,-2.4754,-2.5094,-2.5695,-2.5999,-2.6218,-2.6354,-2.6415,-2.6569,-2.6745,-2.7056,-2.719,-2.719,-2.719,-2.719,-2.719,-2.719,-2.719,-2.719,-2.719,-2.719,-2.719,-2.719,-2.719,-2.7231,-2.726,-2.7371,-2.7482,-2.7603,-2.7777,-2.795,-2.8002,-2.8111,-2.8335,-2.8853,-2.9379,-2.9953,-3.0728,-3.1368,-3.1681,-3.1705,-3.1705,-3.1705,-3.1705,-3.1705,-3.1705,-3.1673,-3.1705,-3.1661,-3.1528,-3.154,-3.1665,-3.1493,-3.1568,-3.1562,-3.2281,-3.2782,-3.2924,-3.3529,-3.4098,-3.4347,-3.415,-3.4026,-3.3828,-3.3729,-3.363,-3.363,-3.363,-3.363,-3.358,-3.358,-3.358,-3.3572,-3.329,-3.3119,-3.3151,-3.2662,-3.2558,-3.2312,-3.1703,-3.1386,-3.136,-3.1499,-3.1717,-3.1713,-3.1657,-3.1809,-3.1884,-3.2059,-3.219,-3.2796,-3.3547,-3.3927,-3.4454,-3.4481,-3.4688,-3.4647,-3.4564,-3.4439,-3.4397,-3.4397,-3.4439,-2.2362,-2.2013,-2.1944,-2.1564,-2.11,-2.0979,-2.1214,-2.1625,-2.2227,-2.2931,-2.3701,-2.4594,-2.5115,-2.5327,-2.5622,-2.5999,-2.6445,-2.6539,-2.6715,-2.6891,-2.685,-2.682,-2.7222,-2.7408,-2.7454,-2.7408,-2.7385,-2.7316,-2.7328,-2.7396,-2.7247,-2.7293,-2.7373,-2.7305,-2.7419,-2.7305,-2.7426,-2.7502,-2.7597,-2.772,-2.779,-2.7952,-2.8208,-2.8398,-2.8433,-2.8526,-2.8742,-2.9227,-2.9701,-3.0194,-3.1139,-3.1645,-3.1705,-3.1705,-3.1705,-3.1705,-3.1705,-3.1705,-3.1705,-3.1705,-3.1705,-3.1705,-3.1661,-3.1705,-3.1709,-3.1941,-3.2025,-3.1769,-3.2541,-3.3142,-3.3226,-3.3683,-3.4186,-3.463,-3.4396,-3.4162,-3.4125,-3.4075,-3.4026,-3.4014,-3.4075,-3.4075,-3.4026,-3.4014,-3.4026,-3.4014,-3.3967,-3.392,-3.3854,-3.3395,-3.3042,-3.263,-3.218,-3.1835,-3.1713,-3.2063,-3.2339,-3.2852,-3.2796,-3.2998,-3.3028,-3.3156,-3.3327,-3.3985,-3.4581,-3.5019,-3.5237,-3.5141,-3.5113,-3.51,-3.4895,-3.4551,-3.4551,-3.4688,-3.4771,-2.209,-2.1944,-2.1405,-2.1374,-2.1556,-2.139,-2.1814,-2.2668,-2.3347,-2.391,-2.4563,-2.5327,-2.5717,-2.577,-2.6166,-2.6404,-2.6569,-2.6839,-2.7056,-2.719,-2.7097,-2.7325,-2.7816,-2.8138,-2.8276,-2.8264,-2.8195,-2.8126,-2.7839,-2.808,-2.8092,-2.7805,-2.8092,-2.8276,-2.831,-2.8253,-2.8407,-2.8588,-2.863,-2.8848,-2.91,-2.9195,-2.941,-2.9582,-2.9558,-2.9599,-2.9713,-3.0182,-3.0506,-3.0675,-3.1276,-3.1705,-3.1705,-3.1705,-3.1705,-3.1705,-3.1705,-3.1705,-3.1705,-3.1705,-3.1705,-3.1705,-3.1705,-3.1705,-3.1705,-3.1837,-3.1849,-3.1825,-3.2367,-3.2719,-3.2851,-3.3466,-3.4162,-3.4667,-3.4458,-3.4299,-3.4262,-3.4211,-3.4075,-3.4075,-3.4078,-3.4042,-3.4019,-3.4066,-3.4054,-3.4042,-3.4103,-3.4056,-3.3966,-3.36,-3.3007,-3.3076,-3.2739,-3.2273,-3.2114,-3.2554,-3.3104,-3.3859,-3.4139,-3.4347,-3.4223,-3.4056,-3.4264,-3.4581,-3.521,-3.5683,-3.5656,-3.5548,-3.5548,-3.5562,-3.5386,-3.5127,-3.525,-3.5426,-3.5386,-2.2097,-2.2171,-2.1576,-2.1631,-2.2079,-2.2108,-2.2658,-2.3531,-2.4114,-2.4723,-2.5295,-2.5863,-2.6135,-2.6166,-2.6592,-2.6798,-2.6828,-2.7056,-2.719,-2.7311,-2.7637,-2.7908,-2.8103,-2.8471,-2.8689,-2.8689,-2.87,-2.854,-2.8356,-2.8574,-2.8505,-2.8367,-2.8563,-2.8689,-2.8654,-2.8841,-2.8939,-2.911,-2.9262,-2.9518,-2.9784,-2.9899,-2.9971,-3.0086,-3.0098,-3.0158,-3.041,-3.0711,-3.0995,-3.1235,-3.1548,-3.1705,-3.1705,-3.1705,-3.1705,-3.1705,-3.1705,-3.1705,-3.1705,-3.1705,-3.1705,-3.1705,-3.1705,-3.1705,-3.1705,-3.1705,-3.1705,-3.1765,-3.203,-3.2226,-3.2635,-3.3382,-3.4162,-3.4643,-3.4449,-3.4257,-3.4197,-3.4149,-3.3957,-3.385,-3.3767,-3.3778,-3.3778,-3.3945,-3.3945,-3.3862,-3.3957,-3.3922,-3.3792,-3.3362,-3.3061,-3.309,-3.3068,-3.2584,-3.2758,-3.3222,-3.3982,-3.4733,-3.5264,-3.5521,-3.54,-3.5102,-3.5359,-3.5655,-3.6004,-3.6191,-3.6151,-3.6071,-3.6018,-3.5978,-3.5844,-3.575,-3.575,-3.5911,-3.5924,-2.2228,-2.2391,-2.2096,-2.2215,-2.2618,-2.3008,-2.3651,-2.4382,-2.484,-2.5411,-2.5999,-2.6415,-2.658,-2.661,-2.6974,-2.719,-2.7179,-2.719,-2.7259,-2.7587,-2.8092,-2.8482,-2.8379,-2.8827,-2.901,-2.901,-2.8873,-2.8861,-2.8873,-2.8904,-2.8893,-2.8948,-2.8959,-2.8994,-2.9219,-2.9291,-2.9308,-2.9531,-2.9891,-3.0086,-3.0214,-3.0361,-3.047,-3.0458,-3.0446,-3.0657,-3.091,-3.1079,-3.1235,-3.1681,-3.1705,-3.1705,-3.1705,-3.1705,-3.1705,-3.1705,-3.1705,-3.1705,-3.1705,-3.1705,-3.1705,-3.1705,-3.1705,-3.1705,-3.1749,-3.1837,-3.2001,-3.2001,-3.1925,-3.245,-3.2717,-3.3437,-3.3874,-3.4258,-3.4114,-3.3934,-3.385,-3.3886,-3.3742,-3.3368,-3.332,-3.3296,-3.3404,-3.3609,-3.3766,-3.3588,-3.3648,-3.3683,-3.3539,-3.3179,-3.3003,-3.3022,-3.2971,-3.2803,-3.33,-3.3914,-3.4787,-3.5655,-3.6189,-3.648,-3.648,-3.6401,-3.6652,-3.6861,-3.6665,-3.6626,-3.6744,-3.664,-3.6496,-3.6417,-3.6324,-3.6071,-3.5911,-3.6151,-3.623,-2.225,-2.2041,-2.2213,-2.2876,-2.3661,-2.3877,-2.4681,-2.5924,-2.6049,-2.6362,-2.685,-2.7015,-2.7015,-2.7056,-2.7138,-2.719,-2.719,-2.7213,-2.7385,-2.7897,-2.839,-2.8907,-2.9148,-2.9596,-2.9837,-2.9825,-2.9871,-2.9676,-2.9514,-2.9806,-2.9931,-2.9674,-3.0062,-3.0498,-3.044,-3.0369,-3.0676,-3.0797,-3.0905,-3.1021,-3.1141,-3.1228,-3.1271,-3.1271,-3.1327,-3.1368,-3.15,-3.1548,-3.1597,-3.1669,-3.1793,-3.1913,-3.1749,-3.1749,-3.1793,-3.1793,-3.1793,-3.1749,-3.1749,-3.1825,-3.1749,-3.1881,-3.1957,-3.1705,-3.1749,-3.2413,-3.2661,-3.2864,-3.3322,-3.3533,-3.3545,-3.3055,-3.3395,-3.3736,-3.3654,-3.3296,-3.302,-3.3212,-3.3344,-3.326,-3.32,-3.3272,-3.3248,-3.3284,-3.3356,-3.3296,-3.3367,-3.3368,-3.3266,-3.3101,-3.3163,-3.3332,-3.3233,-3.3325,-3.4108,-3.4733,-3.5521,-3.6149,-3.6652,-3.6978,-3.6978,-3.6978,-3.6978,-3.6978,-3.694,-3.6978,-3.6978,-3.6978,-3.6758,-3.6758,-3.6758,-3.6587,-3.6468,-3.6587,-3.6547,-2.2786,-2.3174,-2.299,-2.3594,-2.4541,-2.4872,-2.5558,-2.6445,-2.6745,-2.6974,-2.7149,-2.719,-2.719,-2.719,-2.719,-2.719,-2.719,-2.7213,-2.7603,-2.8218,-2.8632,-2.9114,-2.9801,-3.0145,-3.0352,-3.0261,-3.034,-3.0224,-3.0244,-3.046,-3.0594,-3.0395,-3.0855,-3.0902,-3.1029,-3.1107,-3.1137,-3.1258,-3.1439,-3.1572,-3.1661,-3.1705,-3.1705,-3.1837,-3.2033,-3.2283,-3.2314,-3.2778,-3.2649,-3.2531,-3.2649,-3.2488,-3.1957,-3.2077,-3.2283,-3.2326,-3.2326,-3.2575,-3.2735,-3.2575,-3.2531,-3.2864,-3.2907,-3.2907,-3.2938,-3.3395,-3.3564,-3.3678,-3.3982,-3.426,-3.4356,-3.3651,-3.358,-3.4082,-3.3537,-3.302,-3.304,-3.305,-3.2791,-3.2635,-3.2466,-3.2512,-3.2584,-3.3029,-3.3158,-3.3179,-3.3572,-3.3654,-3.389,-3.3756,-3.3786,-3.3841,-3.373,-3.4037,-3.4868,-3.5602,-3.6269,-3.6652,-3.6822,-3.6978,-3.6978,-3.6978,-3.6978,-3.6978,-3.6978,-3.6978,-3.6978,-3.6978,-3.6978,-3.69,-3.6915,-3.694,-3.694,-3.6822,-3.6783,-2.3392,-2.4469,-2.3967,-2.4358,-2.5285,-2.5759,-2.6207,-2.6663,-2.7015,-2.7149,-2.719,-2.719,-2.719,-2.719,-2.719,-2.7231,-2.7417,-2.7784,-2.8403,-2.9094,-2.9522,-3.0087,-3.0767,-3.1101,-3.1202,-3.0779,-3.0668,-3.0644,-3.0734,-3.105,-3.1226,-3.116,-3.1548,-3.1528,-3.1306,-3.1439,-3.156,-3.1484,-3.1825,-3.1825,-3.1825,-3.1869,-3.2001,-3.212,-3.25,-3.3023,-3.3237,-3.3691,-3.3901,-3.3322,-3.3901,-3.3437,-3.2735,-3.2692,-3.3194,-3.3194,-3.3194,-3.3437,-3.3762,-3.3606,-3.3492,-3.4251,-3.4264,-3.4223,-3.421,-3.4347,-3.4513,-3.4513,-3.4677,-3.4794,-3.5083,-3.4315,-3.4472,-3.4884,-3.3783,-3.3298,-3.3514,-3.3185,-3.2798,-3.2232,-3.2401,-3.2538,-3.2695,-3.3026,-3.3034,-3.3206,-3.3638,-3.3987,-3.4247,-3.4402,-3.4382,-3.4546,-3.4579,-3.4938,-3.5736,-3.603,-3.673,-3.6861,-3.6978,-3.6978,-3.6978,-3.6978,-3.6978,-3.6978,-3.6978,-3.6978,-3.6978,-3.6978,-3.6978,-3.6978,-3.6978,-3.6978,-3.6978,-3.6978,-3.6978,-2.3494,-2.3789,-2.4571,-2.5253,-2.5812,-2.6207,-2.6622,-2.7056,-2.7149,-2.719,-2.719,-2.719,-2.719,-2.7231,-2.7231,-2.7493,-2.8101,-2.869,-2.9581,-3.0306,-3.091,-3.1638,-3.2241,-3.2581,-3.287,-3.2624,-3.1921,-3.1217,-3.1339,-3.1801,-3.2008,-3.1801,-3.2809,-3.298,-3.2196,-3.2239,-3.2358,-3.2108,-3.2457,-3.25,-3.2196,-3.2488,-3.2778,-3.2821,-3.3164,-3.3522,-3.4014,-3.4223,-3.4223,-3.4098,-3.4223,-3.4126,-3.393,-3.4014,-3.4139,-3.4098,-3.4098,-3.4264,-3.4459,-3.4264,-3.4139,-3.4251,-3.4472,-3.4472,-3.4596,-3.502,-3.5413,-3.544,-3.544,-3.5521,-3.5548,-3.4901,-3.4431,-3.4468,-3.4422,-3.4065,-3.4192,-3.3981,-3.3641,-3.3134,-3.3036,-3.295,-3.321,-3.3474,-3.3777,-3.3949,-3.426,-3.4588,-3.4824,-3.4897,-3.4883,-3.5155,-3.5467,-3.599,-3.6638,-3.6691,-3.694,-3.694,-3.6978,-3.6978,-3.6978,-3.6978,-3.6978,-3.6978,-3.6978,-3.6978,-3.6978,-3.6978,-3.6978,-3.6978,-3.6978,-3.6978,-3.6978,-3.6978,-3.6978,-2.4143,-2.4763,-2.5094,-2.5569,-2.6166,-2.6415,-2.6745,-2.7149,-2.719,-2.719,-2.719,-2.7231,-2.7423,-2.7615,-2.7736,-2.8099,-2.8769,-2.9169,-3.0103,-3.095,-3.1609,-3.2424,-3.3238,-3.3652,-3.3762,-3.3636,-3.3023,-3.2618,-3.2618,-3.3139,-3.3169,-3.3169,-3.393,-3.3804,-3.331,-3.3437,-3.3395,-3.3194,-3.3395,-3.3479,-3.3066,-3.3522,-3.3606,-3.3733,-3.4165,-3.4622,-3.4938,-3.5561,-3.544,-3.5237,-3.548,-3.5386,-3.5278,-3.5359,-3.5467,-3.5102,-3.502,-3.5264,-3.5427,-3.54,-3.5237,-3.5682,-3.5682,-3.5682,-3.5762,-3.611,-3.6336,-3.6375,-3.6362,-3.6375,-3.6363,-3.5615,-3.544,-3.5467,-3.5142,-3.4938,-3.4979,-3.4761,-3.4555,-3.4347,-3.4098,-3.3972,-3.3972,-3.4249,-3.4526,-3.4774,-3.4992,-3.5196,-3.5427,-3.5521,-3.5561,-3.5856,-3.6203,-3.6441,-3.6886,-3.694,-3.6978,-3.6978,-3.6978,-3.6978,-3.6978,-3.6978,-3.6978,-3.6978,-3.6978,-3.6978,-3.6978,-3.6978,-3.6978,-3.6978,-3.6978,-3.6978,-3.6978,-3.6978,-3.6978,-2.469,-2.5732,-2.5456,-2.5779,-2.6445,-2.6622,-2.6839,-2.7149,-2.719,-2.7313,-2.7383,-2.7464,-2.7777,-2.8315,-2.8661,-2.8964,-2.9445,-2.9727,-3.0813,-3.1624,-3.2196,-3.2885,-3.3751,-3.4273,-3.4628,-3.4938,-3.4802,-3.4555,-3.3985,-3.4347,-3.443,-3.4347,-3.4459,-3.4555,-3.4347,-3.4389,-3.4485,-3.4347,-3.4568,-3.4596,-3.4568,-3.4389,-3.443,-3.4596,-3.5318,-3.5709,-3.599,-3.6441,-3.6494,-3.6282,-3.6441,-3.6598,-3.6243,-3.6652,-3.6691,-3.6163,-3.599,-3.6362,-3.652,-3.6401,-3.6229,-3.673,-3.6978,-3.7017,-3.7056,-3.6925,-3.7056,-3.7109,-3.7109,-3.7056,-3.6978,-3.6612,-3.6598,-3.6691,-3.6189,-3.5682,-3.5963,-3.6002,-3.5909,-3.5628,-3.5251,-3.5129,-3.521,-3.5305,-3.5642,-3.5736,-3.595,-3.603,-3.6269,-3.6441,-3.6559,-3.6691,-3.6861,-3.6861,-3.6978,-3.694,-3.6978,-3.6978,-3.6978,-3.6978,-3.6978,-3.6978,-3.6978,-3.7017,-3.6978,-3.6978,-3.6978,-3.6978,-3.6978,-3.6978,-3.6978,-3.6978,-3.6978,-3.6978,-3.6978,-2.4506,-2.5317,-2.5654,-2.6093,-2.6528,-2.6921,-2.7108,-2.719,-2.7231,-2.7545,-2.8018,-2.8139,-2.8435,-2.9108,-2.9961,-3.0304,-3.0762,-3.1502,-3.225,-3.2856,-3.3446,-3.4165,-3.5116,-3.5637,-3.5717,-3.5912,-3.6235,-3.5682,-3.4913,-3.5116,-3.5102,-3.4843,-3.5722,-3.5976,-3.4843,-3.5237,-3.5074,-3.4637,-3.5156,-3.5534,-3.5413,-3.4856,-3.4938,-3.5359,-3.5736,-3.6084,-3.6612,-3.69,-3.6861,-3.6861,-3.69,-3.694,-3.69,-3.7056,-3.7226,-3.7095,-3.6978,-3.69,-3.6978,-3.6861,-3.6847,-3.7187,-3.7264,-3.738,-3.7419,-3.7457,-3.7457,-3.7534,-3.7495,-3.7457,-3.7457,-3.7433,-3.7457,-3.7419,-3.7197,-3.7028,-3.7211,-3.6872,-3.6858,-3.6858,-3.6452,-3.6506,-3.6598,-3.6691,-3.6783,-3.6822,-3.6861,-3.69,-3.6978,-3.7056,-3.7109,-3.7187,-3.7187,-3.7226,-3.7226,-3.7134,-3.7095,-3.7095,-3.7056,-3.7056,-3.7095,-3.7134,-3.7056,-3.7056,-3.7056,-3.7056,-3.7134,-3.7095,-3.7017,-3.6978,-3.6978,-3.6978,-3.6978,-3.6978,-3.6978,-2.5413,-2.5946,-2.6166,-2.6498,-2.688,-2.7097,-2.719,-2.7272,-2.7626,-2.795,-2.8299,-2.8858,-2.9498,-3.0279,-3.1132,-3.1442,-3.1619,-3.2229,-3.309,-3.3553,-3.4052,-3.4639,-3.5481,-3.5653,-3.5808,-3.5963,-3.5953,-3.5575,-3.5258,-3.5754,-3.6149,-3.5963,-3.6533,-3.6691,-3.5682,-3.6189,-3.6189,-3.6056,-3.6229,-3.6415,-3.6322,-3.607,-3.5976,-3.6415,-3.6401,-3.6652,-3.69,-3.6978,-3.7056,-3.7095,-3.7187,-3.7226,-3.7341,-3.7419,-3.7457,-3.7457,-3.7394,-3.7341,-3.7341,-3.7356,-3.738,-3.7419,-3.7471,-3.751,-3.7586,-3.761,-3.761,-3.7572,-3.7572,-3.761,-3.7663,-3.7701,-3.7663,-3.7687,-3.7801,-3.7801,-3.7777,-3.7777,-3.761,-3.7687,-3.7701,-3.7534,-3.7419,-3.7341,-3.7264,-3.7187,-3.7226,-3.7264,-3.7303,-3.738,-3.738,-3.7394,-3.7419,-3.7457,-3.7419,-3.7419,-3.738,-3.738,-3.738,-3.738,-3.738,-3.7341,-3.7264,-3.7303,-3.738,-3.738,-3.7303,-3.7187,-3.7095,-3.7017,-3.6978,-3.7017,-3.7017,-3.6978,-3.6978,-2.6385,-2.6663,-2.6528,-2.6745,-2.7231,-2.7383,-2.7464,-2.7545,-2.8139,-2.8526,-2.891,-2.9704,-3.0645,-3.1378,-3.1919,-3.22,-3.2237,-3.2345,-3.3097,-3.373,-3.3992,-3.4376,-3.4957,-3.5119,-3.5062,-3.5175,-3.5372,-3.5232,-3.548,-3.5915,-3.6382,-3.6754,-3.683,-3.6925,-3.6978,-3.69,-3.6769,-3.6808,-3.6808,-3.69,-3.69,-3.69,-3.69,-3.6993,-3.7031,-3.7056,-3.7095,-3.7134,-3.7264,-3.7341,-3.738,-3.7457,-3.7534,-3.761,-3.7663,-3.7687,-3.7687,-3.7763,-3.7687,-3.7649,-3.7649,-3.7687,-3.7763,-3.7801,-3.7763,-3.7725,-3.7763,-3.7801,-3.7801,-3.7801,-3.7815,-3.7915,-3.7877,-3.7953,-3.8028,-3.8028,-3.8043,-3.7953,-3.7953,-3.7953,-3.7915,-3.7877,-3.7763,-3.7777,-3.7701,-3.761,-3.761,-3.761,-3.761,-3.7649,-3.761,-3.7586,-3.7625,-3.761,-3.7572,-3.7572,-3.761,-3.761,-3.761,-3.761,-3.7534,-3.7534,-3.7495,-3.7534,-3.761,-3.7534,-3.7457,-3.7303,-3.7148,-3.7226,-3.7226,-3.7109,-3.7056,-3.7056,-3.7197,-2.7108,-2.7108,-2.6704,-2.6828,-2.726,-2.7898,-2.8087,-2.8167,-2.8779,-2.9367,-3.0024,-3.0934,-3.164,-3.2078,-3.2439,-3.2668,-3.2668,-3.3051,-3.3345,-3.3423,-3.341,-3.3844,-3.4287,-3.452,-3.4534,-3.4964,-3.4908,-3.495,-3.5161,-3.5189,-3.5709,-3.6131,-3.6416,-3.6796,-3.695,-3.6922,-3.6978,-3.6978,-3.6978,-3.6978,-3.7017,-3.7017,-3.7031,-3.7056,-3.7187,-3.7264,-3.7303,-3.7419,-3.7495,-3.7534,-3.7572,-3.761,-3.7687,-3.7815,-3.7891,-3.7915,-3.7991,-3.8066,-3.8014,-3.7839,-3.7739,-3.7891,-3.7991,-3.8089,-3.8052,-3.8127,-3.8165,-3.8089,-3.8052,-3.8089,-3.8127,-3.8165,-3.8089,-3.8089,-3.8127,-3.8142,-3.8142,-3.8142,-3.8127,-3.8165,-3.8127,-3.8028,-3.8028,-3.7991,-3.7915,-3.7839,-3.7801,-3.7801,-3.7801,-3.7801,-3.7763,-3.7763,-3.7815,-3.7777,-3.7663,-3.7687,-3.7763,-3.7801,-3.7763,-3.7725,-3.7701,-3.7663,-3.7725,-3.7725,-3.7763,-3.7687,-3.761,-3.761,-3.7572,-3.751,-3.7471,-3.7419,-3.7429,-3.7529,-3.772,-2.719,-2.7231,-2.7452,-2.7644,-2.7829,-2.8099,-2.8407,-2.8819,-2.9406,-3.0317,-3.127,-3.1982,-3.2489,-3.2789,-3.2945,-3.3086,-3.31,-3.3206,-3.3487,-3.3599,-3.3613,-3.3712,-3.3922,-3.3866,-3.3803,-3.4042,-3.4056,-3.4028,-3.4,-3.4407,-3.466,-3.5082,-3.5588,-3.6089,-3.6356,-3.681,-3.6964,-3.6993,-3.6993,-3.6993,-3.7017,-3.7148,-3.7187,-3.7187,-3.7394,-3.7457,-3.7495,-3.7534,-3.7663,-3.7739,-3.7777,-3.7839,-3.7915,-3.8028,-3.8066,-3.8066,-3.8165,-3.8202,-3.8202,-3.8066,-3.8028,-3.8052,-3.8165,-3.8202,-3.8202,-3.8202,-3.8202,-3.8202,-3.8202,-3.8202,-3.8202,-3.8202,-3.8202,-3.8202,-3.8202,-3.8202,-3.8202,-3.8202,-3.8202,-3.8202,-3.8202,-3.8165,-3.8165,-3.8165,-3.8104,-3.8028,-3.7976,-3.7976,-3.7953,-3.7953,-3.7953,-3.7915,-3.7991,-3.8028,-3.7915,-3.7915,-3.7938,-3.7953,-3.7915,-3.7915,-3.7877,-3.7991,-3.8014,-3.7991,-3.7953,-3.7915,-3.7953,-3.7976,-3.7915,-3.7725,-3.7725,-3.7711,-3.781,-3.7971,-3.8405,-2.7313,-2.7545,-2.8018,-2.8179,-2.8259,-2.8566,-2.8988,-2.9433,-3.0037,-3.0947,-3.2128,-3.2525,-3.2931,-3.3206,-3.3276,-3.3276,-3.3241,-3.3319,-3.3543,-3.3571,-3.3529,-3.3585,-3.3641,-3.3585,-3.3389,-3.3276,-3.3276,-3.3347,-3.3466,-3.3754,-3.3936,-3.414,-3.4436,-3.5054,-3.6159,-3.6641,-3.6978,-3.6993,-3.707,-3.707,-3.7095,-3.7303,-3.7394,-3.7419,-3.7586,-3.7663,-3.7725,-3.7763,-3.7877,-3.7967,-3.7991,-3.8066,-3.8127,-3.8202,-3.8202,-3.8202,-3.8202,-3.8202,-3.8202,-3.8202,-3.8202,-3.8165,-3.8202,-3.8202,-3.8202,-3.8202,-3.8202,-3.8202,-3.8202,-3.8202,-3.8202,-3.8202,-3.8202,-3.8202,-3.8202,-3.8202,-3.8202,-3.8202,-3.8202,-3.8202,-3.8202,-3.8202,-3.8202,-3.8202,-3.8165,-3.8127,-3.8089,-3.8089,-3.8089,-3.8127,-3.8127,-3.8127,-3.8127,-3.8165,-3.8202,-3.8127,-3.8052,-3.8089,-3.8104,-3.8127,-3.8127,-3.8202,-3.8202,-3.8127,-3.8127,-3.8202,-3.8165,-3.8127,-3.8028,-3.7877,-3.8014,-3.8234,-3.8368,-3.8598,-3.9239,-2.7574,-2.8139,-2.8207,-2.8299,-2.8474,-2.9484,-2.9947,-3.0152,-3.0772,-3.1445,-3.2164,-3.2596,-3.2931,-3.3241,-3.3276,-3.3276,-3.3276,-3.3276,-3.3361,-3.3361,-3.3375,-3.3333,-3.3347,-3.3304,-3.3347,-3.329,-3.329,-3.329,-3.3361,-3.3431,-3.3445,-3.3508,-3.3867,-3.4528,-3.6005,-3.6708,-3.695,-3.7017,-3.724,-3.7264,-3.7341,-3.7495,-3.7586,-3.7663,-3.7801,-3.7877,-3.7929,-3.7991,-3.8104,-3.8142,-3.8142,-3.8165,-3.8202,-3.8202,-3.8202,-3.8202,-3.8202,-3.8202,-3.8202,-3.8202,-3.8202,-3.8202,-3.8202,-3.8202,-3.8202,-3.8202,-3.8202,-3.8202,-3.8202,-3.8202,-3.8202,-3.8202,-3.8202,-3.8202,-3.8202,-3.8202,-3.8202,-3.8202,-3.8202,-3.8202,-3.8202,-3.8202,-3.8202,-3.8202,-3.8202,-3.8202,-3.8202,-3.8202,-3.8202,-3.8202,-3.8202,-3.8202,-3.8202,-3.8202,-3.8202,-3.8202,-3.8202,-3.8202,-3.8202,-3.8202,-3.8202,-3.8202,-3.8202,-3.8202,-3.8202,-3.8202,-3.8202,-3.824,-3.8277,-3.8397,-3.8664,-3.887,-3.9,-3.9382,-4.0089,-2.7978,-2.8259,-2.9067,-2.9561,-2.9807,-3.019,-3.0633,-3.1134,-3.18,-3.2273,-3.2511,-3.2931,-3.3136,-3.3276,-3.3276,-3.3276,-3.3276,-3.3276,-3.3276,-3.3276,-3.3276,-3.329,-3.3312,-3.3389,-3.3494,-3.3669,-3.3585,-3.3607,-3.3922,-3.3641,-3.3347,-3.3368,-3.3868,-3.4659,-3.5586,-3.6292,-3.6783,-3.7309,-3.7471,-3.7495,-3.7495,-3.7701,-3.7815,-3.7815,-3.7991,-3.8066,-3.8066,-3.8165,-3.8202,-3.8202,-3.8202,-3.8202,-3.8202,-3.8202,-3.8202,-3.8202,-3.8202,-3.8202,-3.8202,-3.8202,-3.8202,-3.8202,-3.8202,-3.8202,-3.8202,-3.8202,-3.8202,-3.8202,-3.8202,-3.8202,-3.8202,-3.8202,-3.8202,-3.8202,-3.8202,-3.8202,-3.8202,-3.8202,-3.8202,-3.8202,-3.8202,-3.824,-3.824,-3.8315,-3.8352,-3.8315,-3.8315,-3.824,-3.8202,-3.8202,-3.8202,-3.8202,-3.8202,-3.8202,-3.8202,-3.8202,-3.8202,-3.8202,-3.8202,-3.8202,-3.8202,-3.8202,-3.824,-3.824,-3.824,-3.8202,-3.8315,-3.8464,-3.8826,-3.9066,-3.9305,-3.9632,-3.9879,-4.0401,-4.1178,-2.7855,-2.8322,-2.9075,-2.9791,-3.0325,-3.0751,-3.127,-3.1836,-3.2417,-3.269,-3.2775,-3.3122,-3.3276,-3.3276,-3.3276,-3.3276,-3.3276,-3.3276,-3.3276,-3.3276,-3.3276,-3.3276,-3.3312,-3.3529,-3.3642,-3.3931,-3.4051,-3.4073,-3.4147,-3.407,-3.3937,-3.3988,-3.4314,-3.4967,-3.5616,-3.6128,-3.6504,-3.7016,-3.7248,-3.7458,-3.7663,-3.7891,-3.8005,-3.8028,-3.8142,-3.8202,-3.8202,-3.8202,-3.8202,-3.8202,-3.8202,-3.8202,-3.8202,-3.8202,-3.8202,-3.8202,-3.8202,-3.8202,-3.8202,-3.8202,-3.8202,-3.8202,-3.8202,-3.8202,-3.8202,-3.8202,-3.8202,-3.8202,-3.824,-3.8277,-3.8277,-3.8277,-3.8315,-3.8352,-3.8389,-3.8389,-3.8389,-3.8427,-3.8427,-3.8389,-3.8389,-3.8389,-3.8389,-3.8427,-3.8501,-3.8449,-3.8412,-3.8352,-3.824,-3.824,-3.8277,-3.8277,-3.824,-3.824,-3.824,-3.8202,-3.8202,-3.8202,-3.824,-3.8277,-3.8202,-3.8202,-3.824,-3.8277,-3.8352,-3.8427,-3.8538,-3.8745,-3.9211,-3.9626,-3.9945,-4.0278,-4.069,-4.1327,-4.1981,-2.7261,-2.8243,-2.8352,-2.9015,-2.9967,-3.1078,-3.1765,-3.2151,-3.2561,-3.2725,-3.2775,-3.3171,-3.3276,-3.3304,-3.3319,-3.3445,-3.3614,-3.36,-3.3776,-3.3748,-3.4079,-3.3874,-3.3986,-3.4229,-3.4544,-3.4326,-3.4476,-3.5052,-3.4524,-3.5032,-3.5103,-3.4925,-3.5144,-3.5644,-3.5998,-3.623,-3.6561,-3.7063,-3.7359,-3.7613,-3.7881,-3.8052,-3.8142,-3.8165,-3.8202,-3.8202,-3.8202,-3.8202,-3.8202,-3.8202,-3.8202,-3.8202,-3.8202,-3.8202,-3.8202,-3.8202,-3.8202,-3.824,-3.824,-3.8277,-3.8315,-3.8352,-3.8329,-3.824,-3.824,-3.8277,-3.8315,-3.8315,-3.8352,-3.8427,-3.8464,-3.8501,-3.8575,-3.8634,-3.8708,-3.8708,-3.8708,-3.8708,-3.8708,-3.8708,-3.8708,-3.8671,-3.8671,-3.8671,-3.8649,-3.8634,-3.8598,-3.8538,-3.8464,-3.8375,-3.8375,-3.8375,-3.8352,-3.8277,-3.8277,-3.8352,-3.8389,-3.8427,-3.8389,-3.8389,-3.8315,-3.8315,-3.8389,-3.8501,-3.859,-3.8686,-3.8965,-3.9334,-3.9804,-4.0209,-4.0811,-4.0943,-4.1311,-4.1835,-4.2429,-2.8108,-2.8674,-2.9164,-2.9846,-3.061,-3.1261,-3.2069,-3.2925,-3.31,-3.3136,-3.3122,-3.3241,-3.3312,-3.3319,-3.3726,-3.4108,-3.4569,-3.5038,-3.5536,-3.5592,-3.5468,-3.5752,-3.5872,-3.5862,-3.6155,-3.6266,-3.6368,-3.6424,-3.6681,-3.6869,-3.7045,-3.7207,-3.6542,-3.6747,-3.6854,-3.6965,-3.7269,-3.7557,-3.7775,-3.7866,-3.7974,-3.8107,-3.8159,-3.8188,-3.813,-3.8144,-3.8188,-3.8202,-3.8202,-3.8202,-3.8202,-3.8202,-3.8202,-3.8202,-3.8202,-3.824,-3.8315,-3.8389,-3.8427,-3.8538,-3.8612,-3.856,-3.8598,-3.8553,-3.8478,-3.8441,-3.8464,-3.8501,-3.8538,-3.8612,-3.8649,-3.8723,-3.8797,-3.887,-3.8907,-3.8907,-3.8907,-3.8907,-3.8907,-3.8892,-3.8892,-3.8907,-3.8892,-3.887,-3.8833,-3.8819,-3.8782,-3.876,-3.8649,-3.8598,-3.8523,-3.8523,-3.8523,-3.8501,-3.856,-3.8634,-3.8649,-3.8649,-3.8575,-3.8538,-3.856,-3.8598,-3.8649,-3.8833,-3.9111,-3.9349,-3.9565,-4.0065,-4.0758,-4.1379,-4.1917,-4.1868,-4.1933,-4.2381,-4.2665,-2.8138,-2.8577,-2.9084,-2.9794,-3.0535,-3.0927,-3.1808,-3.282,-3.2946,-3.3059,-3.3262,-3.3276,-3.3417,-3.3689,-3.4022,-3.4558,-3.5403,-3.5621,-3.6087,-3.657,-3.702,-3.6768,-3.6882,-3.7159,-3.7119,-3.7416,-3.7643,-3.7619,-3.8107,-3.8462,-3.8648,-3.8434,-3.7914,-3.7806,-3.7674,-3.7552,-3.785,-3.8231,-3.8427,-3.8304,-3.8192,-3.8051,-3.7984,-3.8101,-3.8028,-3.7999,-3.8159,-3.8188,-3.8202,-3.8202,-3.8202,-3.8202,-3.8202,-3.8202,-3.8277,-3.8329,-3.8404,-3.8538,-3.8612,-3.8723,-3.8782,-3.8819,-3.8819,-3.8797,-3.8738,-3.8701,-3.8708,-3.8708,-3.8745,-3.8833,-3.8855,-3.8929,-3.898,-3.9068,-3.9068,-3.9068,-3.9068,-3.9068,-3.9068,-3.9053,-3.9053,-3.9068,-3.9068,-3.9031,-3.9068,-3.9104,-3.9104,-3.9104,-3.8958,-3.8819,-3.8745,-3.8671,-3.8708,-3.8745,-3.8819,-3.8855,-3.8819,-3.8797,-3.8708,-3.8708,-3.8782,-3.8855,-3.8892,-3.9313,-3.9814,-4.001,-4.0274,-4.1162,-4.1901,-4.238,-4.2615,-4.2569,-4.2491,-4.2664,-4.2836,-2.7636,-2.8198,-2.8536,-2.926,-2.9951,-3.0331,-3.1143,-3.2258,-3.2328,-3.2693,-3.3213,-3.3347,-3.3667,-3.3991,-3.4344,-3.5059,-3.5859,-3.6335,-3.6961,-3.7169,-3.7704,-3.7769,-3.7843,-3.7717,-3.8161,-3.7978,-3.8202,-3.9104,-3.9146,-3.9596,-3.992,-3.9428,-3.891,-3.8738,-3.8682,-3.8147,-3.8383,-3.8956,-3.8936,-3.8756,-3.8319,-3.7922,-3.7593,-3.7912,-3.781,-3.7651,-3.7999,-3.8159,-3.8202,-3.8202,-3.8202,-3.8202,-3.824,-3.8277,-3.8366,-3.8478,-3.859,-3.8701,-3.8797,-3.8907,-3.8907,-3.8907,-3.8855,-3.898,-3.8995,-3.8922,-3.887,-3.8943,-3.9017,-3.9031,-3.9104,-3.9141,-3.9177,-3.9228,-3.9228,-3.9228,-3.9228,-3.9228,-3.9228,-3.9228,-3.9228,-3.9228,-3.9228,-3.9228,-3.9228,-3.9316,-3.9352,-3.9352,-3.9265,-3.9053,-3.898,-3.8892,-3.8943,-3.898,-3.898,-3.898,-3.8929,-3.8892,-3.8892,-3.8907,-3.9017,-3.909,-3.9184,-3.96,-4.006,-4.0638,-4.1095,-4.1965,-4.2522,-4.2615,-4.2849,-4.3066,-4.3143,-4.3082,-4.3005,-2.8346,-2.8522,-2.9131,-2.9512,-2.9687,-2.9796,-3.0558,-3.1682,-3.171,-3.2342,-3.3227,-3.3701,-3.3982,-3.4249,-3.4986,-3.5729,-3.6447,-3.7147,-3.8197,-3.8732,-3.9078,-3.9085,-3.9512,-3.9413,-3.957,-3.9841,-4.022,-4.0595,-4.0845,-4.13,-4.1642,-4.1549,-4.0642,-3.9897,-3.9846,-3.9171,-3.9062,-3.9642,-3.9458,-3.9314,-3.9014,-3.837,-3.7955,-3.7847,-3.76,-3.7623,-3.7884,-3.8044,-3.8138,-3.8202,-3.8202,-3.8277,-3.8404,-3.8441,-3.8553,-3.8686,-3.8848,-3.8958,-3.9141,-3.9271,-3.9343,-3.9358,-3.9307,-3.9286,-3.925,-3.9104,-3.9104,-3.9213,-3.9213,-3.9265,-3.9301,-3.9301,-3.9337,-3.9373,-3.9388,-3.9388,-3.9388,-3.9388,-3.9388,-3.9388,-3.9388,-3.9388,-3.9388,-3.9388,-3.9388,-3.9388,-3.9388,-3.9388,-3.9388,-3.9265,-3.9228,-3.9177,-3.9228,-3.9265,-3.9228,-3.9156,-3.9104,-3.9141,-3.9177,-3.9228,-3.9228,-3.925,-3.9343,-3.9793,-4.027,-4.0977,-4.1804,-4.2584,-4.3019,-4.3019,-4.3096,-4.3312,-4.3402,-4.3372,-4.3265,-2.8812,-2.8876,-2.9397,-2.9602,-2.9602,-2.9602,-3.0333,-3.1378,-3.1749,-3.2516,-3.3553,-3.3982,-3.4341,-3.471,-3.5522,-3.6274,-3.6975,-3.7709,-3.8449,-3.9346,-3.9945,-4.0242,-4.0507,-4.0749,-4.0792,-4.1021,-4.1357,-4.1721,-4.2109,-4.227,-4.2349,-4.241,-4.1469,-4.0908,-4.0823,-4.0135,-3.9762,-4.0352,-3.9992,-3.9668,-3.9444,-3.8652,-3.803,-3.7817,-3.7546,-3.7575,-3.8102,-3.8366,-3.8639,-3.8605,-3.8501,-3.8464,-3.8575,-3.8612,-3.8723,-3.8907,-3.9068,-3.9271,-3.9595,-3.9829,-4.0005,-4.0111,-4.027,-4.0428,-4.0447,-4.0343,-3.9793,-3.9793,-3.9409,-3.9352,-3.9352,-3.9337,-3.9373,-3.9388,-3.9388,-3.9388,-3.9388,-3.9388,-3.9388,-3.9388,-3.9388,-3.9388,-3.9388,-3.9388,-3.9388,-3.9424,-3.9424,-3.9445,-3.9445,-3.9388,-3.9388,-3.9388,-3.9388,-3.9388,-3.9352,-3.9316,-3.9301,-3.9388,-3.9388,-3.9352,-3.9316,-3.9373,-3.9553,-4.0181,-4.0873,-4.1641,-4.2427,-4.3111,-4.3386,-4.3372,-4.3432,-4.3568,-4.3615,-4.3645,-4.3522,-2.9162,-2.9194,-2.9477,-2.9602,-2.9602,-2.9602,-3.0383,-3.1542,-3.2094,-3.3064,-3.4273,-3.4442,-3.4975,-3.5415,-3.5846,-3.6575,-3.7212,-3.7645,-3.845,-3.9177,-3.9645,-4.0391,-4.0932,-4.1156,-4.1323,-4.1555,-4.1851,-4.2045,-4.2238,-4.2413,-4.2491,-4.2441,-4.2067,-4.1579,-4.1191,-4.0464,-3.9906,-4.0273,-4.0094,-3.9594,-3.9154,-3.8622,-3.8126,-3.7676,-3.7421,-3.7316,-3.8171,-3.8777,-3.9135,-3.935,-3.9158,-3.9284,-3.932,-3.9427,-3.9478,-3.9672,-3.9778,-4.0095,-4.0409,-4.06,-4.0907,-4.1227,-4.1459,-4.1525,-4.1477,-4.1194,-4.0634,-4.0305,-3.9879,-3.9625,-3.9625,-3.9625,-3.9625,-3.9661,-3.9661,-3.9717,-3.9753,-3.9753,-3.9717,-3.9717,-3.9717,-3.9753,-3.9717,-3.9681,-3.9681,-3.9661,-3.9553,-3.9553,-3.9538,-3.9445,-3.9388,-3.9388,-3.9388,-3.9388,-3.9388,-3.9388,-3.9388,-3.9388,-3.9388,-3.9388,-3.946,-3.9661,-4.0076,-4.0805,-4.1525,-4.2205,-4.2787,-4.3386,-4.3552,-4.3687,-4.3763,-4.3793,-4.3793,-4.3805,-4.3747,-2.9509,-2.9509,-2.9571,-2.9602,-2.9602,-2.9602,-3.0513,-3.1922,-3.2195,-3.3375,-3.5031,-3.564,-3.5879,-3.5752,-3.6195,-3.6645,-3.6908,-3.7436,-3.823,-3.9024,-3.9699,-4.0617,-4.13,-4.1588,-4.1753,-4.1948,-4.2142,-4.2254,-4.2381,-4.2539,-4.2602,-4.2554,-4.197,-4.1596,-4.1401,-4.0656,-4.0043,-4.0358,-4.0132,-3.9601,-3.9668,-3.9046,-3.8058,-3.7816,-3.7844,-3.7774,-3.8012,-3.8371,-3.8992,-3.9594,-4.0096,-4.0327,-4.0374,-4.0423,-4.0554,-4.0585,-4.0687,-4.0925,-4.1194,-4.1327,-4.1575,-4.1754,-4.1852,-4.1771,-4.1739,-4.1722,-4.136,-4.1294,-4.0891,-4.0428,-4.0374,-4.0339,-4.0339,-4.0512,-4.0615,-4.0805,-4.0925,-4.0925,-4.0925,-4.0925,-4.0925,-4.0925,-4.0925,-4.0891,-4.0891,-4.0755,-4.0478,-4.0428,-4.0324,-3.995,-3.9553,-3.961,-3.9681,-3.9388,-3.9409,-3.9388,-3.9388,-3.9388,-3.9481,-3.9661,-3.9859,-4.0091,-4.0615,-4.1377,-4.1997,-4.263,-4.3202,-4.37,-4.3818,-4.3923,-4.3998,-4.4027,-4.3998,-4.3952,-4.3894]},{"header":{"parameterUnit":"m.s-1","parameterCategory":1,"la1":31.0,"la2":29.5877,"lo1":-88.7671,"lo2":-86.6584,"dy":0.0162,"dx":0.0185,"nx":115,"ny":88,"refTime":"2023-08-30T12:00:00:Z","depth":0,"parameterNumber":3,"parameterNumberName":"V-component_of_WINDS"},"data":[0.0,0.0,0.0,0.0,0.0,0.0,0.0,0.0,0.0,0.0,0.0,0.0,0.0,0.0,0.0,0.0,0.0,0.0,0.0,0.0,0.0,0.0,0.0,0.0,0.0,0.0,0.0,0.0,0.0,0.0,0.0,0.0,0.0,0.0,0.0,0.0,0.0,0.0,0.0,0.0,0.0,0.0,0.0,0.0,0.0,0.0,0.0,0.0,0.0,0.0,0.0,0.0,0.0,0.0,0.0,0.0,0.0,0.0,0.0,0.0,0.0,0.0,0.0,0.0,0.0,0.0,0.0,0.0,0.0,0.0,0.0,0.0,0.0,0.0,0.0,0.0,0.0,0.0,0.0,0.0,0.0,0.0,0.0,0.0,0.0,0.0,0.0,0.0,0.0,0.0,0.0,0.0,0.0,0.0,0.0,0.0,0.0,0.0,0.0,0.0,0.0,0.0,0.0,0.0,0.0,0.0,0.0,0.0,0.0,0.0,0.0,0.0,0.0,0.0,0.0,0.0,0.0,0.0,0.0,0.0,0.0,0.0,0.0,0.0,0.0,0.0,0.0,0.0,0.0,0.0,0.0,0.0,0.0,0.0,0.0,0.0,0.0,0.0,0.0,0.0,0.0,0.0,0.0,0.0,0.0,0.0,0.0,0.0,0.0,0.0,0.0,0.0,0.0,0.0,0.0,0.0,0.0,0.0,0.0,0.0,0.0,0.0,0.0,0.0,0.0,0.0,0.0,0.0,0.0,0.0,0.0,0.0,0.0,0.0,0.0,0.0,0.0,0.0,0.0,0.0,0.0,0.0,0.0,0.0,0.0,0.0,0.0,0.0,0.0,0.0,0.0,0.0,0.0,0.0,0.0,0.0,0.0,0.0,0.0,0.0,0.0,0.0,0.0,0.0,0.0,0.0,0.0,0.0,0.0,0.0,0.0,0.0,0.0,0.0,0.0,0.0,0.0,0.0,0.0,0.0,0.0,0.0,0.0,0.0,0.0,0.0,0.0,0.0,0.0,0.0,0.0,0.0,0.0,0.0,0.0,0.0,0.0,0.0,0.0,0.0,0.0,0.0,0.0,0.0,0.0,0.0,0.0,0.0,0.0,0.0,0.0,0.0,0.0,0.0,0.0,0.0,0.0,0.0,0.0,0.0,0.0,0.0,0.0,0.0,0.0,0.0,0.0,0.0,0.0,0.0,0.0,0.0,0.0,0.0,0.0,0.0,0.0,0.0,0.0,0.0,0.0,0.0,0.0,0.0,0.0,0.0,0.0,0.0,0.0,0.0,0.0,0.0,0.0,0.0,0.0,0.0,0.0,0.0,0.0,0.0,0.0,0.0,0.0,0.0,0.0,0.0,0.0,0.0,0.0,0.0,0.0,0.0,0.0,0.0,0.0,0.0,0.0,0.0,0.0,0.0,0.0,0.0,0.0,0.0,0.0,0.0,0.0,0.0,0.0,0.0,0.0,0.0,0.0,0.0,0.0,0.0,0.0,0.0,0.0,0.0,0.0,0.0,0.0,0.0,0.0,0.0,0.0,0.0,0.0,0.0,0.0,0.0,0.0,0.0,0.0,0.0,0.0,0.0,0.0,0.0,0.0,0.0,0.0,0.0,0.0,0.0,0.0,0.0,0.0,0.0,0.0,0.0,0.0,0.0,0.0,0.0,0.0,0.0,0.0,0.0,0.0,0.0,0.0,0.0,0.0,0.0,0.0,0.0,0.0,0.0,0.0,0.0,0.0,0.0,0.0,0.0,0.0,0.0,0.0,0.0,0.0,0.0,0.0,0.0,0.0,0.0,0.0,0.0,0.0,0.0,0.0,0.0,0.0,0.0,0.0,0.0,0.0,0.0,0.0,0.0,0.0,0.0,0.0,0.0,0.0,0.0,0.0,0.0,0.0,0.0,0.0,0.0,0.0,0.0,0.0,0.0,0.0,0.0,0.0,0.0,0.0,0.0,0.0,0.0,0.0,0.0,0.0,0.0,0.0,0.0,0.0,0.0,0.0,0.0,0.0,0.0,0.0,0.0,0.0,0.0,0.0,0.0,0.0,0.0,0.0,0.0,0.0,0.0,0.0,0.0,0.0,0.0,0.0,0.0,0.0,0.0,0.0,0.0,0.0,0.0,0.0,0.0,0.0,0.0,0.0,0.0,0.0,0.0,0.0,0.0,0.0,0.0,0.0,0.0,0.0,0.0,0.0,0.0,0.0,0.0,0.0,0.0,0.0,0.0,0.0,0.0,0.0,0.0,0.0,0.0,0.0,0.0,0.0,0.0,0.0,0.0,0.0,0.0,0.0,0.0,0.0,0.0,0.0,0.0,0.0,0.0,0.0,0.0,0.0,0.0,0.0,0.0,0.0,0.0,0.0,0.0,0.0,0.0,0.0,0.0,0.0,0.0,0.0,0.0,0.0,0.0,0.0,0.0,0.0,0.0,0.0,0.0,0.0,0.0,0.0,0.0,0.0,0.0,0.0,0.0,0.0,0.0,0.0,0.0,0.0,0.0,0.0,0.0,0.0,0.0,0.0,0.0,0.0,0.0,0.0,0.0,0.0,0.0,0.0,0.0,0.0,0.0,0.0,0.0,0.0,0.0,0.0,0.0,0.0,0.0,0.0,0.0,0.0,0.0,0.0,0.0,0.0,0.0,0.0,0.0,0.0,0.0,0.0,0.0,0.0,0.0,0.0,0.0,0.0,0.0,0.0,0.0,0.0,0.0,0.0,0.0,0.0,0.0,0.0,0.0,0.0,0.0,0.0,0.0,0.0,0.0,0.0,0.0,0.0,0.0,0.0,0.0,0.0,0.0,0.0,0.0,0.0,0.0,0.0,0.0,0.0,0.0,0.0,0.0,0.0,0.0,0.0,0.0,0.0,0.0,0.0,0.0,0.0,0.0,0.0,0.0,0.0,0.0,0.0,0.0,0.0,0.0,0.0,0.0,0.0,0.0,0.0,0.0,0.0,0.0,0.0,0.0,0.0,0.0,0.0,0.0,0.0,0.0,0.0,0.0,0.0,0.0,0.0,0.0,0.0,0.0,0.0,0.0,0.0,0.0,0.0,0.0,0.0,0.0,0.0,0.0,0.0,0.0,0.0,0.0,0.0,0.0,0.0,0.0,0.0,0.0,0.0,0.0,0.0,0.0,0.0,0.0,0.0,0.0,0.0,0.0,0.0,0.0,0.0,0.0,0.0,0.0,0.0,0.0,0.0,0.0,0.0,0.0,0.0,0.0,0.0,0.0,0.0,0.0,0.0,0.0,0.0,0.0,0.0,0.0,0.0,0.0,0.0,0.0,0.0,0.0,0.0,0.0,0.0,0.0,0.0,0.0,0.0,0.0,0.0,0.0,0.0,0.0,0.0,0.0,0.0,0.0,0.0,0.0,0.0,0.0,0.0,0.0,0.0,0.0,0.0,0.0,0.0,0.0,0.0,0.0,0.0,0.0,0.0,0.0,0.0,0.0,0.0,0.0,0.0,0.0,0.0,0.0,0.0,0.0,0.0,0.0,0.0,0.0,0.0,0.0,0.0,0.0,0.0,0.0,0.0,0.0,0.0,0.0,0.0,0.0,0.0,0.0,0.0,0.0,0.0,0.0,0.0,0.0,0.0,0.0,0.0,0.0,0.0,0.0,0.0,0.0,0.0,0.0,0.0,0.0,0.0,0.0,0.0,0.0,0.0,0.0,0.0,0.0,0.0,0.0,0.0,0.0,0.0,0.0,0.0,0.0,0.0,0.0,0.0,0.0,0.0,0.0,0.0,0.0,0.0,0.0,0.0,0.0,0.0,0.0,0.0,0.0,0.0,0.0,0.0,0.0,0.0,0.0,0.0,0.0,0.0,0.0,0.0,0.0,0.0,0.0,0.0,0.0,0.0,0.0,0.0,0.0,0.0,0.0,0.0,0.0,0.0,0.0,0.0,0.0,0.0,0.0,0.0,0.0,0.0,0.0,0.0,0.0,0.0,0.0,0.0,0.0,0.0,0.0,0.0,0.0,0.0,0.0,0.0,0.0,0.0,0.0,0.0,0.0,0.0,0.0,0.0,0.0,0.0,0.0,0.0,0.0,0.0,0.0,0.0,0.0,0.0,0.0,0.0,0.0,0.0,0.0,0.0,0.0,0.0,0.0,0.0,0.0,0.0,0.0,0.0,0.0,0.0,0.0,0.0,0.0,0.0,0.0,0.0,0.0,0.0,0.0,0.0,0.0,0.0,0.0,0.0,0.0,0.0,0.0,0.0,0.0,0.0,0.0,0.0,0.0,0.0,0.0,0.0,0.0,3.1152,0.0,0.0,0.0,0.0,0.0,0.0,0.0,0.0,0.0,0.0,0.0,0.0,0.0,0.0,0.0,0.0,0.0,0.0,0.0,0.0,0.0,0.0,0.0,0.0,0.0,0.0,0.0,0.0,0.0,0.0,0.0,0.0,0.0,0.0,0.0,0.0,0.0,0.0,0.0,0.0,0.0,0.0,0.0,0.0,0.0,0.0,0.0,0.0,0.0,0.0,0.0,0.0,0.0,0.0,0.0,0.0,0.0,0.0,0.0,0.0,0.0,0.0,0.0,0.0,0.0,0.0,0.0,0.0,0.0,0.0,0.0,0.0,0.0,0.0,0.0,0.0,0.0,0.0,0.0,0.0,0.0,0.0,0.0,0.0,0.0,0.0,0.0,0.0,0.0,0.0,0.0,0.0,0.0,0.0,0.0,0.0,0.0,0.0,0.0,0.0,0.0,0.0,0.0,0.0,0.0,0.0,0.0,0.0,0.0,0.0,3.3393,3.3393,3.3393,3.2651,3.1057,0.0,0.0,0.0,0.0,0.0,0.0,0.0,0.0,0.0,0.0,0.0,0.0,0.0,0.0,0.0,0.0,0.0,0.0,0.0,0.0,0.0,0.0,0.0,0.0,0.0,0.0,0.0,0.0,0.0,0.0,0.0,0.0,0.0,0.0,0.0,0.0,0.0,0.0,0.0,0.0,0.0,0.0,0.0,0.0,0.0,0.0,0.0,0.0,0.0,0.0,0.0,0.0,0.0,0.0,0.0,0.0,0.0,0.0,0.0,0.0,0.0,0.0,0.0,0.0,0.0,0.0,0.0,0.0,0.0,0.0,0.0,0.0,0.0,0.0,0.0,0.0,0.0,0.0,0.0,0.0,0.0,0.0,0.0,0.0,0.0,0.0,0.0,0.0,0.0,0.0,0.0,0.0,0.0,0.0,0.0,0.0,0.0,0.0,0.0,0.0,0.0,0.0,0.0,0.0,0.0,0.0,0.0,0.0,0.0,0.0,0.0,0.0,3.3683,3.2908,3.1287,0.0,0.0,0.0,0.0,0.0,0.0,0.0,0.0,0.0,0.0,0.0,0.0,0.0,0.0,0.0,0.0,0.0,0.0,0.0,0.0,0.0,0.0,0.0,0.0,0.0,0.0,0.0,0.0,0.0,0.0,0.0,0.0,0.0,0.0,0.0,0.0,0.0,0.0,0.0,0.0,0.0,0.0,0.0,0.0,0.0,0.0,0.0,0.0,0.0,0.0,0.0,0.0,0.0,0.0,0.0,0.0,0.0,0.0,0.0,0.0,0.0,0.0,0.0,0.0,0.0,0.0,0.0,0.0,0.0,0.0,0.0,0.0,0.0,0.0,0.0,0.0,0.0,0.0,0.0,0.0,0.0,0.0,0.0,0.0,0.0,0.0,0.0,0.0,0.0,0.0,0.0,0.0,0.0,0.0,0.0,0.0,0.0,0.0,0.0,0.0,0.0,0.0,0.0,0.0,0.0,0.0,0.0,0.0,0.0,0.0,3.3737,3.4446,3.4446,0.0,3.2007,0.0,0.0,0.0,0.0,0.0,0.0,0.0,0.0,0.0,0.0,0.0,0.0,0.0,0.0,0.0,0.0,0.0,0.0,0.0,0.0,0.0,0.0,0.0,0.0,0.0,0.0,0.0,0.0,0.0,0.0,0.0,0.0,0.0,0.0,0.0,0.0,0.0,0.0,0.0,0.0,0.0,0.0,0.0,0.0,0.0,0.0,0.0,0.0,0.0,0.0,0.0,0.0,0.0,0.0,0.0,0.0,0.0,0.0,0.0,0.0,0.0,0.0,0.0,0.0,0.0,0.0,0.0,0.0,0.0,0.0,0.0,0.0,0.0,0.0,0.0,0.0,0.0,0.0,0.0,0.0,0.0,0.0,0.0,0.0,0.0,0.0,0.0,0.0,0.0,0.0,0.0,0.0,0.0,0.0,0.0,0.0,0.0,0.0,0.0,0.0,0.0,0.0,0.0,0.0,0.0,0.0,0.0,0.0,0.0,0.0,3.4156,3.4241,3.3326,3.2522,0.0,0.0,0.0,0.0,0.0,0.0,0.0,0.0,0.0,0.0,0.0,0.0,0.0,0.0,0.0,0.0,0.0,0.0,0.0,0.0,0.0,0.0,0.0,0.0,0.0,0.0,0.0,0.0,0.0,0.0,0.0,0.0,0.0,0.0,0.0,0.0,0.0,0.0,0.0,0.0,0.0,0.0,0.0,0.0,0.0,0.0,0.0,0.0,0.0,0.0,0.0,0.0,0.0,0.0,0.0,0.0,0.0,0.0,0.0,0.0,0.0,0.0,0.0,0.0,0.0,0.0,0.0,0.0,0.0,0.0,0.0,0.0,0.0,0.0,0.0,0.0,0.0,0.0,0.0,0.0,0.0,0.0,0.0,0.0,0.0,0.0,0.0,0.0,0.0,0.0,0.0,0.0,0.0,0.0,0.0,0.0,0.0,0.0,0.0,0.0,0.0,0.0,0.0,0.0,0.0,0.0,0.0,0.0,0.0,0.0,3.4145,3.4241,3.384,3.2709,3.1806,3.1233,0.0,0.0,0.0,0.0,0.0,0.0,0.0,0.0,0.0,0.0,0.0,0.0,0.0,0.0,0.0,0.0,0.0,0.0,0.0,0.0,0.0,0.0,0.0,0.0,0.0,0.0,0.0,0.0,0.0,0.0,0.0,0.0,0.0,0.0,0.0,0.0,0.0,0.0,0.0,0.0,0.0,0.0,0.0,0.0,0.0,0.0,0.0,0.0,0.0,0.0,0.0,0.0,0.0,0.0,0.0,0.0,0.0,0.0,0.0,0.0,0.0,0.0,0.0,0.0,0.0,0.0,0.0,0.0,0.0,0.0,0.0,0.0,0.0,0.0,0.0,0.0,0.0,0.0,0.0,0.0,0.0,0.0,0.0,0.0,0.0,0.0,0.0,0.0,0.0,0.0,0.0,0.0,0.0,0.0,0.0,0.0,0.0,0.0,0.0,0.0,0.0,0.0,0.0,0.0,0.0,0.0,0.0,0.0,3.3867,3.3993,3.3842,3.3565,3.3336,3.2127,0.0,0.0,0.0,0.0,0.0,0.0,0.0,0.0,0.0,0.0,0.0,0.0,0.0,0.0,0.0,0.0,0.0,0.0,0.0,0.0,0.0,0.0,0.0,0.0,0.0,0.0,0.0,0.0,0.0,0.0,0.0,0.0,0.0,0.0,0.0,0.0,0.0,0.0,0.0,0.0,0.0,0.0,0.0,0.0,0.0,0.0,0.0,0.0,0.0,0.0,0.0,0.0,0.0,0.0,0.0,0.0,0.0,0.0,0.0,0.0,0.0,0.0,0.0,0.0,0.0,0.0,0.0,0.0,0.0,0.0,0.0,0.0,0.0,0.0,0.0,0.0,0.0,0.0,0.0,0.0,0.0,0.0,0.0,0.0,0.0,0.0,0.0,0.0,0.0,0.0,0.0,0.0,0.0,0.0,0.0,0.0,0.0,0.0,0.0,0.0,0.0,0.0,0.0,0.0,0.0,0.0,0.0,0.0,0.0,3.1529,3.2161,3.3107,3.4163,3.2456,3.1114,0.0,0.0,0.0,0.0,0.0,0.0,0.0,0.0,0.0,0.0,0.0,0.0,0.0,0.0,0.0,0.0,0.0,0.0,0.0,0.0,0.0,0.0,0.0,0.0,0.0,0.0,0.0,0.0,0.0,0.0,0.0,0.0,0.0,0.0,0.0,0.0,0.0,0.0,0.0,0.0,0.0,0.0,0.0,0.0,0.0,0.0,0.0,0.0,0.0,0.0,0.0,0.0,0.0,0.0,0.0,0.0,0.0,0.0,0.0,0.0,0.0,0.0,0.0,0.0,0.0,0.0,0.0,0.0,0.0,0.0,0.0,0.0,0.0,0.0,0.0,0.0,0.0,0.0,0.0,0.0,0.0,0.0,0.0,0.0,0.0,0.0,0.0,0.0,0.0,0.0,0.0,0.0,0.0,0.0,0.0,0.0,0.0,0.0,0.0,0.0,0.0,0.0,0.0,0.0,0.0,0.0,0.0,0.0,0.0,3.0975,0.0,3.2634,3.3334,3.1321,2.9891,0.0,0.0,0.0,0.0,0.0,0.0,0.0,0.0,0.0,0.0,0.0,0.0,0.0,0.0,0.0,0.0,0.0,0.0,0.0,0.0,0.0,0.0,0.0,0.0,0.0,0.0,0.0,0.0,0.0,0.0,0.0,0.0,0.0,0.0,0.0,0.0,0.0,0.0,0.0,0.0,0.0,0.0,0.0,0.0,0.0,0.0,0.0,0.0,0.0,0.0,0.0,0.0,0.0,0.0,0.0,0.0,0.0,0.0,0.0,0.0,0.0,0.0,0.0,0.0,0.0,0.0,0.0,0.0,0.0,0.0,0.0,0.0,0.0,0.0,0.0,0.0,0.0,0.0,0.0,0.0,0.0,0.0,0.0,0.0,0.0,0.0,0.0,0.0,0.0,0.0,0.0,0.0,0.0,0.0,0.0,0.0,0.0,0.0,0.0,0.0,0.0,0.0,0.0,0.0,0.0,0.0,0.0,0.0,3.0854,3.2544,3.2961,3.2462,3.0979,3.0129,2.8615,0.0,0.0,0.0,0.0,0.0,0.0,0.0,0.0,0.0,0.0,0.0,0.0,0.0,0.0,0.0,0.0,0.0,0.0,0.0,0.0,0.0,0.0,0.0,0.0,0.0,0.0,0.0,0.0,0.0,0.0,0.0,0.0,0.0,0.0,0.0,0.0,0.0,0.0,0.0,0.0,0.0,0.0,0.0,0.0,0.0,0.0,0.0,0.0,0.0,0.0,0.0,0.0,0.0,0.0,0.0,0.0,0.0,0.0,0.0,0.0,0.0,0.0,0.0,0.0,0.0,0.0,0.0,0.0,0.0,0.0,0.0,0.0,0.0,0.0,0.0,0.0,0.0,0.0,0.0,0.0,0.0,0.0,0.0,0.0,0.0,0.0,0.0,0.0,0.0,0.0,0.0,0.0,0.0,0.0,0.0,0.0,0.0,0.0,0.0,0.0,0.0,0.0,0.0,0.0,0.0,0.0,0.0,0.0,0.0,3.0156,3.1086,3.1636,3.1657,3.0326,2.9279,0.0,0.0,0.0,0.0,0.0,0.0,0.0,0.0,0.0,0.0,0.0,0.0,0.0,0.0,0.0,0.0,0.0,0.0,0.0,0.0,0.0,0.0,0.0,0.0,0.0,0.0,0.0,0.0,0.0,0.0,0.0,0.0,0.0,0.0,0.0,0.0,0.0,0.0,0.0,0.0,0.0,0.0,0.0,0.0,0.0,0.0,0.0,0.0,0.0,0.0,0.0,0.0,0.0,0.0,0.0,0.0,0.0,0.0,0.0,0.0,0.0,0.0,0.0,0.0,0.0,0.0,0.0,0.0,0.0,0.0,0.0,0.0,0.0,0.0,0.0,0.0,0.0,0.0,0.0,0.0,0.0,0.0,0.0,0.0,0.0,0.0,0.0,0.0,0.0,0.0,0.0,0.0,0.0,0.0,0.0,0.0,0.0,0.0,0.0,0.0,0.0,0.0,0.0,0.0,0.0,0.0,0.0,0.0,0.0,2.9705,3.0925,3.1696,3.1918,3.0625,2.957,2.8755,0.0,0.0,0.0,0.0,0.0,0.0,0.0,0.0,0.0,0.0,0.0,0.0,0.0,0.0,0.0,0.0,0.0,0.0,0.0,0.0,0.0,0.0,0.0,0.0,0.0,0.0,0.0,0.0,0.0,0.0,0.0,0.0,0.0,0.0,0.0,0.0,0.0,0.0,0.0,0.0,0.0,0.0,0.0,0.0,0.0,0.0,0.0,0.0,0.0,0.0,0.0,0.0,0.0,0.0,0.0,0.0,0.0,0.0,0.0,0.0,0.0,0.0,0.0,0.0,0.0,0.0,0.0,0.0,0.0,0.0,0.0,0.0,0.0,0.0,0.0,0.0,0.0,0.0,0.0,0.0,0.0,0.0,0.0,0.0,0.0,0.0,0.0,0.0,0.0,0.0,0.0,0.0,0.0,0.0,0.0,0.0,0.0,0.0,0.0,0.0,0.0,0.0,0.0,0.0,0.0,0.0,0.0,0.0,3.076,3.2171,3.2497,3.1719,3.0903,2.9533,0.0,0.0,0.0,0.0,0.0,0.0,0.0,0.0,0.0,0.0,0.0,0.0,0.0,0.0,0.0,0.0,0.0,0.0,0.0,0.0,0.0,0.0,0.0,0.0,0.0,0.0,0.0,0.0,0.0,0.0,0.0,0.0,0.0,0.0,0.0,0.0,0.0,0.0,0.0,0.0,0.0,0.0,0.0,0.0,0.0,0.0,0.0,0.0,0.0,0.0,0.0,0.0,0.0,0.0,0.0,0.0,0.0,0.0,0.0,0.0,0.0,0.0,0.0,0.0,0.0,0.0,0.0,0.0,0.0,0.0,0.0,0.0,0.0,0.0,0.0,0.0,0.0,0.0,0.0,0.0,0.0,0.0,0.0,0.0,0.0,0.0,0.0,0.0,0.0,0.0,0.0,0.0,0.0,0.0,0.0,0.0,0.0,0.0,0.0,0.0,0.0,0.0,0.0,0.0,0.0,0.0,0.0,0.0,0.0,3.0725,3.2038,3.2702,3.2541,3.1248,2.9976,0.0,0.0,0.0,0.0,0.0,0.0,0.0,0.0,0.0,0.0,0.0,0.0,0.0,0.0,0.0,0.0,0.0,0.0,0.0,0.0,0.0,0.0,0.0,0.0,0.0,0.0,0.0,0.0,0.0,0.0,0.0,0.0,0.0,0.0,0.0,0.0,0.0,0.0,0.0,0.0,0.0,0.0,0.0,0.0,0.0,0.0,0.0,0.0,0.0,0.0,0.0,0.0,0.0,0.0,0.0,0.0,0.0,0.0,0.0,0.0,0.0,0.0,0.0,0.0,0.0,0.0,0.0,0.0,0.0,0.0,0.0,0.0,0.0,0.0,0.0,0.0,0.0,0.0,0.0,0.0,0.0,0.0,0.0,0.0,0.0,0.0,0.0,0.0,0.0,0.0,0.0,0.0,0.0,0.0,0.0,0.0,0.0,0.0,0.0,0.0,0.0,0.0,0.0,0.0,0.0,0.0,0.0,0.0,3.0469,3.107,3.184,3.2404,3.2802,3.2205,3.1106,0.0,0.0,0.0,0.0,0.0,0.0,0.0,0.0,0.0,0.0,0.0,0.0,0.0,0.0,0.0,0.0,0.0,0.0,0.0,0.0,0.0,0.0,0.0,0.0,0.0,0.0,0.0,0.0,0.0,0.0,0.0,0.0,0.0,0.0,0.0,0.0,0.0,0.0,0.0,0.0,0.0,0.0,0.0,0.0,0.0,0.0,0.0,0.0,0.0,0.0,0.0,0.0,0.0,0.0,0.0,0.0,0.0,0.0,0.0,0.0,0.0,0.0,0.0,0.0,0.0,0.0,0.0,0.0,0.0,0.0,0.0,0.0,0.0,0.0,0.0,0.0,0.0,0.0,0.0,0.0,0.0,0.0,0.0,0.0,0.0,0.0,0.0,0.0,0.0,0.0,0.0,0.0,0.0,0.0,0.0,0.0,0.0,0.0,0.0,0.0,0.0,0.0,0.0,0.0,0.0,0.0,0.0,0.0,3.1145,3.1581,3.1681,3.2012,3.2663,3.3176,3.2232,0.0,0.0,0.0,0.0,0.0,0.0,0.0,0.0,0.0,0.0,0.0,0.0,0.0,0.0,0.0,0.0,0.0,0.0,0.0,0.0,0.0,0.0,0.0,0.0,0.0,0.0,0.0,0.0,0.0,0.0,0.0,0.0,0.0,0.0,0.0,0.0,0.0,0.0,0.0,0.0,0.0,0.0,0.0,0.0,0.0,0.0,0.0,0.0,0.0,0.0,0.0,0.0,0.0,0.0,0.0,0.0,0.0,0.0,0.0,0.0,0.0,0.0,0.0,0.0,0.0,0.0,0.0,0.0,0.0,0.0,0.0,0.0,0.0,0.0,0.0,0.0,0.0,0.0,0.0,0.0,0.0,0.0,0.0,0.0,0.0,0.0,0.0,0.0,0.0,0.0,0.0,0.0,0.0,0.0,0.0,0.0,0.0,0.0,0.0,0.0,0.0,0.0,0.0,0.0,0.0,0.0,0.0,0.0,3.1615,3.1598,3.2183,3.2547,3.2685,3.1735,3.0903,0.0,0.0,0.0,0.0,0.0,0.0,0.0,0.0,0.0,0.0,0.0,0.0,0.0,0.0,0.0,0.0,0.0,0.0,0.0,0.0,0.0,0.0,0.0,0.0,0.0,0.0,0.0,0.0,0.0,0.0,0.0,0.0,0.0,0.0,0.0,0.0,0.0,0.0,0.0,0.0,0.0,0.0,0.0,0.0,0.0,0.0,0.0,0.0,3.9365,0.0,0.0,0.0,0.0,0.0,0.0,0.0,0.0,0.0,0.0,0.0,0.0,0.0,0.0,0.0,0.0,0.0,0.0,0.0,0.0,0.0,0.0,0.0,0.0,0.0,0.0,0.0,0.0,0.0,0.0,0.0,0.0,0.0,0.0,0.0,0.0,0.0,0.0,0.0,0.0,0.0,0.0,0.0,0.0,0.0,0.0,0.0,0.0,0.0,0.0,0.0,0.0,0.0,0.0,0.0,0.0,0.0,0.0,0.0,3.1577,3.1118,3.1818,3.2073,3.1845,3.1292,3.0853,0.0,0.0,0.0,0.0,0.0,0.0,0.0,0.0,0.0,0.0,0.0,0.0,0.0,0.0,0.0,0.0,0.0,0.0,0.0,0.0,0.0,0.0,0.0,0.0,0.0,0.0,0.0,0.0,0.0,0.0,0.0,0.0,0.0,0.0,0.0,0.0,0.0,0.0,0.0,0.0,0.0,0.0,0.0,0.0,0.0,0.0,0.0,0.0,0.0,0.0,0.0,0.0,0.0,0.0,0.0,0.0,0.0,0.0,0.0,0.0,0.0,0.0,0.0,0.0,0.0,0.0,0.0,0.0,0.0,0.0,0.0,0.0,0.0,0.0,0.0,0.0,0.0,0.0,0.0,0.0,0.0,0.0,0.0,0.0,0.0,0.0,0.0,0.0,0.0,0.0,0.0,0.0,0.0,0.0,0.0,0.0,0.0,0.0,0.0,0.0,0.0,0.0,0.0,0.0,0.0,0.0,0.0,3.0692,3.1269,3.062,3.116,3.1314,3.0924,3.139,3.1236,3.0373,0.0,0.0,0.0,0.0,0.0,0.0,0.0,0.0,0.0,0.0,0.0,0.0,0.0,0.0,0.0,0.0,0.0,0.0,0.0,0.0,0.0,0.0,0.0,0.0,0.0,0.0,0.0,0.0,0.0,0.0,0.0,0.0,0.0,0.0,0.0,0.0,0.0,0.0,3.851,3.9686,0.0,0.0,0.0,0.0,0.0,0.0,0.0,0.0,4.1591,0.0,0.0,0.0,0.0,0.0,0.0,0.0,0.0,0.0,0.0,0.0,0.0,0.0,0.0,0.0,0.0,0.0,0.0,0.0,0.0,0.0,0.0,0.0,0.0,0.0,0.0,0.0,0.0,0.0,0.0,0.0,0.0,0.0,0.0,0.0,0.0,0.0,0.0,0.0,0.0,0.0,0.0,0.0,0.0,0.0,0.0,0.0,0.0,0.0,0.0,0.0,0.0,0.0,0.0,0.0,0.0,3.0149,3.0547,3.0754,3.0819,3.0949,3.0985,3.0917,3.1554,3.1193,2.9691,0.0,0.0,0.0,0.0,0.0,0.0,0.0,0.0,0.0,0.0,0.0,0.0,0.0,0.0,0.0,0.0,0.0,0.0,0.0,0.0,0.0,0.0,0.0,0.0,0.0,0.0,0.0,0.0,0.0,0.0,0.0,0.0,0.0,0.0,0.0,0.0,0.0,0.0,0.0,4.0729,4.1326,0.0,0.0,0.0,0.0,0.0,0.0,0.0,0.0,4.2456,0.0,0.0,0.0,0.0,0.0,0.0,0.0,0.0,0.0,0.0,0.0,0.0,0.0,0.0,0.0,0.0,0.0,0.0,0.0,0.0,0.0,0.0,0.0,0.0,0.0,0.0,0.0,0.0,0.0,0.0,0.0,0.0,0.0,0.0,0.0,0.0,0.0,0.0,0.0,0.0,0.0,0.0,0.0,0.0,0.0,0.0,0.0,0.0,0.0,0.0,0.0,0.0,0.0,0.0,0.0,2.9427,3.0149,3.0566,3.068,3.0461,3.0377,3.0423,3.0485,2.9738,0.0,0.0,0.0,0.0,0.0,0.0,0.0,0.0,0.0,0.0,0.0,0.0,0.0,0.0,0.0,0.0,0.0,0.0,0.0,0.0,0.0,0.0,0.0,0.0,0.0,0.0,0.0,0.0,0.0,0.0,0.0,0.0,0.0,0.0,0.0,0.0,0.0,0.0,0.0,0.0,4.0691,4.116,4.1889,0.0,0.0,0.0,0.0,0.0,0.0,4.1905,4.2804,0.0,0.0,0.0,0.0,0.0,0.0,0.0,0.0,0.0,0.0,0.0,0.0,0.0,0.0,0.0,0.0,0.0,0.0,0.0,0.0,0.0,0.0,0.0,0.0,0.0,0.0,0.0,0.0,0.0,0.0,0.0,0.0,0.0,0.0,0.0,0.0,0.0,0.0,0.0,0.0,0.0,0.0,0.0,0.0,0.0,0.0,0.0,0.0,0.0,0.0,0.0,0.0,0.0,0.0,0.0,2.8522,2.9818,3.053,3.0578,3.0364,3.0225,3.0203,2.9816,2.874,0.0,0.0,0.0,0.0,0.0,0.0,0.0,0.0,0.0,0.0,0.0,0.0,0.0,0.0,0.0,0.0,0.0,0.0,0.0,0.0,0.0,0.0,0.0,0.0,0.0,0.0,0.0,0.0,0.0,0.0,0.0,0.0,0.0,0.0,0.0,0.0,0.0,0.0,0.0,0.0,0.0,4.1293,4.1972,4.1491,0.0,0.0,0.0,0.0,4.0878,4.2137,0.0,0.0,0.0,0.0,0.0,0.0,0.0,0.0,0.0,0.0,0.0,0.0,0.0,0.0,0.0,0.0,0.0,0.0,0.0,0.0,0.0,0.0,0.0,0.0,0.0,0.0,0.0,0.0,0.0,0.0,0.0,0.0,0.0,0.0,0.0,0.0,0.0,0.0,0.0,0.0,0.0,0.0,0.0,0.0,0.0,0.0,0.0,0.0,0.0,0.0,0.0,0.0,0.0,0.0,0.0,0.0,2.8426,2.9781,3.0613,3.0878,3.1426,3.1509,3.101,3.0972,2.9975,0.0,0.0,0.0,0.0,0.0,0.0,0.0,0.0,0.0,0.0,0.0,0.0,0.0,0.0,0.0,0.0,0.0,0.0,0.0,0.0,0.0,0.0,0.0,0.0,0.0,0.0,0.0,0.0,0.0,0.0,0.0,0.0,0.0,0.0,0.0,0.0,0.0,0.0,0.0,0.0,0.0,4.2601,4.0906,4.2137,4.2837,0.0,0.0,4.1595,4.2158,4.191,0.0,0.0,0.0,0.0,0.0,0.0,0.0,0.0,0.0,0.0,0.0,0.0,0.0,0.0,0.0,0.0,0.0,0.0,0.0,0.0,0.0,0.0,0.0,0.0,0.0,0.0,0.0,0.0,0.0,0.0,0.0,0.0,0.0,0.0,0.0,0.0,0.0,0.0,0.0,0.0,0.0,0.0,0.0,0.0,0.0,0.0,0.0,0.0,0.0,0.0,0.0,0.0,0.0,0.0,0.0,2.8276,2.8986,3.0394,3.1379,3.1894,3.1987,3.207,3.2159,3.0808,2.9501,0.0,0.0,0.0,0.0,0.0,0.0,0.0,0.0,0.0,0.0,0.0,0.0,0.0,0.0,0.0,0.0,0.0,0.0,0.0,0.0,0.0,0.0,0.0,0.0,0.0,0.0,0.0,0.0,0.0,0.0,0.0,0.0,0.0,0.0,0.0,0.0,0.0,0.0,0.0,0.0,0.0,0.0,4.1707,4.2738,0.0,0.0,0.0,4.2258,4.3019,0.0,0.0,0.0,0.0,0.0,0.0,0.0,0.0,0.0,0.0,0.0,0.0,0.0,0.0,0.0,0.0,0.0,0.0,0.0,0.0,0.0,0.0,0.0,0.0,0.0,0.0,0.0,0.0,0.0,0.0,0.0,0.0,0.0,0.0,0.0,0.0,0.0,0.0,0.0,0.0,0.0,0.0,0.0,0.0,0.0,0.0,0.0,0.0,0.0,0.0,0.0,0.0,0.0,0.0,0.0,0.0,0.0,2.9413,3.1217,3.2431,3.2961,3.284,3.2924,3.3202,3.1077,0.0,0.0,0.0,0.0,0.0,0.0,0.0,0.0,0.0,0.0,0.0,0.0,0.0,0.0,0.0,0.0,0.0,0.0,0.0,0.0,0.0,0.0,0.0,0.0,0.0,0.0,0.0,2.9055,0.0,0.0,0.0,0.0,0.0,0.0,0.0,0.0,0.0,0.0,0.0,0.0,0.0,0.0,4.3214,4.282,4.3383,4.434,0.0,0.0,4.2754,4.3482,4.282,4.2291,0.0,0.0,0.0,0.0,0.0,0.0,0.0,0.0,0.0,0.0,0.0,0.0,0.0,0.0,0.0,0.0,0.0,0.0,0.0,0.0,0.0,0.0,0.0,0.0,0.0,0.0,0.0,0.0,0.0,0.0,0.0,0.0,0.0,0.0,0.0,0.0,0.0,0.0,0.0,0.0,0.0,0.0,0.0,0.0,0.0,0.0,0.0,0.0,0.0,0.0,0.0,0.0,0.0,0.0,2.9367,2.9479,3.2216,3.3657,3.374,3.4362,3.4479,3.4028,3.2595,3.0923,0.0,0.0,0.0,0.0,0.0,0.0,0.0,0.0,0.0,0.0,0.0,0.0,0.0,0.0,0.0,0.0,0.0,0.0,0.0,0.0,0.0,0.0,0.0,0.0,0.0,0.0,0.0,0.0,0.0,0.0,0.0,0.0,0.0,0.0,0.0,0.0,0.0,0.0,0.0,0.0,0.0,4.5069,4.3714,4.4158,4.4887,0.0,4.3943,4.2738,4.3499,4.2406,4.1695,4.239,0.0,0.0,0.0,0.0,0.0,0.0,0.0,0.0,0.0,0.0,0.0,0.0,0.0,0.0,0.0,0.0,0.0,0.0,0.0,0.0,0.0,0.0,0.0,0.0,0.0,0.0,0.0,0.0,0.0,0.0,0.0,0.0,0.0,0.0,0.0,0.0,0.0,0.0,0.0,0.0,0.0,0.0,0.0,0.0,0.0,0.0,0.0,0.0,0.0,0.0,0.0,0.0,0.0,2.9612,3.0092,3.2531,3.4005,3.4468,3.475,3.4787,3.4594,3.3205,3.1557,0.0,0.0,0.0,0.0,0.0,0.0,0.0,0.0,0.0,0.0,0.0,0.0,0.0,0.0,0.0,0.0,0.0,0.0,0.0,0.0,0.0,0.0,0.0,0.0,0.0,0.0,0.0,0.0,3.1686,3.2332,3.3508,0.0,0.0,0.0,0.0,0.0,0.0,0.0,0.0,0.0,0.0,4.4903,4.4357,4.4903,0.0,0.0,4.4688,4.3959,4.4224,4.3446,4.2853,4.3135,4.2555,0.0,0.0,0.0,0.0,0.0,0.0,0.0,0.0,0.0,0.0,0.0,0.0,0.0,0.0,0.0,0.0,0.0,0.0,0.0,0.0,0.0,0.0,0.0,0.0,0.0,0.0,0.0,0.0,0.0,0.0,0.0,0.0,0.0,0.0,0.0,0.0,0.0,0.0,0.0,0.0,0.0,0.0,0.0,0.0,0.0,0.0,0.0,0.0,0.0,0.0,0.0,0.0,3.0423,3.1172,3.3127,3.4485,3.5197,3.5015,3.4899,3.4866,3.3344,3.1751,0.0,0.0,0.0,0.0,0.0,0.0,0.0,0.0,0.0,0.0,0.0,0.0,0.0,0.0,0.0,0.0,0.0,0.0,0.0,0.0,0.0,0.0,0.0,0.0,0.0,0.0,0.0,0.0,3.3564,3.4087,3.5114,0.0,0.0,0.0,0.0,0.0,0.0,0.0,0.0,0.0,0.0,4.4937,4.4721,4.5135,4.5549,4.5765,4.4986,4.4423,4.4655,4.4062,4.3664,4.391,0.0,0.0,0.0,0.0,0.0,0.0,0.0,0.0,0.0,0.0,0.0,0.0,0.0,0.0,0.0,0.0,0.0,0.0,0.0,0.0,0.0,0.0,0.0,0.0,0.0,0.0,0.0,3.1058,0.0,0.0,2.8874,0.0,0.0,0.0,0.0,0.0,0.0,0.0,0.0,0.0,0.0,0.0,0.0,0.0,0.0,0.0,0.0,0.0,0.0,0.0,0.0,0.0,0.0,3.1918,3.2646,3.4087,3.5214,3.5926,3.5263,3.4883,3.4833,3.3041,3.1653,3.0852,0.0,0.0,0.0,0.0,0.0,0.0,0.0,0.0,0.0,0.0,0.0,0.0,0.0,0.0,0.0,0.0,0.0,0.0,0.0,0.0,0.0,0.0,0.0,0.0,0.0,0.0,3.4982,3.5495,3.5893,0.0,0.0,0.0,0.0,0.0,0.0,0.0,0.0,0.0,0.0,4.4406,4.55,4.4787,4.4705,4.4986,4.5665,4.4589,4.3896,4.4605,4.4125,4.383,0.0,0.0,0.0,0.0,0.0,0.0,0.0,0.0,0.0,0.0,0.0,0.0,0.0,0.0,0.0,0.0,0.0,0.0,0.0,0.0,0.0,0.0,0.0,0.0,0.0,0.0,0.0,3.3575,3.2611,0.0,0.0,0.0,0.0,0.0,0.0,0.0,0.0,0.0,0.0,0.0,3.4536,3.5885,0.0,0.0,0.0,0.0,0.0,0.0,0.0,0.0,0.0,0.0,0.0,0.0,3.2718,3.3425,3.4386,3.5263,3.5976,3.528,3.4667,3.417,3.3551,3.2389,3.069,0.0,0.0,0.0,0.0,0.0,0.0,0.0,0.0,0.0,0.0,0.0,0.0,0.0,0.0,0.0,0.0,0.0,0.0,0.0,0.0,0.0,0.0,0.0,0.0,0.0,3.7226,0.0,0.0,0.0,0.0,0.0,0.0,0.0,0.0,0.0,0.0,0.0,4.5516,4.4787,4.5544,4.5842,4.4823,4.4504,4.4542,0.0,0.0,0.0,0.0,0.0,0.0,0.0,0.0,0.0,0.0,0.0,0.0,0.0,0.0,4.5864,4.4415,4.354,4.3199,4.3669,0.0,0.0,0.0,0.0,0.0,0.0,0.0,0.0,0.0,0.0,0.0,0.0,0.0,0.0,3.5932,0.0,3.4157,0.0,0.0,0.0,0.0,0.0,0.0,0.0,0.0,3.67,3.7379,3.6678,3.7536,3.7461,0.0,3.6812,3.6314,0.0,0.0,0.0,0.0,0.0,0.0,0.0,0.0,3.4094,3.4568,3.5032,3.5628,3.629,3.5413,3.4667,3.4187,3.3672,3.2298,2.9984,2.9311,2.8437,0.0,0.0,0.0,0.0,0.0,0.0,0.0,0.0,0.0,0.0,0.0,0.0,0.0,0.0,0.0,0.0,0.0,0.0,0.0,0.0,0.0,0.0,0.0,3.7923,0.0,0.0,0.0,0.0,0.0,0.0,0.0,0.0,0.0,4.3995,4.5914,4.7106,4.6626,4.6797,4.6485,4.5237,0.0,0.0,0.0,0.0,0.0,0.0,0.0,4.6438,4.624,4.5896,4.5859,4.6526,4.6914,4.6879,4.6086,0.0,0.0,4.5228,4.4731,4.4617,4.4859,4.4908,4.4958,4.52,4.5516,4.5333,0.0,0.0,0.0,0.0,0.0,0.0,0.0,0.0,3.8129,3.835,0.0,3.7132,0.0,0.0,0.0,0.0,3.3117,3.5724,0.0,0.0,3.836,3.9319,3.9276,3.9302,3.9335,3.9358,3.9989,3.9972,3.9176,3.6497,0.0,0.0,0.0,0.0,0.0,0.0,3.6059,3.6059,3.6009,3.6357,3.7019,3.5661,3.4883,3.4842,3.3437,3.1541,2.914,2.9746,2.9232,2.7253,2.837,0.0,0.0,0.0,0.0,0.0,0.0,0.0,0.0,0.0,0.0,0.0,0.0,0.0,0.0,0.0,0.0,0.0,0.0,0.0,0.0,3.8363,0.0,0.0,0.0,0.0,0.0,0.0,0.0,0.0,0.0,0.0,4.5138,4.6792,4.8067,4.7984,0.0,0.0,0.0,0.0,4.4585,4.4325,4.4262,4.487,4.652,4.6243,4.6309,4.7554,0.0,0.0,4.6285,4.6044,4.5984,4.6246,4.6553,4.6914,4.7185,4.6633,4.649,4.7081,4.615,4.5559,4.609,4.6001,4.5385,4.0757,0.0,0.0,0.0,0.0,4.129,4.169,4.2195,4.2172,4.1654,4.0683,3.975,0.0,0.0,0.0,0.0,0.0,0.0,3.8044,3.8581,3.953,3.9873,3.9729,3.9961,3.9961,3.978,4.0414,4.0648,4.0431,3.9837,3.8493,3.6522,0.0,0.0,0.0,0.0,3.7052,3.7483,3.6539,3.6357,3.7102,3.5661,3.4811,3.4618,3.3174,3.2214,3.1807,3.1542,3.0867,2.9769,2.9926,0.0,0.0,0.0,0.0,0.0,0.0,0.0,0.0,0.0,0.0,0.0,0.0,0.0,0.0,0.0,0.0,0.0,0.0,0.0,3.8064,3.8504,3.9105,0.0,0.0,0.0,0.0,0.0,0.0,0.0,0.0,0.0,4.7819,4.9293,4.9756,0.0,0.0,4.777,4.6048,4.5207,4.4983,4.5619,4.5489,0.0,4.6698,4.6698,4.6484,4.6111,4.6,4.592,4.5972,4.626,4.6397,4.6031,4.6402,4.6698,4.6312,4.6491,4.6697,4.6871,4.6602,4.6412,4.657,4.6228,4.5523,4.2368,4.2004,4.1357,4.1568,4.2268,4.2286,4.2708,4.3348,4.3072,4.2692,4.2228,4.151,4.0588,3.9572,3.9128,0.0,0.0,0.0,3.9656,3.9877,4.0158,4.0229,4.0112,4.0277,4.0237,3.9934,4.0581,4.0829,4.0702,4.1172,4.0249,3.8079,0.0,0.0,3.7367,3.8046,3.8328,3.8179,3.7308,3.6953,3.7085,3.5563,3.4667,3.448,3.3437,3.287,3.2869,3.2593,3.199,3.1006,3.1214,3.1078,0.0,0.0,0.0,0.0,0.0,0.0,0.0,0.0,0.0,0.0,0.0,3.7067,3.6537,0.0,0.0,0.0,3.7856,3.8676,3.9101,3.9969,0.0,0.0,0.0,0.0,0.0,0.0,0.0,4.7443,4.8199,4.8725,4.9095,5.0101,5.0338,4.9044,4.8675,4.803,4.6633,0.0,4.5371,4.5794,4.569,4.584,4.6715,4.6359,4.5792,4.5183,4.5477,4.5792,4.5823,4.6139,4.625,4.5981,4.6139,4.6281,4.5886,4.6139,4.6408,4.6408,4.6408,4.6408,4.6408,4.5855,4.5159,4.3372,4.3965,4.2486,4.1858,4.1807,4.1807,4.2225,4.2853,4.2137,4.243,4.3375,4.2685,4.2155,4.1795,4.1758,0.0,4.0651,4.1353,4.1236,4.0514,4.0497,4.0449,4.04,4.0424,4.0262,3.9918,4.0581,4.0722,4.0481,4.1077,4.0746,3.9531,4.0763,4.0663,3.9332,3.9928,3.9647,3.8328,3.8176,3.7779,3.6927,3.5317,3.4448,3.4423,3.3949,3.339,3.2798,3.3075,3.2708,3.1492,3.2208,3.2364,3.1709,0.0,0.0,0.0,0.0,0.0,0.0,0.0,0.0,0.0,0.0,0.0,0.0,0.0,0.0,0.0,3.844,0.0,4.0737,4.2202,0.0,0.0,0.0,4.5106,4.5959,4.6904,4.7638,4.8045,0.0,0.0,4.9224,4.9617,5.0,4.9949,4.9084,4.8206,4.7469,4.6447,4.5669,4.5312,4.5192,4.5531,4.628,4.5563,4.4847,4.4911,4.5333,4.5728,4.5871,4.5839,4.5839,4.5934,4.5871,4.5823,4.5823,4.5839,4.5807,4.5855,4.5839,4.5823,4.5697,4.5144,4.4397,4.3371,4.4077,4.3702,4.3874,4.4412,4.4412,4.4841,4.5489,4.4733,4.4561,4.4768,4.4012,4.3257,4.2592,4.2284,4.2045,4.1878,4.1696,4.152,4.1323,4.1323,4.099,4.0441,4.0707,4.0524,3.9977,4.0581,4.0855,4.0809,4.1183,4.1243,4.0945,4.1243,4.0431,3.856,3.9199,3.9415,3.905,3.8233,3.7091,3.5616,3.4655,3.4101,3.3899,3.3787,3.3527,3.316,3.324,3.3151,3.2835,3.3013,3.2827,3.2146,3.1498,0.0,0.0,0.0,0.0,0.0,0.0,0.0,0.0,0.0,3.8881,3.7326,0.0,4.0059,0.0,4.0308,4.1469,4.2751,4.3006,0.0,0.0,4.6403,4.6962,4.872,4.8929,4.9213,4.9839,5.0259,5.0133,4.9135,4.9175,4.8858,4.7849,4.7944,4.786,4.7127,4.6574,4.5958,4.5371,4.5066,4.4899,4.5128,4.4954,4.4891,4.546,4.5238,4.5333,4.6376,4.6139,4.5981,4.6408,4.6139,4.5855,4.5807,4.5807,4.5807,4.5807,4.5807,4.5649,4.5096,4.4448,4.3734,4.4222,4.4621,4.4621,4.4892,4.5291,4.5291,4.5544,4.5924,4.549,4.5291,4.5273,4.482,4.4308,4.3758,4.3214,4.2846,4.264,4.24,4.2049,4.1622,4.1973,4.1603,4.0683,4.089,4.0621,3.9918,4.0288,4.0342,4.0217,4.0375,4.0464,4.0464,4.0448,3.9868,3.8758,3.9431,3.963,3.9299,3.8245,3.7171,3.6114,3.5255,3.4625,3.4164,3.4346,3.4086,3.3324,3.3593,3.3467,3.2908,3.285,3.2829,3.2734,3.2076,3.195,0.0,0.0,0.0,0.0,0.0,0.0,0.0,0.0,0.0,0.0,0.0,4.123,4.1151,4.2574,4.3891,4.4936,4.5403,4.6426,4.8253,4.8297,4.8642,4.9797,4.978,4.9878,5.0438,5.0099,4.9531,4.8863,4.834,4.7638,4.6564,4.6756,4.6924,4.666,4.6317,4.5941,4.5555,4.535,4.4938,4.4366,4.4796,4.5076,4.4938,4.5065,4.5491,4.6202,4.606,4.595,4.625,4.6044,4.5807,4.5807,4.5807,4.5807,4.5807,4.5807,4.5539,4.4859,4.418,4.3548,4.5345,4.5436,4.5454,4.5526,4.5617,4.5599,4.5562,4.5436,4.5345,4.5271,4.5251,4.5251,4.5111,4.4812,4.4163,4.3575,4.3103,4.3059,4.2542,4.1657,4.2324,4.2026,4.0931,4.0995,4.0597,3.9901,3.9884,3.9703,3.9379,3.9325,3.9315,3.9315,3.9315,3.9272,3.9278,3.9891,3.9836,3.9137,3.8111,3.7454,3.7213,3.6245,3.5436,3.4835,3.5078,3.4683,3.3514,3.4083,3.392,3.2797,3.2876,3.3193,3.3656,3.3066,3.3177,0.0,3.4383,0.0,0.0,0.0,0.0,0.0,0.0,0.0,0.0,4.1873,4.2252,4.2884,4.4701,4.6092,4.674,4.7909,4.8889,4.9568,4.9663,4.9663,4.9647,4.9663,4.9781,5.0138,4.9358,4.8663,4.8286,4.7389,4.655,4.5986,4.5911,4.602,4.6156,4.5992,4.5828,4.5807,4.5649,4.4907,4.4148,4.4812,4.5223,4.4255,4.4938,4.5792,4.5823,4.5713,4.5697,4.5792,4.5728,4.5681,4.5776,4.5807,4.5807,4.5807,4.5713,4.5412,4.4808,4.4169,4.3712,4.5671,4.6269,4.6287,4.6667,4.7246,4.7265,4.6884,4.6232,4.558,4.519,4.497,4.4991,4.4866,4.465,4.4347,4.3789,4.3098,4.2938,4.2404,4.1604,4.1762,4.1366,4.0563,4.086,4.0597,3.991,3.9884,3.9875,3.9798,3.9458,3.9315,3.9315,3.9315,3.9148,3.8914,0.0,0.0,0.0,3.744,3.689,3.6578,3.5855,3.5415,3.5257,3.4758,0.0,3.4146,3.481,3.509,3.4885,3.5913,0.0,0.0,0.0,0.0,0.0,0.0,0.0,0.0,0.0,0.0,0.0,4.1825,4.2189,4.2473,4.3485,4.418,4.4338,4.5238,4.6076,4.674,4.7024,4.7498,4.8193,4.8288,4.8288,4.8272,4.8304,4.8326,4.8349,4.82,4.7852,4.7246,4.6903,4.655,4.5902,4.5807,4.5844,4.5916,4.5859,4.5807,4.576,4.4986,4.4117,4.3734,4.4397,4.4954,4.467,4.5223,4.5776,4.5776,4.5302,4.5175,4.5618,4.5317,4.5112,4.5649,4.5807,4.5728,4.5807,4.5333,4.4875,4.4713,4.4214,4.3604,4.6739,4.7102,4.7099,4.7337,0.0,4.7699,4.7401,4.688,4.6587,4.6326,4.6076,4.5986,4.5574,4.4978,4.4493,4.3797,4.2961,4.2843,4.2377,4.1639,4.2026,4.1551,4.04,4.0802,4.0483,3.9616,3.9781,3.9798,3.959,3.9405,3.9315,3.9315,3.9137,3.8985,3.8805,3.8483,3.8201,3.7915,3.7578,3.7246,3.6956,3.6611,3.6263,3.5916,3.6216,0.0,0.0,0.0,0.0,0.0,0.0,0.0,0.0,3.5947,0.0,3.6327,3.6722,3.7085,3.745,3.9076,4.0482,4.1509,4.2584,4.3342,4.3658,4.4938,4.5744,4.576,4.6408,4.6992,4.7308,4.734,4.7482,4.7846,4.7909,4.7909,4.7909,4.7909,4.7909,4.7861,4.7577,4.7103,4.6408,4.6313,4.6029,4.5428,4.5586,4.5902,4.6187,4.6013,4.5807,4.5807,4.5286,4.4496,4.3924,4.4587,4.4938,4.4543,4.5096,4.5728,4.5807,4.5207,4.4843,4.5144,4.4685,4.4354,4.4638,4.4764,4.4891,4.5144,4.4954,4.4875,4.5112,4.4719,4.4034,4.7699,4.7699,4.7699,4.7699,4.7696,4.7639,4.7399,4.7042,0.0,0.0,0.0,4.6645,4.6013,4.5104,4.4509,4.3724,4.2833,4.2775,4.2377,4.1639,4.2181,4.1742,4.0441,4.0819,4.0451,3.9458,3.9807,3.9781,3.9405,3.9325,3.9272,3.9191,3.8914,3.875,3.8623,3.8087,3.7828,3.7844,3.7828,3.7727,3.7494,3.751,3.7241,3.6627,3.7733,3.7796,3.669,3.7938,3.8066,3.6835,3.6485,3.6706,3.7589,3.6564,3.6643,3.8175,3.8414,3.8523,3.8539,3.9819,4.0941,4.1764,4.309,4.4097,4.4685,4.576,4.6487,4.6613,4.7182,4.7514,4.7514,4.7514,4.753,4.753,4.753,4.753,4.753,4.753,4.7466,4.7466,4.6977,4.6376,4.5713,4.5602,4.5365,4.478,4.5001,4.5697,4.6234,4.6155,4.5997,4.5823,4.5523,4.5112,4.4366,4.4733,4.5049,4.4022,4.4891,4.5649,4.527,4.4859,4.4527,4.429,4.3864,4.3643,4.3674,4.3927,4.4003,4.4448,4.4654,4.4808,4.5131,4.4921,4.4407,4.7699,4.7699,4.7699,4.7699,4.7678,4.745,4.6859,4.6034,4.6056,4.5905,4.562,4.4981,4.4468,4.4091,4.3986,4.3541,4.2793,4.2775,4.2377,4.16,4.1354,4.0963,4.0424,4.0819,4.0573,3.9884,4.0162,4.0154,3.9807,3.9458,3.9164,3.8903,3.8832,3.8539,3.803,3.7714,3.7553,3.7553,3.7569,3.7524,3.751,3.751,3.7478,3.7368,3.7528,3.7573,3.737,3.8649,3.9013,3.8286,3.9281,3.9439,3.8428,3.8128,3.7938,3.7686,3.8175,3.8523,3.8539,3.9835,4.1162,4.2442,4.3801,4.4622,4.4701,4.4891,4.5234,4.5871,4.6044,4.6108,4.6108,4.6123,4.6139,4.6123,4.6123,4.6108,4.6187,4.6155,4.6155,4.6155,4.6029,4.5649,4.4954,4.4843,4.4622,4.4018,4.4066,4.4287,4.5049,4.5981,4.6329,4.5871,4.527,4.4828,4.4464,4.467,4.4543,4.3813,4.4843,4.5191,4.3706,4.369,4.3674,4.3121,4.2932,4.3042,4.3466,4.4196,4.4164,4.3974,4.4196,4.439,4.3747,4.3759,4.4064,4.7699,4.7699,4.7699,4.7615,4.7468,4.708,4.6407,4.5546,4.5007,4.4784,4.4767,4.4294,4.3791,4.3325,4.3307,4.2886,4.2148,4.2148,4.1843,4.129,4.1071,4.0693,4.0187,4.0507,4.0286,3.9625,3.9969,3.9927,3.9563,3.9202,3.8958,3.8805,3.8483,3.8103,3.7714,3.7553,3.751,3.751,3.751,3.751,3.751,3.751,3.751,3.751,3.7828,3.8207,3.857,3.955,3.9961,3.9661,3.9866,3.9708,3.9076,3.8365,3.797,3.8017,3.797,3.8112,3.8491,4.0151,4.1415,4.2062,4.3026,4.3611,4.3611,4.3943,4.429,4.4603,4.465,4.4685,4.467,4.4986,4.5207,4.5207,4.5555,4.5807,4.576,4.5412,4.5223,4.5175,4.4875,4.4385,4.3706,4.3943,4.3911,4.3327,4.3437,4.3813,4.4082,4.4666,4.5191,4.5124,4.4922,4.4385,4.3848,4.429,4.4211,4.3342,4.4306,4.4559,4.3437,4.3327,4.3011,4.2742,4.2394,4.2236,4.2568,4.2774,4.2979,4.3295,4.3358,4.3378,4.3341,4.3603,4.3778,4.7699,4.7717,4.7636,4.7407,4.7089,4.6387,4.5681,4.4952,4.3874,4.3492,4.3646,4.3487,4.3061,4.257,4.2512,4.2201,4.1657,4.1604,4.1448,4.114,4.0937,4.0573,4.007,4.0212,3.9935,3.9405,3.972,3.9651,3.9218,3.8914,3.8706,3.8583,3.8075,3.7714,3.751,3.751,3.751,3.751,3.751,3.751,3.751,3.751,3.751,3.7557,3.8144,3.876,3.9281,3.9961,4.0277,4.0119,3.9582,3.9218,3.9013,3.8065,3.778,3.8365,3.8017,3.8002,3.876,4.0514,4.1525,4.1399,4.2189,4.2616,4.2505,4.29,4.3374,4.3624,4.375,4.3769,4.3816,4.4164,4.448,4.4492,4.497,4.5254,4.5254,4.4812,4.4496,4.4433,4.4006,4.3487,4.2979,4.3137,4.3169,4.2695,4.3058,4.3469,4.3466,4.3561,4.3892,4.4132,4.4385,4.4132,4.3137,4.3753,4.3895,4.2868,4.369,4.388,4.3358,4.2821,4.2616,4.2426,4.1983,4.1731,4.1636,4.1841,4.2094,4.2442,4.2647,4.2813,4.2841,4.2747,4.2787,4.7699,4.7657,4.7468,4.7057,4.6524,4.5179,4.4387,4.3898,4.2464,4.1797,4.1947,4.1837,4.1832,4.171,4.1745,4.1692,4.1604,4.1604,4.156,4.1408,4.0778,4.0417,4.0269,4.007,3.9729,3.9379,3.9694,3.9494,3.8876,3.8805,3.8511,3.8017,3.7685,3.7539,3.751,3.751,3.751,3.751,3.751,3.751,3.751,3.751,3.751,3.751,3.8144,3.8508,3.8649,3.925,3.9329,3.8729,3.8713,3.8333,3.778,3.7589,3.7812,3.8445,3.8429,3.8713,3.9424,4.0767,4.1367,4.0862,4.1952,4.241,4.181,4.1778,4.2363,4.3276,4.364,4.3576,4.3687,4.3737,4.3785,4.3816,4.3959,4.3895,4.4006,4.3832,4.3782,4.3766,4.3722,4.3456,4.2853,4.2805,4.2537,4.2031,4.2428,4.2774,4.2821,4.3184,4.3327,4.3137,4.3342,4.3643,4.3453,4.3624,4.3437,4.2868,4.3279,4.3216,4.2505,4.2363,4.2505,4.1968,4.1715,4.1604,4.1731,4.208,4.2268,4.1968,4.212,4.2357,4.1459,4.093,4.0642,4.7699,4.7678,4.7425,4.7035,4.6454,4.5282,4.4419,4.3799,4.278,4.2061,4.1622,4.1604,4.1604,4.1604,4.1604,4.1604,4.1604,4.1604,4.134,4.0896,4.0521,4.0153,3.9747,3.9609,3.9335,3.904,3.9158,3.9013,3.86,3.8359,3.8075,3.7685,3.7524,3.751,3.751,3.751,3.751,3.751,3.751,3.751,3.751,3.751,3.751,3.7541,3.7765,3.8112,3.8539,3.9155,3.936,3.9155,3.9503,3.9424,3.8713,3.8681,3.8792,3.9108,3.9518,3.9866,4.0135,4.1462,4.1936,4.1241,4.211,4.2378,4.1667,4.1588,4.1873,4.2315,4.2457,4.2473,4.2521,4.2837,4.309,4.3169,4.3453,4.3848,4.4259,4.3908,4.3687,4.3671,4.3342,4.306,4.2758,4.2695,4.2568,4.222,4.2254,4.2078,4.2078,4.2299,4.2299,4.2141,4.2284,4.241,4.2521,4.2868,4.2726,4.2394,4.2631,4.2647,4.1999,4.1778,4.1904,4.162,4.1604,4.1588,4.1588,4.1746,4.1904,4.1617,4.1299,4.1217,4.0058,3.9921,3.9786,4.7575,4.7533,4.7254,4.6893,4.6382,4.5281,4.4431,4.3799,4.2886,4.2148,4.1639,4.1604,4.1604,4.1604,4.1604,4.1604,4.1582,4.1475,4.114,4.0563,4.0368,3.9961,3.9468,3.9245,3.904,3.8832,3.8722,3.8528,3.8278,3.7931,3.7685,3.7539,3.751,3.751,3.751,3.751,3.751,3.751,3.751,3.751,3.751,3.751,3.751,3.751,3.751,3.7747,3.8223,3.8871,3.9234,3.9234,3.985,4.0008,3.9503,3.9377,3.9472,3.9676,4.037,4.0764,4.0828,4.1792,4.2157,4.1699,4.2094,4.2191,4.1715,4.1588,4.1683,4.1952,4.1922,4.1904,4.1667,4.2062,4.2426,4.2679,4.3169,4.3706,4.4275,4.394,4.3687,4.3658,4.3342,4.2963,4.2947,4.2821,4.2663,4.26,4.2062,4.1588,4.1588,4.1636,4.1636,4.1588,4.162,4.1636,4.162,4.2015,4.208,4.192,4.211,4.2205,4.1683,4.1636,4.1604,4.1604,4.1588,4.1588,4.1555,4.1571,4.1272,4.1107,4.0783,4.0296,3.9469,3.9557,3.9261,4.7302,4.7236,4.6806,4.6495,4.6098,4.4606,4.3957,4.3799,4.2324,4.1639,4.1582,4.1604,4.1604,4.1542,4.156,4.1582,4.1538,4.1209,4.1001,4.0813,4.0221,3.9884,3.9807,3.9158,3.8805,3.8694,3.8516,3.8234,3.7915,3.7655,3.751,3.751,3.751,3.751,3.751,3.751,3.751,3.751,3.751,3.751,3.751,3.751,3.751,3.751,3.751,3.7541,3.7638,3.8207,3.8571,3.854,3.9204,3.9423,3.9361,3.9218,3.9402,3.9996,4.0784,4.1245,4.1278,4.1503,4.1619,4.1604,4.1667,4.1652,4.1587,4.1588,4.1825,4.2521,4.2505,4.2299,4.1778,4.192,4.2173,4.2679,4.2774,4.3169,4.3769,4.3876,4.3737,4.3753,4.3722,4.3674,4.3624,4.309,4.29,4.2695,4.2126,4.1652,4.1683,4.1652,4.1588,4.1588,4.1588,4.1588,4.1588,4.1746,4.1715,4.1652,4.1683,4.1699,4.1636,4.1588,4.1588,4.1588,4.1588,4.1555,4.1489,4.1174,4.0631,4.0339,4.0115,3.96,3.9017,3.9053,3.8826,4.7125,4.6829,4.6684,4.6464,4.6046,4.4571,4.3886,4.3746,4.2254,4.1471,4.1277,4.1475,4.134,4.0849,4.1094,4.1209,4.1186,4.1071,4.0758,4.0279,3.9808,3.9461,3.9158,3.8738,3.8415,3.8246,3.8132,3.7931,3.7655,3.7553,3.751,3.751,3.751,3.751,3.751,3.751,3.751,3.751,3.751,3.751,3.751,3.751,3.751,3.751,3.751,3.751,3.751,3.8479,3.8999,3.9031,3.9923,4.0435,4.0435,4.0402,4.0462,4.0678,4.0995,4.1153,4.1187,4.1236,4.1303,4.1288,4.1372,4.1372,4.1355,4.1472,4.1666,4.1866,4.244,4.2505,4.2489,4.2679,4.3058,4.3279,4.3374,4.3611,4.4164,4.4354,4.4338,4.4338,4.4354,4.4354,4.4306,4.4132,4.399,4.388,4.3011,4.2394,4.2189,4.1953,4.1636,4.1604,4.1588,4.1588,4.1588,4.1588,4.1588,4.1588,4.162,4.1636,4.1604,4.1588,4.1588,4.1588,4.1588,4.129,4.1107,4.0581,4.0025,3.958,3.94,3.9169,3.8612,3.8686,3.8501,4.6829,4.6512,4.6471,4.6227,4.5712,4.4466,4.3746,4.3389,4.203,4.1272,4.1071,4.1163,4.0896,4.0497,4.0683,4.0676,4.0514,4.0597,4.0328,3.9722,3.9391,3.9017,3.8667,3.8375,3.8119,3.7915,3.7815,3.7685,3.7539,3.751,3.751,3.751,3.751,3.751,3.751,3.751,3.751,3.751,3.751,3.751,3.751,3.751,3.7464,3.7435,3.7405,3.7405,3.7421,3.8418,3.9062,3.9312,4.015,4.0733,4.0901,4.0882,4.0898,4.0932,4.0966,4.1,4.0984,4.1083,4.1117,4.1117,4.1187,4.1187,4.1117,4.1509,4.1637,4.1792,4.2532,4.3135,4.3312,4.378,4.413,4.4047,4.4018,4.4303,4.4954,4.5065,4.508,4.5065,4.508,4.5065,4.5017,4.4828,4.4701,4.4717,4.3706,4.3074,4.2932,4.2426,4.1936,4.192,4.1746,4.1636,4.1588,4.1588,4.1555,4.1555,4.1555,4.1588,4.1588,4.1588,4.1555,4.1555,4.1307,4.0938,4.0493,3.997,3.9472,3.8995,3.8797,3.8634,3.8389,3.8277,3.824,4.6488,4.6246,4.6196,4.5782,4.5098,4.4185,4.3447,4.2729,4.1551,4.1024,4.089,4.0635,4.0424,4.0326,4.0326,4.0053,3.962,3.9747,3.967,3.9322,3.8936,3.8639,3.8347,3.8046,3.7886,3.7857,3.7626,3.7539,3.751,3.751,3.751,3.751,3.751,3.751,3.751,3.751,3.751,3.751,3.751,3.751,3.751,3.748,3.7405,3.7224,3.7194,3.7194,3.721,3.7932,3.8545,3.9011,3.9549,4.005,4.0466,4.0574,4.0524,4.0558,4.0696,4.0799,4.0799,4.095,4.1049,4.1049,4.1068,4.1068,4.1112,4.1585,4.195,4.2041,4.3055,4.3956,4.4055,4.4617,4.493,4.4768,4.4662,4.4962,4.5503,4.5776,4.5792,4.5728,4.5697,4.5792,4.5649,4.5254,4.4907,4.4749,4.4211,4.3687,4.3542,4.2958,4.2679,4.2519,4.201,4.1519,4.1554,4.1588,4.1555,4.1507,4.1522,4.1555,4.1555,4.1555,4.1423,4.1357,4.0699,4.032,3.9829,3.9343,3.8965,3.8538,3.8389,3.8315,3.8277,3.8202,3.8202,4.6464,4.6151,4.5635,4.5326,4.494,4.3711,4.2991,4.2682,4.1511,4.0843,4.0587,4.0466,4.012,3.9747,3.9705,3.9437,3.9007,3.8914,3.8821,3.8667,3.8343,3.8144,3.8017,3.7772,3.7642,3.7612,3.7569,3.751,3.751,3.751,3.751,3.751,3.751,3.751,3.751,3.751,3.751,3.751,3.751,3.7435,3.73,3.73,3.7194,3.7075,3.7044,3.7014,3.6908,3.7515,3.8199,3.8818,3.932,3.985,4.0351,4.0489,4.0489,4.0489,4.0558,4.0593,4.0593,4.0677,4.0712,4.0712,4.0814,4.0814,4.0746,4.1134,4.1392,4.1401,4.2509,4.3441,4.3628,4.4533,4.5054,4.5055,4.5076,4.5144,4.551,4.5698,4.5807,4.5807,4.5807,4.5807,4.5792,4.5455,4.5392,4.5329,4.4808,4.4346,4.4067,4.3277,4.2689,4.2824,4.2087,4.146,4.1525,4.133,4.1005,4.099,4.1057,4.099,4.1125,4.1075,4.1024,4.0718,4.006,3.958,3.909,3.876,3.8427,3.8315,3.824,3.8202,3.8202,3.8202,3.8202,4.6192,4.5765,4.5308,4.4746,4.4202,4.3167,4.2531,4.2056,4.1185,4.058,4.0237,3.9919,3.9575,3.9158,3.9044,3.8827,3.8455,3.8274,3.8148,3.8078,3.7988,3.7857,3.7756,3.7583,3.751,3.751,3.751,3.751,3.751,3.751,3.751,3.751,3.751,3.751,3.751,3.751,3.751,3.748,3.7435,3.7329,3.7224,3.7134,3.7029,3.6923,3.6908,3.68,3.6677,3.7264,3.7944,3.8685,3.9419,4.0059,4.0459,4.0489,4.0489,4.0489,4.0489,4.0489,4.0489,4.0539,4.0489,4.0524,4.0627,4.0643,4.062,4.095,4.114,4.0947,4.2069,4.2916,4.3102,4.3894,4.4639,4.4964,4.5114,4.5257,4.5405,4.5478,4.5552,4.5552,4.5552,4.5552,4.5589,4.5589,4.5589,4.5473,4.5195,4.486,4.4496,4.374,4.3403,4.2977,4.2263,4.1841,4.1616,4.1143,4.0505,4.0409,4.0428,4.0259,4.0174,4.0034,3.9929,3.9433,3.8848,3.8517,3.8098,3.8127,3.7938,3.7976,3.8052,3.8165,3.8202,3.8202,3.8165,4.5723,4.5133,4.4992,4.4091,4.2905,4.2659,4.1975,4.0993,4.0514,4.012,3.9738,3.9169,3.886,3.8722,3.8528,3.8274,3.7943,3.7902,3.7801,3.77,3.773,3.7775,3.7727,3.781,3.7874,3.781,3.7779,3.7684,3.77,3.7794,3.7589,3.7652,3.7763,3.7668,3.7826,3.7668,3.7749,3.7766,3.7551,3.7461,3.7385,3.7263,3.7095,3.6925,3.6971,3.6925,3.6955,3.7493,3.8015,3.8646,3.9767,4.0413,4.0489,4.0489,4.0489,4.0489,4.0489,4.0489,4.0489,4.0489,4.0489,4.0489,4.0524,4.0489,4.0586,4.0974,4.1082,4.0662,4.1745,4.2515,4.2623,4.3306,4.3954,4.4524,4.4927,4.5129,4.5182,4.522,4.5257,4.5241,4.522,4.522,4.5257,4.5241,4.5257,4.5241,4.5179,4.5116,4.4824,4.4216,4.3748,4.3105,4.2319,4.1771,4.1422,4.0581,3.9935,3.9412,3.9433,3.9239,3.9188,3.9079,3.8934,3.8413,3.7904,3.7553,3.7376,3.7519,3.7572,3.7558,3.7749,3.8037,3.8037,3.7938,3.7863,4.5291,4.4992,4.3886,4.2987,4.2305,4.1754,4.1026,4.0269,3.9834,3.9499,3.9119,3.8722,3.8488,3.8476,3.816,3.7972,3.7857,3.7714,3.7583,3.751,3.7553,3.787,3.8286,3.8728,3.8918,3.8902,3.8807,3.8713,3.8318,3.8649,3.8665,3.827,3.8665,3.8918,3.8965,3.8886,3.8919,3.8811,3.878,3.8544,3.8355,3.8307,3.8241,3.8034,3.8003,3.7971,3.8031,3.8631,3.9046,3.9262,4.0031,4.0489,4.0489,4.0489,4.0489,4.0489,4.0489,4.0489,4.0489,4.0489,4.0489,4.0489,4.0489,4.0489,4.0489,4.0659,4.0674,4.0643,4.1335,4.1878,4.2048,4.2931,4.3824,4.4471,4.4805,4.4902,4.4955,4.5092,4.522,4.522,4.512,4.5073,4.5042,4.5104,4.5089,4.5073,4.5052,4.4989,4.4567,4.3987,4.3211,4.2911,4.2283,4.1681,4.1012,4.0112,3.9277,3.8524,3.825,3.8063,3.8175,3.8324,3.8138,3.7904,3.7347,3.695,3.7003,3.7134,3.7134,3.7148,3.7289,3.7505,3.739,3.725,3.7289,4.4808,4.4226,4.3039,4.2113,4.1416,4.0824,4.0252,3.9749,3.9351,3.8995,3.8673,3.8343,3.8205,3.816,3.7889,3.7743,3.7698,3.7583,3.751,3.7591,3.8127,3.8412,3.8681,3.9187,3.9487,3.9487,3.9503,3.9281,3.9029,3.9329,3.9234,3.9044,3.9313,3.9487,3.9439,3.9424,3.9377,3.925,3.9186,3.8994,3.8815,3.8702,3.8621,3.8508,3.8523,3.86,3.8923,3.9308,3.9582,3.989,4.029,4.0489,4.0489,4.0489,4.0489,4.0489,4.0489,4.0489,4.0489,4.0489,4.0489,4.0489,4.0489,4.0489,4.0489,4.0489,4.0489,4.0566,4.0905,4.1247,4.1771,4.2823,4.3824,4.444,4.4492,4.4344,4.4366,4.4403,4.4353,4.4214,4.4105,4.4121,4.4121,4.4338,4.4338,4.4229,4.4254,4.4109,4.384,4.3184,4.2602,4.2258,4.1853,4.124,4.0273,3.9331,3.8494,3.7738,3.7242,3.7025,3.7141,3.7396,3.7179,3.6922,3.6638,3.6508,3.6547,3.6626,3.6733,3.6772,3.6875,3.694,3.694,3.6783,3.6797,4.422,4.3128,4.2334,4.1343,4.0387,4.0053,3.9655,3.9209,3.8897,3.8574,3.8274,3.7988,3.7873,3.7828,3.7642,3.751,3.7494,3.751,3.7605,3.797,3.8665,3.9202,3.906,3.9677,3.9929,3.9929,3.974,3.9724,3.974,3.9692,3.9677,3.9661,3.9677,3.9724,3.985,3.9675,3.9517,3.9546,3.9397,3.9298,3.9199,3.9036,3.9,3.8985,3.897,3.9152,3.9474,3.969,3.989,4.0459,4.0489,4.0489,4.0489,4.0489,4.0489,4.0489,4.0489,4.0489,4.0489,4.0489,4.0489,4.0489,4.0489,4.0489,4.0455,4.0385,4.0231,4.0231,4.0316,4.0522,4.1408,4.2606,4.3454,4.3947,4.3762,4.3531,4.3424,4.347,4.3285,4.2709,4.2648,4.2617,4.2756,4.3017,4.3316,4.338,4.3457,4.3405,4.3121,4.2659,4.2053,4.1515,4.1081,4.069,3.9597,3.8502,3.7715,3.6922,3.6427,3.6163,3.6163,3.6243,3.6017,3.5831,3.6031,3.6071,3.5951,3.6085,3.6258,3.6338,3.6403,3.6626,3.6783,3.6547,3.6468,4.3201,4.2341,4.1233,4.0331,3.9671,3.9542,3.9022,3.8254,3.8169,3.8001,3.773,3.7612,3.7612,3.7583,3.7524,3.751,3.751,3.7541,3.7779,3.8397,3.9076,3.9787,4.0119,4.0735,4.1067,4.1051,4.1114,4.0846,4.0529,4.0557,4.0635,4.0194,4.0441,4.0749,4.0671,4.0577,4.0616,4.05,4.0368,4.0155,4.0038,3.997,3.9936,3.9936,3.9917,4.0059,4.0228,4.029,4.0351,4.0443,4.042,4.0301,4.0455,4.0455,4.042,4.042,4.042,4.0455,4.0455,4.037,4.0455,4.0351,4.0266,4.0489,4.0455,3.9849,3.9621,3.9427,3.9015,3.9349,4.0512,4.1464,4.2266,4.2794,4.2882,4.2617,4.2263,4.2509,4.2679,4.2571,4.2494,4.2586,4.2556,4.2602,4.2694,4.2617,4.2612,4.2709,4.2293,4.1801,4.1228,4.0435,4.0136,3.9627,3.8722,3.7738,3.7025,3.6466,3.6017,3.571,3.571,3.571,3.571,3.571,3.575,3.571,3.571,3.571,3.5965,3.5965,3.5965,3.6111,3.623,3.6111,3.6151,4.2854,4.2022,4.0738,3.9756,3.9179,3.8947,3.8523,3.7943,3.7756,3.7642,3.7539,3.751,3.751,3.751,3.751,3.751,3.751,3.7541,3.8079,3.8839,3.9408,4.0072,4.0924,4.1302,4.1489,4.1555,4.1474,4.122,4.106,4.107,4.097,4.0704,4.0946,4.1008,4.1083,4.1,4.0854,4.0737,4.0696,4.0593,4.0524,4.0489,4.0489,4.0385,4.0181,3.9955,3.9905,3.9499,3.9606,3.9728,3.9606,3.9763,4.0266,4.0146,3.9955,3.992,3.992,3.9692,3.9535,3.9692,3.9728,3.9427,3.9391,3.9391,3.9341,3.8928,3.8782,3.8657,3.8494,3.8639,3.9697,4.0551,4.1191,4.1437,4.1879,4.1791,4.1351,4.1643,4.1971,4.1771,4.1555,4.152,4.1612,4.1709,4.1407,4.1064,4.1273,4.1282,4.0122,3.9698,3.9646,3.9188,3.8974,3.8472,3.772,3.6947,3.6348,3.6017,3.5871,3.571,3.571,3.571,3.571,3.571,3.571,3.571,3.571,3.571,3.571,3.579,3.5804,3.575,3.575,3.5871,3.5911,4.2638,4.1644,4.0285,3.9362,3.875,3.846,3.8132,3.7815,3.7612,3.7539,3.751,3.751,3.751,3.751,3.751,3.748,3.7392,3.7462,3.795,3.8873,3.9088,3.9836,4.0645,4.0808,4.0755,4.1125,4.1256,4.1225,4.1158,4.1018,4.0786,4.0885,4.0562,4.0627,4.0799,4.0696,4.0578,4.0662,4.037,4.037,4.037,4.0335,4.0231,4.0111,3.9778,3.9269,3.9088,3.8672,3.8487,3.9015,3.8487,3.8891,3.9535,3.957,3.9124,3.9124,3.9124,3.8891,3.8583,3.8745,3.887,3.8123,3.8138,3.8175,3.8161,3.8063,3.7913,3.7913,3.7843,3.8054,3.8793,3.9475,3.983,4.0041,4.0619,4.0665,4.0386,4.0707,4.0593,4.0521,4.0461,4.0451,4.0375,4.0332,3.9896,3.9574,3.9823,3.9706,3.8624,3.804,3.8269,3.8199,3.7985,3.7548,3.6844,3.6584,3.5937,3.5831,3.571,3.571,3.571,3.571,3.571,3.571,3.571,3.571,3.571,3.571,3.571,3.571,3.571,3.571,3.571,3.571,3.571,4.1844,4.0186,3.9322,3.8794,3.8448,3.8132,3.7844,3.7583,3.7539,3.751,3.751,3.751,3.751,3.748,3.748,3.724,3.6955,3.697,3.7439,3.8185,3.8427,3.907,3.9637,3.9611,3.9346,3.9576,4.022,4.0867,4.0749,4.0339,4.015,4.0339,3.9448,3.9305,4.0025,3.999,3.9869,4.0095,3.9814,3.9778,4.0025,3.9763,3.9499,3.9463,3.9175,3.8818,3.8361,3.8175,3.8175,3.8287,3.8175,3.8235,3.8436,3.8361,3.825,3.8287,3.8287,3.8138,3.7936,3.8138,3.825,3.8123,3.7951,3.7951,3.7838,3.7472,3.7155,3.7102,3.7102,3.7187,3.7296,3.8088,3.8408,3.8533,3.8652,3.8759,3.8647,3.8833,3.9128,3.9226,3.9284,3.9356,3.9316,3.9193,3.8856,3.8627,3.8639,3.8583,3.792,3.7587,3.7653,3.7453,3.713,3.6624,3.6004,3.5977,3.575,3.575,3.571,3.571,3.571,3.571,3.571,3.571,3.571,3.571,3.571,3.571,3.571,3.571,3.571,3.571,3.571,3.571,3.571,4.1088,3.9823,3.9106,3.8539,3.816,3.7988,3.7756,3.7539,3.751,3.751,3.751,3.748,3.7315,3.715,3.7059,3.6785,3.6412,3.6344,3.6844,3.7462,3.7753,3.8216,3.8831,3.8627,3.8583,3.8694,3.9269,3.9657,3.9657,3.9145,3.9094,3.9094,3.8436,3.8546,3.9,3.8891,3.8928,3.9124,3.8928,3.8855,3.9233,3.8818,3.8745,3.8635,3.8279,3.7866,3.7548,3.6986,3.7102,3.7295,3.7063,3.7127,3.7256,3.7179,3.7049,3.7396,3.7472,3.7242,3.7088,3.7141,3.7295,3.6869,3.6869,3.6869,3.6791,3.6506,3.6336,3.6296,3.6282,3.6296,3.6363,3.6961,3.7102,3.7049,3.7357,3.7548,3.751,3.7686,3.7875,3.8063,3.8287,3.8399,3.8399,3.8204,3.7927,3.7701,3.7525,3.7333,3.7088,3.7025,3.6986,3.6727,3.6441,3.6203,3.5777,3.575,3.571,3.571,3.571,3.571,3.571,3.571,3.571,3.571,3.571,3.571,3.571,3.571,3.571,3.571,3.571,3.571,3.571,3.571,3.571,4.0488,3.9624,3.9011,3.8399,3.7943,3.7844,3.7714,3.7539,3.751,3.7421,3.7345,3.7285,3.7029,3.6569,3.6274,3.6008,3.564,3.5584,3.5918,3.6379,3.6632,3.717,3.7732,3.7814,3.7543,3.7548,3.7648,3.7875,3.8413,3.8063,3.7988,3.8063,3.7936,3.7875,3.8063,3.8026,3.7965,3.8063,3.789,3.7838,3.789,3.8026,3.7988,3.7838,3.7218,3.6897,3.6624,3.6203,3.6177,3.6362,3.6203,3.6044,3.6401,3.6017,3.5977,3.648,3.6624,3.6282,3.6123,3.6243,3.6387,3.5937,3.571,3.5669,3.5629,3.5736,3.5629,3.5602,3.5602,3.5629,3.571,3.6057,3.6044,3.5977,3.6427,3.6869,3.6596,3.6557,3.6621,3.6894,3.7228,3.7343,3.7266,3.7204,3.6908,3.6844,3.6663,3.6584,3.6348,3.6203,3.6084,3.5977,3.5831,3.5831,3.571,3.575,3.571,3.571,3.571,3.571,3.571,3.571,3.571,3.5669,3.571,3.571,3.571,3.571,3.571,3.571,3.571,3.571,3.571,3.571,3.571,4.0188,3.8892,3.8576,3.8234,3.7886,3.7655,3.7569,3.751,3.748,3.7225,3.6846,3.6754,3.6476,3.5866,3.5157,3.4861,3.4693,3.4605,3.466,3.5003,3.5091,3.5456,3.5812,3.5405,3.5795,3.6069,3.6077,3.6869,3.7358,3.7167,3.7396,3.761,3.683,3.661,3.761,3.7295,3.7448,3.78,3.7372,3.7039,3.7155,3.7625,3.7548,3.7179,3.6844,3.6559,3.6057,3.579,3.5831,3.5831,3.579,3.575,3.579,3.5629,3.548,3.5588,3.571,3.579,3.571,3.5831,3.5817,3.5521,3.544,3.5318,3.5277,3.5236,3.5236,3.5154,3.5195,3.5236,3.5236,3.529,3.5236,3.5277,3.5453,3.5602,3.5467,3.5763,3.5749,3.5749,3.6136,3.611,3.6044,3.5977,3.5911,3.5871,3.5831,3.579,3.571,3.5629,3.5602,3.5521,3.5521,3.548,3.548,3.5548,3.5588,3.5588,3.5629,3.5629,3.5588,3.5548,3.5629,3.5629,3.5629,3.5629,3.5548,3.5588,3.5669,3.571,3.571,3.571,3.571,3.571,3.571,3.9039,3.8286,3.816,3.7931,3.7685,3.7553,3.751,3.745,3.7165,3.6923,3.6631,3.6117,3.5546,3.4832,3.4124,3.3865,3.3833,3.3741,3.3968,3.4144,3.42,3.4413,3.4867,3.458,3.4504,3.4653,3.4719,3.4883,3.5645,3.6225,3.6466,3.6596,3.6137,3.5977,3.6869,3.6427,3.6427,3.6531,3.6387,3.6256,3.6322,3.6545,3.661,3.6256,3.6243,3.6017,3.579,3.571,3.5629,3.5588,3.5521,3.548,3.5358,3.5277,3.5236,3.5236,3.5331,3.5358,3.5358,3.5372,3.5318,3.5277,3.5249,3.5208,3.5127,3.5072,3.5072,3.5113,3.5113,3.5072,3.5044,3.5003,3.5044,3.499,3.4867,3.4867,3.4921,3.4921,3.5072,3.499,3.5003,3.5154,3.5277,3.5358,3.544,3.5521,3.548,3.544,3.5399,3.5318,3.5318,3.5331,3.5277,3.5236,3.5277,3.5277,3.5318,3.5318,3.5318,3.5318,3.5318,3.5358,3.544,3.5399,3.5318,3.5318,3.5399,3.5521,3.5588,3.5669,3.571,3.5669,3.5669,3.571,3.571,3.8033,3.7815,3.7886,3.7756,3.748,3.7345,3.7285,3.7225,3.6754,3.643,3.6101,3.54,3.4562,3.3871,3.3416,3.3199,3.3164,3.3058,3.3387,3.3583,3.3624,3.3707,3.3979,3.384,3.3786,3.3894,3.4084,3.4172,3.4337,3.4758,3.5287,3.5493,3.5722,3.5736,3.571,3.579,3.5897,3.5857,3.5857,3.579,3.579,3.579,3.579,3.5723,3.5683,3.5629,3.5588,3.5548,3.544,3.5358,3.5318,3.5236,3.5154,3.5072,3.5044,3.499,3.499,3.4908,3.499,3.5031,3.5031,3.499,3.4908,3.4867,3.4908,3.4949,3.4908,3.4867,3.4867,3.4867,3.488,3.4743,3.4784,3.4701,3.4618,3.4618,3.4632,3.4701,3.4701,3.4701,3.4743,3.4784,3.4908,3.4921,3.5003,3.5072,3.5072,3.5072,3.5072,3.5031,3.5072,3.5127,3.5086,3.5072,3.5113,3.5113,3.5072,3.5072,3.5072,3.5072,3.5154,3.5154,3.5195,3.5154,3.5072,3.5154,3.5236,3.5399,3.5562,3.548,3.548,3.5602,3.5629,3.5629,3.5453,3.7569,3.7569,3.7786,3.7698,3.7435,3.6938,3.6769,3.6708,3.618,3.5705,3.5154,3.4356,3.3707,3.329,3.2938,3.2739,3.2739,3.2408,3.2554,3.2559,3.2404,3.2826,3.3183,3.3335,3.3349,3.3691,3.3637,3.3677,3.388,3.3908,3.4409,3.4816,3.5167,3.5533,3.5683,3.5655,3.571,3.571,3.571,3.571,3.5669,3.5669,3.5683,3.5629,3.5521,3.544,3.5399,3.5277,3.5195,3.5154,3.5113,3.5072,3.499,3.488,3.4797,3.4743,3.466,3.4577,3.4605,3.4825,3.4962,3.4797,3.466,3.4522,3.4564,3.4481,3.4439,3.4522,3.4564,3.4522,3.4481,3.4439,3.4522,3.4522,3.4481,3.4494,3.4494,3.4494,3.4481,3.4439,3.4481,3.4618,3.4618,3.466,3.4743,3.4825,3.4867,3.4867,3.4867,3.4867,3.4908,3.4908,3.488,3.4921,3.5044,3.499,3.4908,3.4867,3.4908,3.4949,3.5003,3.5044,3.4949,3.4949,3.4908,3.499,3.5072,3.5072,3.5113,3.5208,3.5249,3.5277,3.5209,3.5073,3.4868,3.751,3.748,3.727,3.7104,3.7014,3.6785,3.6523,3.6149,3.5672,3.4876,3.4051,3.3409,3.2917,3.2646,3.2516,3.2372,3.2386,3.2277,3.2409,3.2517,3.2531,3.2626,3.283,3.2775,3.2643,3.2874,3.2888,3.2861,3.2833,3.3227,3.3471,3.3878,3.4367,3.4775,3.5032,3.5547,3.5696,3.5723,3.5723,3.5723,3.5669,3.5562,3.5521,3.5521,3.5331,3.5236,3.5195,3.5154,3.5044,3.4962,3.4921,3.4825,3.4743,3.4618,3.4577,3.4577,3.4439,3.4397,3.4397,3.4577,3.4618,3.4564,3.4439,3.4397,3.4397,3.4397,3.4397,3.4397,3.4397,3.4397,3.4397,3.4397,3.4397,3.4397,3.4397,3.4397,3.4397,3.4397,3.4397,3.4397,3.4397,3.4439,3.4439,3.4439,3.4535,3.4618,3.4647,3.4647,3.4701,3.4701,3.4701,3.4743,3.466,3.4618,3.4743,3.4743,3.4688,3.4701,3.4743,3.4743,3.4784,3.466,3.4605,3.466,3.4701,3.4743,3.4701,3.4647,3.4743,3.4949,3.4949,3.4936,3.4799,3.4566,3.4053,3.7421,3.7225,3.6846,3.6723,3.6662,3.6399,3.6038,3.5625,3.5169,3.437,3.3269,3.2881,3.2503,3.2277,3.2205,3.2205,3.2241,3.2246,3.2463,3.249,3.2449,3.2504,3.2558,3.2504,3.2314,3.2205,3.2205,3.2273,3.2318,3.2667,3.2843,3.2969,3.3254,3.3851,3.4843,3.5384,3.571,3.5723,3.5642,3.5642,3.5588,3.5399,3.5331,3.5277,3.5127,3.5044,3.4949,3.4908,3.4784,3.4714,3.466,3.4577,3.4481,3.4397,3.4397,3.4397,3.4397,3.4397,3.4397,3.4397,3.4397,3.4439,3.4397,3.4397,3.4397,3.4397,3.4397,3.4397,3.4397,3.4397,3.4397,3.4397,3.4397,3.4397,3.4397,3.4397,3.4397,3.4397,3.4397,3.4397,3.4397,3.4397,3.4397,3.4397,3.4439,3.4481,3.4522,3.4522,3.4522,3.4481,3.4481,3.4481,3.4481,3.4439,3.4397,3.4481,3.4564,3.4522,3.4535,3.4481,3.4481,3.4397,3.4397,3.4481,3.4481,3.4397,3.4439,3.4481,3.4618,3.4784,3.4605,3.4275,3.4095,3.3775,3.2998,3.718,3.6754,3.6677,3.6631,3.6445,3.5608,3.5219,3.507,3.4553,3.3942,3.3234,3.281,3.2503,3.2241,3.2205,3.2205,3.2205,3.2205,3.2286,3.2286,3.23,3.2259,3.2273,3.2232,3.2273,3.2218,3.2218,3.2218,3.2286,3.2354,3.2368,3.2359,3.2634,3.3271,3.4694,3.5371,3.5683,3.5669,3.5494,3.544,3.5358,3.5195,3.5127,3.5044,3.4867,3.4784,3.4756,3.466,3.4535,3.4494,3.4494,3.4439,3.4397,3.4397,3.4397,3.4397,3.4397,3.4397,3.4397,3.4397,3.4397,3.4397,3.4397,3.4397,3.4397,3.4397,3.4397,3.4397,3.4397,3.4397,3.4397,3.4397,3.4397,3.4397,3.4397,3.4397,3.4397,3.4397,3.4397,3.4397,3.4397,3.4397,3.4397,3.4397,3.4397,3.4397,3.4397,3.4397,3.4397,3.4397,3.4397,3.4397,3.4397,3.4397,3.4397,3.4397,3.4397,3.4397,3.4397,3.4397,3.4397,3.4397,3.4397,3.4397,3.4397,3.4397,3.4397,3.4356,3.4314,3.4121,3.3759,3.3492,3.331,3.2827,3.196,3.6877,3.6662,3.5975,3.5544,3.5287,3.496,3.4624,3.4201,3.3583,3.3129,3.2868,3.2503,3.235,3.2205,3.2205,3.2205,3.2205,3.2205,3.2205,3.2205,3.2205,3.2218,3.2169,3.2173,3.2345,3.2585,3.2504,3.2453,3.283,3.2558,3.2273,3.2223,3.2492,3.3106,3.3917,3.4591,3.4982,3.5251,3.5249,3.5195,3.5195,3.5003,3.488,3.488,3.466,3.4577,3.4577,3.4439,3.4397,3.4397,3.4397,3.4397,3.4397,3.4397,3.4397,3.4397,3.4397,3.4397,3.4397,3.4397,3.4397,3.4397,3.4397,3.4397,3.4397,3.4397,3.4397,3.4397,3.4397,3.4397,3.4397,3.4397,3.4397,3.4397,3.4397,3.4397,3.4397,3.4397,3.4397,3.4397,3.4397,3.4356,3.4356,3.4272,3.423,3.4272,3.4272,3.4356,3.4397,3.4397,3.4397,3.4397,3.4397,3.4397,3.4397,3.4397,3.4397,3.4397,3.4397,3.4397,3.4397,3.4397,3.4356,3.4356,3.4356,3.4397,3.4272,3.4105,3.3602,3.3292,3.298,3.2525,3.2221,3.1565,3.0609,3.5814,3.5446,3.4805,3.4195,3.3827,3.4153,3.4051,3.3548,3.2988,3.269,3.2632,3.2336,3.2205,3.2205,3.2205,3.2205,3.2205,3.2205,3.2205,3.2205,3.2205,3.2205,3.2169,3.2027,3.2135,3.2482,3.2526,3.2475,3.3047,3.2901,3.2701,3.2536,3.2562,3.2894,3.3431,3.3912,3.4339,3.4593,3.4659,3.4777,3.4815,3.4797,3.4673,3.4618,3.4494,3.4397,3.4397,3.4397,3.4397,3.4397,3.4397,3.4397,3.4397,3.4397,3.4397,3.4397,3.4397,3.4397,3.4397,3.4397,3.4397,3.4397,3.4397,3.4397,3.4397,3.4397,3.4397,3.4397,3.4356,3.4314,3.4314,3.4314,3.4272,3.423,3.4189,3.4189,3.4189,3.4147,3.4147,3.4189,3.4189,3.4189,3.4189,3.4147,3.4063,3.4092,3.4134,3.423,3.4356,3.4356,3.4314,3.4314,3.4356,3.4356,3.4356,3.4397,3.4397,3.4397,3.4356,3.4314,3.4397,3.4397,3.4356,3.4314,3.423,3.4147,3.4021,3.3755,3.3122,3.2593,3.2202,3.1753,3.1223,3.0441,2.96,3.4118,3.3362,3.3269,3.2796,3.2276,3.3109,3.3401,3.322,3.2846,3.2654,3.2632,3.2314,3.2205,3.2232,3.2246,3.2227,3.2249,3.2235,3.2192,3.2165,3.2128,3.2146,3.1971,3.171,3.2002,3.215,3.2219,3.2402,3.3049,3.2883,3.2806,3.2568,3.2274,3.2306,3.2555,3.2909,3.3502,3.4111,3.4308,3.4466,3.4635,3.4564,3.4494,3.4439,3.4397,3.4397,3.4397,3.4397,3.4397,3.4397,3.4397,3.4397,3.4397,3.4397,3.4397,3.4397,3.4397,3.4356,3.4356,3.4314,3.4272,3.423,3.4285,3.4356,3.4356,3.4314,3.4272,3.4272,3.423,3.4147,3.4105,3.4063,3.3979,3.3882,3.3797,3.3797,3.3797,3.3797,3.3797,3.3797,3.3797,3.3839,3.3839,3.3839,3.3894,3.3882,3.3924,3.4021,3.4105,3.4176,3.4176,3.4176,3.423,3.4314,3.4314,3.423,3.4189,3.4147,3.4189,3.4189,3.4272,3.4272,3.4189,3.4063,3.3992,3.3852,3.3501,3.3006,3.2376,3.184,3.1033,3.0923,3.0429,2.9772,2.9024,3.3424,3.2914,3.2533,3.1936,3.1285,3.1329,3.1791,3.2426,3.2386,3.235,3.2336,3.2241,3.2169,3.2246,3.264,3.2438,3.2377,3.2389,3.2279,3.2188,3.2005,3.198,3.1876,3.1798,3.2057,3.2227,3.2317,3.2225,3.2524,3.2547,3.1779,3.1013,3.1556,3.1316,3.113,3.1362,3.2684,3.3742,3.3938,3.4245,3.4417,3.4387,3.4358,3.4384,3.4332,3.4345,3.4384,3.4397,3.4397,3.4397,3.4397,3.4397,3.4397,3.4397,3.4397,3.4356,3.4272,3.4189,3.4147,3.4021,3.3937,3.3966,3.3924,3.4034,3.4118,3.416,3.4105,3.4063,3.4021,3.3937,3.3894,3.381,3.3725,3.3641,3.3598,3.3598,3.3598,3.3598,3.3598,3.3586,3.3586,3.3598,3.3586,3.3641,3.3683,3.367,3.3713,3.3768,3.3894,3.3924,3.4008,3.4008,3.4008,3.4063,3.3966,3.3882,3.3894,3.3894,3.3979,3.4021,3.3966,3.3924,3.3894,3.3683,3.333,3.3018,3.276,3.2084,3.1134,3.0271,2.9555,2.9658,2.9635,2.9059,2.871,3.2085,3.1669,3.1257,3.0853,3.0535,3.0194,3.0717,3.1694,3.1816,3.1924,3.2191,3.2205,3.2059,3.183,3.2075,3.2016,3.1668,3.1863,3.1927,3.2,3.1898,3.1891,3.1849,3.1737,3.1843,3.2097,3.2222,3.213,3.2189,3.1917,3.1227,3.0777,3.1046,3.0343,3.0102,3.0409,3.134,3.2436,3.3257,3.3814,3.4087,3.4186,3.4201,3.4306,3.4241,3.4214,3.4358,3.4384,3.4397,3.4397,3.4397,3.4397,3.4397,3.4397,3.4314,3.4285,3.4202,3.4021,3.3937,3.381,3.3713,3.367,3.367,3.3725,3.3823,3.3865,3.3797,3.3797,3.3755,3.3683,3.3628,3.3543,3.3513,3.3441,3.3441,3.3441,3.3441,3.3441,3.3441,3.3428,3.3428,3.3441,3.3441,3.3484,3.3441,3.3398,3.3398,3.3398,3.3569,3.367,3.3755,3.3839,3.3797,3.3755,3.367,3.3628,3.367,3.3725,3.3797,3.3797,3.3713,3.3628,3.3586,3.3061,3.2457,3.2183,3.1821,3.0598,2.9612,2.8923,2.8609,2.8713,2.8863,2.8642,2.842,3.0492,3.0107,2.9679,2.971,2.9821,2.9547,3.014,3.1151,3.1219,3.1572,3.2074,3.2132,3.174,3.1421,3.147,3.1291,3.124,3.1377,3.1637,3.1815,3.1849,3.1833,3.1684,3.1439,3.1668,3.1797,3.1772,3.1595,3.1699,3.1355,3.091,3.0874,3.0332,2.9725,2.9348,2.9404,3.0055,3.0779,3.1741,3.2449,3.3679,3.3921,3.3849,3.4136,3.4045,3.3901,3.4214,3.4358,3.4397,3.4397,3.4397,3.4397,3.4356,3.4314,3.4243,3.4118,3.3992,3.3865,3.3725,3.3598,3.3598,3.3598,3.3628,3.3513,3.3526,3.3611,3.3641,3.3556,3.3471,3.3484,3.3398,3.3356,3.3313,3.3283,3.3283,3.3283,3.3283,3.3283,3.3283,3.3283,3.3283,3.3283,3.3283,3.3283,3.3283,3.321,3.3167,3.3167,3.324,3.3428,3.3513,3.3586,3.3556,3.3513,3.3513,3.3513,3.3543,3.3586,3.3586,3.3598,3.3471,3.3386,3.3245,3.2717,3.2152,3.1323,3.0687,2.9521,2.8749,2.8609,2.8294,2.8034,2.7951,2.8045,2.8128,2.9806,2.9665,2.9067,2.8876,2.892,2.8836,2.9509,3.0595,3.0622,3.1232,3.1947,3.1703,3.1344,3.111,3.1021,3.0854,3.0583,3.0963,3.1348,3.1434,3.1504,3.165,3.1712,3.1491,3.1546,3.1549,3.1352,3.08,3.05,3.0213,2.9909,2.95,2.9325,2.9187,2.8356,2.8459,2.897,2.9467,3.0005,3.1272,3.281,3.3798,3.4175,3.4003,3.3781,3.3727,3.3962,3.4105,3.4264,3.4397,3.4397,3.4314,3.4202,3.416,3.4034,3.3852,3.3696,3.3569,3.3356,3.3172,3.3086,3.3099,3.3129,3.3185,3.3227,3.3398,3.3398,3.327,3.327,3.324,3.3197,3.3197,3.3154,3.3111,3.3124,3.3124,3.3124,3.3124,3.3124,3.3124,3.3124,3.3124,3.3124,3.3124,3.3124,3.3124,3.3124,3.3124,3.3124,3.324,3.3283,3.3313,3.3283,3.324,3.3283,3.3368,3.3398,3.3356,3.3313,3.3283,3.3283,3.3227,3.3086,3.2513,3.1889,3.0878,2.9749,2.8656,2.807,2.807,2.7987,2.7726,2.7584,2.7631,2.7762,2.9383,2.932,2.8826,2.8587,2.8587,2.8587,2.9292,3.0235,3.0129,3.0655,3.1633,3.1344,3.0921,3.0507,3.0405,3.0303,2.9942,3.04,3.079,3.0948,3.1069,3.1229,3.1364,3.1339,3.1089,3.0982,3.0532,2.9966,2.9485,2.9255,2.9106,2.8808,2.8902,2.8511,2.76,2.7843,2.8036,2.8386,2.8724,2.9824,3.1516,3.2361,3.3059,3.2947,3.2782,3.2808,3.2976,3.3059,3.322,3.3707,3.4063,3.4105,3.3979,3.3937,3.381,3.3598,3.3441,3.3172,3.2785,3.2469,3.2251,3.212,3.1889,3.1657,3.1601,3.1733,3.2513,3.2513,3.3068,3.3167,3.3167,3.3154,3.3111,3.3124,3.3124,3.3124,3.3124,3.3124,3.3124,3.3124,3.3124,3.3124,3.3124,3.3124,3.3124,3.3081,3.3081,3.3025,3.3025,3.3124,3.3124,3.3124,3.3124,3.3124,3.3167,3.321,3.3197,3.3124,3.3124,3.3167,3.321,3.3111,3.2896,3.2033,3.108,2.9977,2.8888,2.793,2.7573,2.7631,2.7536,2.7357,2.732,2.7272,2.7394,2.9035,2.9004,2.8716,2.8587,2.8587,2.8587,2.9212,3.0063,2.9732,3.0033,3.0792,3.0809,3.0203,2.9716,2.9287,2.9224,2.927,2.9477,2.9906,3.0402,3.0627,3.0714,3.0775,3.0802,3.0578,3.0261,2.9852,2.9577,2.9301,2.9082,2.8863,2.8694,2.8375,2.798,2.7718,2.7293,2.7107,2.7679,2.8074,2.8373,2.9371,3.0447,3.122,3.1335,3.1123,3.1035,3.1257,3.1471,3.162,3.2222,3.3003,3.3036,3.2993,3.2864,3.2834,3.263,3.25,3.2108,3.1713,3.1436,3.1036,3.0576,3.026,3.017,3.0204,3.0621,3.1392,3.1845,3.2438,3.281,3.281,3.281,3.281,3.2766,3.2766,3.2667,3.2624,3.2624,3.2667,3.2667,3.2667,3.2624,3.2667,3.2711,3.2711,3.2766,3.2896,3.2896,3.2884,3.3025,3.3124,3.3124,3.3124,3.3124,3.3124,3.3124,3.3124,3.3124,3.3124,3.3124,3.3038,3.2766,3.2164,3.1169,3.017,2.9211,2.8387,2.7573,2.7347,2.7167,2.7081,2.7034,2.7034,2.6976,2.7071,2.8683,2.8683,2.8619,2.8587,2.8587,2.8587,2.9019,2.9573,2.9566,2.9658,2.9656,2.9445,2.9184,2.9341,2.8855,2.8695,2.8706,2.8726,2.9071,2.9607,2.9848,3.0055,3.0213,3.0216,2.9988,2.9715,2.9439,2.9312,2.9128,2.8896,2.8803,2.8771,2.8309,2.7991,2.786,2.7358,2.7009,2.7415,2.7261,2.7345,2.8034,2.9025,2.9868,3.008,3.017,2.9913,2.9832,2.9911,3.0259,3.0726,3.1256,3.1436,3.1472,3.144,3.14,3.1424,3.1291,3.0979,3.0621,3.0441,3.0068,2.9852,2.9715,2.9795,2.9841,2.9897,3.0396,3.0486,3.1024,3.1657,3.1757,3.1801,3.1801,3.1581,3.1448,3.1169,3.0979,3.0979,3.0979,3.0979,3.0979,3.0979,3.0979,3.1024,3.1024,3.1202,3.1625,3.1657,3.1789,3.2351,3.2896,3.2797,3.2711,3.3124,3.3068,3.3124,3.3124,3.3124,3.2982,3.2766,3.2494,3.2176,3.1448,3.0339,2.9475,2.8552,2.7788,2.7109,2.6918,2.6784,2.6699,2.6651,2.6699,2.6736,2.6832]}]]